<?xml version="1.0" encoding="UTF-8" standalone="no" ?>
<gpx xmlns="http://www.topografix.com/GPX/1/1" xmlns:xsi="http://www.w3.org/2001/XMLSchema-instance" xsi:schemaLocation="http://www.topografix.com/GPX/1/1 http://www.topografix.com/GPX/1/1/gpx.xsd" version="1.1" creator="VisuGPX - https://www.visugpx.com">
  <metadata>
    <name>Pignan VTT 22 Janvier</name>
    <desc><![CDATA[Sortie à 5 vers st paul]]></desc>
  </metadata>
  <trk>
    <name><![CDATA[Pignan VTT 22 Janvier_1]]></name>
    <trkseg>
      <trkpt lat="43.58295" lon="3.76283">
        <ele>41.9</ele>
        <time>2012-01-22T07:51:35Z</time>
      </trkpt>
      <trkpt lat="43.58295" lon="3.76283">
        <ele>80.9</ele>
        <time>2012-01-22T07:54:14Z</time>
      </trkpt>
      <trkpt lat="43.58295" lon="3.76273">
        <ele>86.9</ele>
        <time>2012-01-22T07:54:17Z</time>
      </trkpt>
      <trkpt lat="43.58295" lon="3.76273">
        <ele>42.2</ele>
        <time>2012-01-22T07:54:28Z</time>
      </trkpt>
      <trkpt lat="43.58295" lon="3.76273">
        <ele>42.2</ele>
        <time>2012-01-22T07:54:36Z</time>
      </trkpt>
      <trkpt lat="43.58315" lon="3.76245">
        <ele>117.7</ele>
        <time>2012-01-22T07:54:43Z</time>
      </trkpt>
      <trkpt lat="43.58323" lon="3.76201">
        <ele>128.9</ele>
        <time>2012-01-22T07:54:47Z</time>
      </trkpt>
      <trkpt lat="43.58328" lon="3.76167">
        <ele>141.6</ele>
        <time>2012-01-22T07:54:51Z</time>
      </trkpt>
      <trkpt lat="43.58338" lon="3.76138">
        <ele>135.9</ele>
        <time>2012-01-22T07:54:55Z</time>
      </trkpt>
      <trkpt lat="43.58354" lon="3.76109">
        <ele>129.9</ele>
        <time>2012-01-22T07:54:59Z</time>
      </trkpt>
      <trkpt lat="43.58367" lon="3.76082">
        <ele>124.8</ele>
        <time>2012-01-22T07:55:03Z</time>
      </trkpt>
      <trkpt lat="43.58376" lon="3.76055">
        <ele>114.1</ele>
        <time>2012-01-22T07:55:07Z</time>
      </trkpt>
      <trkpt lat="43.58381" lon="3.76034">
        <ele>104.6</ele>
        <time>2012-01-22T07:55:11Z</time>
      </trkpt>
      <trkpt lat="43.58381" lon="3.76007">
        <ele>74.9</ele>
        <time>2012-01-22T07:55:15Z</time>
      </trkpt>
      <trkpt lat="43.58382" lon="3.75995">
        <ele>73.7</ele>
        <time>2012-01-22T07:55:17Z</time>
      </trkpt>
      <trkpt lat="43.58393" lon="3.75964">
        <ele>71.4</ele>
        <time>2012-01-22T07:55:23Z</time>
      </trkpt>
      <trkpt lat="43.58401" lon="3.75945">
        <ele>70.8</ele>
        <time>2012-01-22T07:55:27Z</time>
      </trkpt>
      <trkpt lat="43.58405" lon="3.75935">
        <ele>71.5</ele>
        <time>2012-01-22T07:55:29Z</time>
      </trkpt>
      <trkpt lat="43.58412" lon="3.75916">
        <ele>69.2</ele>
        <time>2012-01-22T07:55:33Z</time>
      </trkpt>
      <trkpt lat="43.5842" lon="3.75896">
        <ele>70.5</ele>
        <time>2012-01-22T07:55:38Z</time>
      </trkpt>
      <trkpt lat="43.58428" lon="3.75875">
        <ele>67.8</ele>
        <time>2012-01-22T07:55:42Z</time>
      </trkpt>
      <trkpt lat="43.58429" lon="3.75863">
        <ele>63.3</ele>
        <time>2012-01-22T07:55:44Z</time>
      </trkpt>
      <trkpt lat="43.58428" lon="3.75841">
        <ele>61</ele>
        <time>2012-01-22T07:55:48Z</time>
      </trkpt>
      <trkpt lat="43.58433" lon="3.75818">
        <ele>58.2</ele>
        <time>2012-01-22T07:55:54Z</time>
      </trkpt>
      <trkpt lat="43.5844" lon="3.758">
        <ele>56.1</ele>
        <time>2012-01-22T07:55:58Z</time>
      </trkpt>
      <trkpt lat="43.58445" lon="3.75792">
        <ele>54.6</ele>
        <time>2012-01-22T07:56:01Z</time>
      </trkpt>
      <trkpt lat="43.5845" lon="3.75786">
        <ele>53.2</ele>
        <time>2012-01-22T07:56:04Z</time>
      </trkpt>
      <trkpt lat="43.58456" lon="3.75766">
        <ele>52.6</ele>
        <time>2012-01-22T07:56:10Z</time>
      </trkpt>
      <trkpt lat="43.5846" lon="3.75748">
        <ele>56.5</ele>
        <time>2012-01-22T07:56:14Z</time>
      </trkpt>
      <trkpt lat="43.58467" lon="3.7573">
        <ele>60.9</ele>
        <time>2012-01-22T07:56:20Z</time>
      </trkpt>
      <trkpt lat="43.58473" lon="3.75715">
        <ele>57.5</ele>
        <time>2012-01-22T07:56:28Z</time>
      </trkpt>
      <trkpt lat="43.58468" lon="3.75709">
        <ele>59.2</ele>
        <time>2012-01-22T07:56:32Z</time>
      </trkpt>
      <trkpt lat="43.58468" lon="3.75709">
        <ele>54.3</ele>
        <time>2012-01-22T07:56:43Z</time>
      </trkpt>
      <trkpt lat="43.58468" lon="3.75709">
        <ele>54.3</ele>
        <time>2012-01-22T08:00:04Z</time>
      </trkpt>
      <trkpt lat="43.58468" lon="3.75709">
        <ele>54.3</ele>
        <time>2012-01-22T08:00:15Z</time>
      </trkpt>
      <trkpt lat="43.58468" lon="3.75709">
        <ele>54.3</ele>
        <time>2012-01-22T08:03:21Z</time>
      </trkpt>
      <trkpt lat="43.58455" lon="3.75753">
        <ele>78</ele>
        <time>2012-01-22T08:03:25Z</time>
      </trkpt>
      <trkpt lat="43.58474" lon="3.75807">
        <ele>77.9</ele>
        <time>2012-01-22T08:03:34Z</time>
      </trkpt>
      <trkpt lat="43.58488" lon="3.7583">
        <ele>79.9</ele>
        <time>2012-01-22T08:03:38Z</time>
      </trkpt>
      <trkpt lat="43.58503" lon="3.75853">
        <ele>77.8</ele>
        <time>2012-01-22T08:03:42Z</time>
      </trkpt>
      <trkpt lat="43.58517" lon="3.75873">
        <ele>78</ele>
        <time>2012-01-22T08:03:45Z</time>
      </trkpt>
      <trkpt lat="43.58528" lon="3.75897">
        <ele>71.3</ele>
        <time>2012-01-22T08:03:49Z</time>
      </trkpt>
      <trkpt lat="43.58536" lon="3.75921">
        <ele>69.6</ele>
        <time>2012-01-22T08:03:53Z</time>
      </trkpt>
      <trkpt lat="43.58542" lon="3.75942">
        <ele>67.8</ele>
        <time>2012-01-22T08:03:57Z</time>
      </trkpt>
      <trkpt lat="43.58552" lon="3.75963">
        <ele>67.4</ele>
        <time>2012-01-22T08:04:01Z</time>
      </trkpt>
      <trkpt lat="43.58558" lon="3.75973">
        <ele>68.7</ele>
        <time>2012-01-22T08:04:03Z</time>
      </trkpt>
      <trkpt lat="43.58571" lon="3.76001">
        <ele>70</ele>
        <time>2012-01-22T08:04:09Z</time>
      </trkpt>
      <trkpt lat="43.58582" lon="3.76019">
        <ele>76.2</ele>
        <time>2012-01-22T08:04:13Z</time>
      </trkpt>
      <trkpt lat="43.58571" lon="3.76043">
        <ele>72.8</ele>
        <time>2012-01-22T08:04:17Z</time>
      </trkpt>
      <trkpt lat="43.58574" lon="3.76062">
        <ele>71.5</ele>
        <time>2012-01-22T08:04:20Z</time>
      </trkpt>
      <trkpt lat="43.58594" lon="3.7609">
        <ele>72.7</ele>
        <time>2012-01-22T08:04:26Z</time>
      </trkpt>
      <trkpt lat="43.58604" lon="3.76106">
        <ele>73.7</ele>
        <time>2012-01-22T08:04:29Z</time>
      </trkpt>
      <trkpt lat="43.58619" lon="3.76134">
        <ele>68.1</ele>
        <time>2012-01-22T08:04:34Z</time>
      </trkpt>
      <trkpt lat="43.58631" lon="3.76155">
        <ele>69.6</ele>
        <time>2012-01-22T08:04:38Z</time>
      </trkpt>
      <trkpt lat="43.5864" lon="3.76175">
        <ele>70.9</ele>
        <time>2012-01-22T08:04:42Z</time>
      </trkpt>
      <trkpt lat="43.58651" lon="3.76193">
        <ele>73.7</ele>
        <time>2012-01-22T08:04:46Z</time>
      </trkpt>
      <trkpt lat="43.58657" lon="3.76204">
        <ele>72.3</ele>
        <time>2012-01-22T08:04:48Z</time>
      </trkpt>
      <trkpt lat="43.58667" lon="3.76225">
        <ele>71.6</ele>
        <time>2012-01-22T08:04:52Z</time>
      </trkpt>
      <trkpt lat="43.5868" lon="3.76257">
        <ele>69.6</ele>
        <time>2012-01-22T08:04:58Z</time>
      </trkpt>
      <trkpt lat="43.58689" lon="3.76262">
        <ele>70.1</ele>
        <time>2012-01-22T08:05:01Z</time>
      </trkpt>
      <trkpt lat="43.58701" lon="3.7628">
        <ele>68.7</ele>
        <time>2012-01-22T08:05:05Z</time>
      </trkpt>
      <trkpt lat="43.58708" lon="3.76287">
        <ele>69</ele>
        <time>2012-01-22T08:05:07Z</time>
      </trkpt>
      <trkpt lat="43.58723" lon="3.76297">
        <ele>64.2</ele>
        <time>2012-01-22T08:05:12Z</time>
      </trkpt>
      <trkpt lat="43.58743" lon="3.76292">
        <ele>62.2</ele>
        <time>2012-01-22T08:05:18Z</time>
      </trkpt>
      <trkpt lat="43.58749" lon="3.763">
        <ele>60.4</ele>
        <time>2012-01-22T08:05:20Z</time>
      </trkpt>
      <trkpt lat="43.58762" lon="3.76333">
        <ele>57.6</ele>
        <time>2012-01-22T08:05:26Z</time>
      </trkpt>
      <trkpt lat="43.58766" lon="3.76342">
        <ele>56.6</ele>
        <time>2012-01-22T08:05:28Z</time>
      </trkpt>
      <trkpt lat="43.58774" lon="3.76359">
        <ele>56.6</ele>
        <time>2012-01-22T08:05:32Z</time>
      </trkpt>
      <trkpt lat="43.58792" lon="3.76372">
        <ele>59.3</ele>
        <time>2012-01-22T08:05:38Z</time>
      </trkpt>
      <trkpt lat="43.58807" lon="3.76376">
        <ele>56.6</ele>
        <time>2012-01-22T08:05:42Z</time>
      </trkpt>
      <trkpt lat="43.58819" lon="3.76386">
        <ele>56.3</ele>
        <time>2012-01-22T08:05:46Z</time>
      </trkpt>
      <trkpt lat="43.58824" lon="3.76392">
        <ele>58.6</ele>
        <time>2012-01-22T08:05:48Z</time>
      </trkpt>
      <trkpt lat="43.58843" lon="3.76416">
        <ele>63.1</ele>
        <time>2012-01-22T08:05:54Z</time>
      </trkpt>
      <trkpt lat="43.58862" lon="3.76437">
        <ele>65</ele>
        <time>2012-01-22T08:05:58Z</time>
      </trkpt>
      <trkpt lat="43.5887" lon="3.76442">
        <ele>67.2</ele>
        <time>2012-01-22T08:06:01Z</time>
      </trkpt>
      <trkpt lat="43.5888" lon="3.76457">
        <ele>68.1</ele>
        <time>2012-01-22T08:06:06Z</time>
      </trkpt>
      <trkpt lat="43.58891" lon="3.76476">
        <ele>69.8</ele>
        <time>2012-01-22T08:06:10Z</time>
      </trkpt>
      <trkpt lat="43.58901" lon="3.765">
        <ele>71.7</ele>
        <time>2012-01-22T08:06:14Z</time>
      </trkpt>
      <trkpt lat="43.58914" lon="3.7652">
        <ele>71.5</ele>
        <time>2012-01-22T08:06:18Z</time>
      </trkpt>
      <trkpt lat="43.58924" lon="3.76536">
        <ele>72.5</ele>
        <time>2012-01-22T08:06:22Z</time>
      </trkpt>
      <trkpt lat="43.58933" lon="3.76556">
        <ele>72.7</ele>
        <time>2012-01-22T08:06:26Z</time>
      </trkpt>
      <trkpt lat="43.58947" lon="3.76577">
        <ele>74.2</ele>
        <time>2012-01-22T08:06:30Z</time>
      </trkpt>
      <trkpt lat="43.58958" lon="3.76599">
        <ele>73.9</ele>
        <time>2012-01-22T08:06:34Z</time>
      </trkpt>
      <trkpt lat="43.58964" lon="3.76607">
        <ele>71.6</ele>
        <time>2012-01-22T08:06:36Z</time>
      </trkpt>
      <trkpt lat="43.58974" lon="3.76625">
        <ele>71.2</ele>
        <time>2012-01-22T08:06:41Z</time>
      </trkpt>
      <trkpt lat="43.58987" lon="3.76637">
        <ele>71.6</ele>
        <time>2012-01-22T08:06:45Z</time>
      </trkpt>
      <trkpt lat="43.59002" lon="3.76648">
        <ele>72</ele>
        <time>2012-01-22T08:06:49Z</time>
      </trkpt>
      <trkpt lat="43.59021" lon="3.76663">
        <ele>71.4</ele>
        <time>2012-01-22T08:06:53Z</time>
      </trkpt>
      <trkpt lat="43.5904" lon="3.76684">
        <ele>72.4</ele>
        <time>2012-01-22T08:06:58Z</time>
      </trkpt>
      <trkpt lat="43.59049" lon="3.7669">
        <ele>72.6</ele>
        <time>2012-01-22T08:07:00Z</time>
      </trkpt>
      <trkpt lat="43.59066" lon="3.76717">
        <ele>69.7</ele>
        <time>2012-01-22T08:07:06Z</time>
      </trkpt>
      <trkpt lat="43.59074" lon="3.76719">
        <ele>70.2</ele>
        <time>2012-01-22T08:07:08Z</time>
      </trkpt>
      <trkpt lat="43.5909" lon="3.76729">
        <ele>63.7</ele>
        <time>2012-01-22T08:07:14Z</time>
      </trkpt>
      <trkpt lat="43.59098" lon="3.76732">
        <ele>63.9</ele>
        <time>2012-01-22T08:07:17Z</time>
      </trkpt>
      <trkpt lat="43.5911" lon="3.76738">
        <ele>62.7</ele>
        <time>2012-01-22T08:07:21Z</time>
      </trkpt>
      <trkpt lat="43.59117" lon="3.7674">
        <ele>62.1</ele>
        <time>2012-01-22T08:07:23Z</time>
      </trkpt>
      <trkpt lat="43.59131" lon="3.76747">
        <ele>61</ele>
        <time>2012-01-22T08:07:28Z</time>
      </trkpt>
      <trkpt lat="43.59144" lon="3.76762">
        <ele>62.3</ele>
        <time>2012-01-22T08:07:34Z</time>
      </trkpt>
      <trkpt lat="43.59149" lon="3.76771">
        <ele>64</ele>
        <time>2012-01-22T08:07:37Z</time>
      </trkpt>
      <trkpt lat="43.5916" lon="3.76789">
        <ele>67.1</ele>
        <time>2012-01-22T08:07:43Z</time>
      </trkpt>
      <trkpt lat="43.5917" lon="3.76807">
        <ele>69</ele>
        <time>2012-01-22T08:07:49Z</time>
      </trkpt>
      <trkpt lat="43.59174" lon="3.76816">
        <ele>72.7</ele>
        <time>2012-01-22T08:07:52Z</time>
      </trkpt>
      <trkpt lat="43.59181" lon="3.76833">
        <ele>74.4</ele>
        <time>2012-01-22T08:08:02Z</time>
      </trkpt>
      <trkpt lat="43.59186" lon="3.76839">
        <ele>77.5</ele>
        <time>2012-01-22T08:08:08Z</time>
      </trkpt>
      <trkpt lat="43.5919" lon="3.76847">
        <ele>82.7</ele>
        <time>2012-01-22T08:08:13Z</time>
      </trkpt>
      <trkpt lat="43.59196" lon="3.76854">
        <ele>86</ele>
        <time>2012-01-22T08:08:17Z</time>
      </trkpt>
      <trkpt lat="43.59216" lon="3.76869">
        <ele>83.4</ele>
        <time>2012-01-22T08:08:28Z</time>
      </trkpt>
      <trkpt lat="43.59228" lon="3.76876">
        <ele>82</ele>
        <time>2012-01-22T08:08:34Z</time>
      </trkpt>
      <trkpt lat="43.59234" lon="3.76882">
        <ele>81.1</ele>
        <time>2012-01-22T08:08:37Z</time>
      </trkpt>
      <trkpt lat="43.59241" lon="3.76886">
        <ele>81.6</ele>
        <time>2012-01-22T08:08:40Z</time>
      </trkpt>
      <trkpt lat="43.59247" lon="3.7689">
        <ele>81.6</ele>
        <time>2012-01-22T08:08:43Z</time>
      </trkpt>
      <trkpt lat="43.59265" lon="3.76899">
        <ele>80.6</ele>
        <time>2012-01-22T08:08:49Z</time>
      </trkpt>
      <trkpt lat="43.59279" lon="3.76904">
        <ele>85</ele>
        <time>2012-01-22T08:08:53Z</time>
      </trkpt>
      <trkpt lat="43.59292" lon="3.7691">
        <ele>83.3</ele>
        <time>2012-01-22T08:08:57Z</time>
      </trkpt>
      <trkpt lat="43.59314" lon="3.76924">
        <ele>84.1</ele>
        <time>2012-01-22T08:09:05Z</time>
      </trkpt>
      <trkpt lat="43.59324" lon="3.76935">
        <ele>88.3</ele>
        <time>2012-01-22T08:09:09Z</time>
      </trkpt>
      <trkpt lat="43.59334" lon="3.76946">
        <ele>87.9</ele>
        <time>2012-01-22T08:09:13Z</time>
      </trkpt>
      <trkpt lat="43.59345" lon="3.76957">
        <ele>88.8</ele>
        <time>2012-01-22T08:09:17Z</time>
      </trkpt>
      <trkpt lat="43.59357" lon="3.76969">
        <ele>88.4</ele>
        <time>2012-01-22T08:09:21Z</time>
      </trkpt>
      <trkpt lat="43.5937" lon="3.76978">
        <ele>89.7</ele>
        <time>2012-01-22T08:09:25Z</time>
      </trkpt>
      <trkpt lat="43.59384" lon="3.76984">
        <ele>85.3</ele>
        <time>2012-01-22T08:09:29Z</time>
      </trkpt>
      <trkpt lat="43.59397" lon="3.7699">
        <ele>83.9</ele>
        <time>2012-01-22T08:09:33Z</time>
      </trkpt>
      <trkpt lat="43.5941" lon="3.76996">
        <ele>84.5</ele>
        <time>2012-01-22T08:09:37Z</time>
      </trkpt>
      <trkpt lat="43.59423" lon="3.77002">
        <ele>83.8</ele>
        <time>2012-01-22T08:09:41Z</time>
      </trkpt>
      <trkpt lat="43.59436" lon="3.77009">
        <ele>82.7</ele>
        <time>2012-01-22T08:09:45Z</time>
      </trkpt>
      <trkpt lat="43.5945" lon="3.77021">
        <ele>80.5</ele>
        <time>2012-01-22T08:09:49Z</time>
      </trkpt>
      <trkpt lat="43.59459" lon="3.77029">
        <ele>81.4</ele>
        <time>2012-01-22T08:09:51Z</time>
      </trkpt>
      <trkpt lat="43.59476" lon="3.77042">
        <ele>81</ele>
        <time>2012-01-22T08:09:55Z</time>
      </trkpt>
      <trkpt lat="43.59504" lon="3.77055">
        <ele>83.2</ele>
        <time>2012-01-22T08:10:01Z</time>
      </trkpt>
      <trkpt lat="43.59522" lon="3.77064">
        <ele>83</ele>
        <time>2012-01-22T08:10:05Z</time>
      </trkpt>
      <trkpt lat="43.5954" lon="3.77074">
        <ele>79.9</ele>
        <time>2012-01-22T08:10:09Z</time>
      </trkpt>
      <trkpt lat="43.59556" lon="3.77085">
        <ele>80.2</ele>
        <time>2012-01-22T08:10:13Z</time>
      </trkpt>
      <trkpt lat="43.59574" lon="3.77093">
        <ele>81.2</ele>
        <time>2012-01-22T08:10:17Z</time>
      </trkpt>
      <trkpt lat="43.59593" lon="3.771">
        <ele>83.6</ele>
        <time>2012-01-22T08:10:21Z</time>
      </trkpt>
      <trkpt lat="43.59613" lon="3.77109">
        <ele>84.8</ele>
        <time>2012-01-22T08:10:25Z</time>
      </trkpt>
      <trkpt lat="43.59625" lon="3.77114">
        <ele>84.4</ele>
        <time>2012-01-22T08:10:27Z</time>
      </trkpt>
      <trkpt lat="43.59656" lon="3.77131">
        <ele>82.2</ele>
        <time>2012-01-22T08:10:33Z</time>
      </trkpt>
      <trkpt lat="43.59675" lon="3.77141">
        <ele>84.1</ele>
        <time>2012-01-22T08:10:37Z</time>
      </trkpt>
      <trkpt lat="43.59701" lon="3.77156">
        <ele>84.6</ele>
        <time>2012-01-22T08:10:42Z</time>
      </trkpt>
      <trkpt lat="43.59718" lon="3.7717">
        <ele>86.2</ele>
        <time>2012-01-22T08:10:46Z</time>
      </trkpt>
      <trkpt lat="43.59739" lon="3.7716">
        <ele>84.7</ele>
        <time>2012-01-22T08:10:53Z</time>
      </trkpt>
      <trkpt lat="43.59752" lon="3.77142">
        <ele>84.2</ele>
        <time>2012-01-22T08:10:57Z</time>
      </trkpt>
      <trkpt lat="43.59767" lon="3.77128">
        <ele>84</ele>
        <time>2012-01-22T08:11:01Z</time>
      </trkpt>
      <trkpt lat="43.59781" lon="3.77114">
        <ele>84.9</ele>
        <time>2012-01-22T08:11:05Z</time>
      </trkpt>
      <trkpt lat="43.59797" lon="3.77099">
        <ele>86.9</ele>
        <time>2012-01-22T08:11:09Z</time>
      </trkpt>
      <trkpt lat="43.5981" lon="3.77083">
        <ele>89.5</ele>
        <time>2012-01-22T08:11:13Z</time>
      </trkpt>
      <trkpt lat="43.59824" lon="3.77065">
        <ele>91.8</ele>
        <time>2012-01-22T08:11:17Z</time>
      </trkpt>
      <trkpt lat="43.59838" lon="3.77046">
        <ele>92.5</ele>
        <time>2012-01-22T08:11:21Z</time>
      </trkpt>
      <trkpt lat="43.5985" lon="3.77029">
        <ele>94.4</ele>
        <time>2012-01-22T08:11:25Z</time>
      </trkpt>
      <trkpt lat="43.59862" lon="3.77011">
        <ele>95.6</ele>
        <time>2012-01-22T08:11:29Z</time>
      </trkpt>
      <trkpt lat="43.59866" lon="3.77005">
        <ele>97</ele>
        <time>2012-01-22T08:11:31Z</time>
      </trkpt>
      <trkpt lat="43.59882" lon="3.76981">
        <ele>98</ele>
        <time>2012-01-22T08:11:37Z</time>
      </trkpt>
      <trkpt lat="43.59892" lon="3.76966">
        <ele>96.4</ele>
        <time>2012-01-22T08:11:41Z</time>
      </trkpt>
      <trkpt lat="43.59896" lon="3.76958">
        <ele>96.6</ele>
        <time>2012-01-22T08:11:43Z</time>
      </trkpt>
      <trkpt lat="43.59902" lon="3.7694">
        <ele>97.2</ele>
        <time>2012-01-22T08:11:47Z</time>
      </trkpt>
      <trkpt lat="43.59911" lon="3.76912">
        <ele>97.6</ele>
        <time>2012-01-22T08:11:53Z</time>
      </trkpt>
      <trkpt lat="43.59917" lon="3.76891">
        <ele>97.2</ele>
        <time>2012-01-22T08:11:57Z</time>
      </trkpt>
      <trkpt lat="43.59923" lon="3.76862">
        <ele>99.5</ele>
        <time>2012-01-22T08:12:03Z</time>
      </trkpt>
      <trkpt lat="43.59927" lon="3.76831">
        <ele>102.2</ele>
        <time>2012-01-22T08:12:10Z</time>
      </trkpt>
      <trkpt lat="43.59932" lon="3.76795">
        <ele>103.4</ele>
        <time>2012-01-22T08:12:18Z</time>
      </trkpt>
      <trkpt lat="43.59939" lon="3.76769">
        <ele>113.7</ele>
        <time>2012-01-22T08:12:26Z</time>
      </trkpt>
      <trkpt lat="43.59942" lon="3.76757">
        <ele>115</ele>
        <time>2012-01-22T08:12:29Z</time>
      </trkpt>
      <trkpt lat="43.59947" lon="3.76736">
        <ele>115.2</ele>
        <time>2012-01-22T08:12:34Z</time>
      </trkpt>
      <trkpt lat="43.5995" lon="3.76718">
        <ele>115.1</ele>
        <time>2012-01-22T08:12:38Z</time>
      </trkpt>
      <trkpt lat="43.59954" lon="3.76699">
        <ele>115</ele>
        <time>2012-01-22T08:12:42Z</time>
      </trkpt>
      <trkpt lat="43.59958" lon="3.7668">
        <ele>115.7</ele>
        <time>2012-01-22T08:12:46Z</time>
      </trkpt>
      <trkpt lat="43.59965" lon="3.76655">
        <ele>116.2</ele>
        <time>2012-01-22T08:12:52Z</time>
      </trkpt>
      <trkpt lat="43.59966" lon="3.76633">
        <ele>116.9</ele>
        <time>2012-01-22T08:12:57Z</time>
      </trkpt>
      <trkpt lat="43.59966" lon="3.76614">
        <ele>117.5</ele>
        <time>2012-01-22T08:13:01Z</time>
      </trkpt>
      <trkpt lat="43.5997" lon="3.76592">
        <ele>118.5</ele>
        <time>2012-01-22T08:13:05Z</time>
      </trkpt>
      <trkpt lat="43.59977" lon="3.76573">
        <ele>119.3</ele>
        <time>2012-01-22T08:13:09Z</time>
      </trkpt>
      <trkpt lat="43.59982" lon="3.76561">
        <ele>119.3</ele>
        <time>2012-01-22T08:13:12Z</time>
      </trkpt>
      <trkpt lat="43.59988" lon="3.76542">
        <ele>117</ele>
        <time>2012-01-22T08:13:17Z</time>
      </trkpt>
      <trkpt lat="43.59999" lon="3.76526">
        <ele>116.1</ele>
        <time>2012-01-22T08:13:21Z</time>
      </trkpt>
      <trkpt lat="43.6001" lon="3.76516">
        <ele>116.8</ele>
        <time>2012-01-22T08:13:25Z</time>
      </trkpt>
      <trkpt lat="43.60018" lon="3.76509">
        <ele>116.9</ele>
        <time>2012-01-22T08:13:28Z</time>
      </trkpt>
      <trkpt lat="43.60031" lon="3.76499">
        <ele>116.9</ele>
        <time>2012-01-22T08:13:33Z</time>
      </trkpt>
      <trkpt lat="43.60043" lon="3.76478">
        <ele>116</ele>
        <time>2012-01-22T08:13:37Z</time>
      </trkpt>
      <trkpt lat="43.60062" lon="3.76463">
        <ele>115.8</ele>
        <time>2012-01-22T08:13:41Z</time>
      </trkpt>
      <trkpt lat="43.60069" lon="3.76458">
        <ele>115.9</ele>
        <time>2012-01-22T08:13:44Z</time>
      </trkpt>
      <trkpt lat="43.60093" lon="3.76427">
        <ele>118.3</ele>
        <time>2012-01-22T08:13:53Z</time>
      </trkpt>
      <trkpt lat="43.60098" lon="3.76421">
        <ele>120.5</ele>
        <time>2012-01-22T08:13:57Z</time>
      </trkpt>
      <trkpt lat="43.60103" lon="3.76413">
        <ele>120.4</ele>
        <time>2012-01-22T08:13:59Z</time>
      </trkpt>
      <trkpt lat="43.60112" lon="3.76396">
        <ele>119.6</ele>
        <time>2012-01-22T08:14:06Z</time>
      </trkpt>
      <trkpt lat="43.60125" lon="3.76369">
        <ele>118.9</ele>
        <time>2012-01-22T08:14:13Z</time>
      </trkpt>
      <trkpt lat="43.60128" lon="3.76359">
        <ele>119.9</ele>
        <time>2012-01-22T08:14:15Z</time>
      </trkpt>
      <trkpt lat="43.60132" lon="3.7635">
        <ele>123.6</ele>
        <time>2012-01-22T08:14:19Z</time>
      </trkpt>
      <trkpt lat="43.60139" lon="3.76331">
        <ele>123.1</ele>
        <time>2012-01-22T08:14:25Z</time>
      </trkpt>
      <trkpt lat="43.60142" lon="3.76319">
        <ele>122</ele>
        <time>2012-01-22T08:14:29Z</time>
      </trkpt>
      <trkpt lat="43.60148" lon="3.76295">
        <ele>122</ele>
        <time>2012-01-22T08:14:34Z</time>
      </trkpt>
      <trkpt lat="43.60151" lon="3.76276">
        <ele>122.3</ele>
        <time>2012-01-22T08:14:38Z</time>
      </trkpt>
      <trkpt lat="43.60151" lon="3.76264">
        <ele>121.9</ele>
        <time>2012-01-22T08:14:41Z</time>
      </trkpt>
      <trkpt lat="43.60148" lon="3.76245">
        <ele>124.1</ele>
        <time>2012-01-22T08:14:44Z</time>
      </trkpt>
      <trkpt lat="43.6014" lon="3.7621">
        <ele>131.9</ele>
        <time>2012-01-22T08:14:52Z</time>
      </trkpt>
      <trkpt lat="43.60136" lon="3.76198">
        <ele>132.5</ele>
        <time>2012-01-22T08:14:56Z</time>
      </trkpt>
      <trkpt lat="43.6013" lon="3.76178">
        <ele>133.9</ele>
        <time>2012-01-22T08:15:02Z</time>
      </trkpt>
      <trkpt lat="43.60126" lon="3.7617">
        <ele>134.6</ele>
        <time>2012-01-22T08:15:05Z</time>
      </trkpt>
      <trkpt lat="43.6012" lon="3.76162">
        <ele>135</ele>
        <time>2012-01-22T08:15:08Z</time>
      </trkpt>
      <trkpt lat="43.60102" lon="3.76139">
        <ele>135.9</ele>
        <time>2012-01-22T08:15:17Z</time>
      </trkpt>
      <trkpt lat="43.60091" lon="3.76123">
        <ele>135</ele>
        <time>2012-01-22T08:15:21Z</time>
      </trkpt>
      <trkpt lat="43.60081" lon="3.76108">
        <ele>134.2</ele>
        <time>2012-01-22T08:15:24Z</time>
      </trkpt>
      <trkpt lat="43.60072" lon="3.76091">
        <ele>136.5</ele>
        <time>2012-01-22T08:15:29Z</time>
      </trkpt>
      <trkpt lat="43.60068" lon="3.76072">
        <ele>137.2</ele>
        <time>2012-01-22T08:15:32Z</time>
      </trkpt>
      <trkpt lat="43.60067" lon="3.7605">
        <ele>137.7</ele>
        <time>2012-01-22T08:15:37Z</time>
      </trkpt>
      <trkpt lat="43.60069" lon="3.76028">
        <ele>138.6</ele>
        <time>2012-01-22T08:15:41Z</time>
      </trkpt>
      <trkpt lat="43.60077" lon="3.76014">
        <ele>137.2</ele>
        <time>2012-01-22T08:15:45Z</time>
      </trkpt>
      <trkpt lat="43.60087" lon="3.75998">
        <ele>137.8</ele>
        <time>2012-01-22T08:15:49Z</time>
      </trkpt>
      <trkpt lat="43.6009" lon="3.75989">
        <ele>137.2</ele>
        <time>2012-01-22T08:15:51Z</time>
      </trkpt>
      <trkpt lat="43.60094" lon="3.7596">
        <ele>134.4</ele>
        <time>2012-01-22T08:15:57Z</time>
      </trkpt>
      <trkpt lat="43.60098" lon="3.7594">
        <ele>131.6</ele>
        <time>2012-01-22T08:16:01Z</time>
      </trkpt>
      <trkpt lat="43.60105" lon="3.75923">
        <ele>133.1</ele>
        <time>2012-01-22T08:16:05Z</time>
      </trkpt>
      <trkpt lat="43.60114" lon="3.75909">
        <ele>134.1</ele>
        <time>2012-01-22T08:16:09Z</time>
      </trkpt>
      <trkpt lat="43.60126" lon="3.75895">
        <ele>134.6</ele>
        <time>2012-01-22T08:16:12Z</time>
      </trkpt>
      <trkpt lat="43.6014" lon="3.75885">
        <ele>135</ele>
        <time>2012-01-22T08:16:17Z</time>
      </trkpt>
      <trkpt lat="43.60153" lon="3.75877">
        <ele>135.9</ele>
        <time>2012-01-22T08:16:21Z</time>
      </trkpt>
      <trkpt lat="43.6016" lon="3.75875">
        <ele>135.5</ele>
        <time>2012-01-22T08:16:23Z</time>
      </trkpt>
      <trkpt lat="43.60174" lon="3.75869">
        <ele>134.4</ele>
        <time>2012-01-22T08:16:27Z</time>
      </trkpt>
      <trkpt lat="43.6019" lon="3.75859">
        <ele>128.7</ele>
        <time>2012-01-22T08:16:34Z</time>
      </trkpt>
      <trkpt lat="43.60196" lon="3.75855">
        <ele>125.4</ele>
        <time>2012-01-22T08:16:37Z</time>
      </trkpt>
      <trkpt lat="43.60219" lon="3.75839">
        <ele>122.9</ele>
        <time>2012-01-22T08:16:45Z</time>
      </trkpt>
      <trkpt lat="43.60225" lon="3.75833">
        <ele>122.1</ele>
        <time>2012-01-22T08:16:48Z</time>
      </trkpt>
      <trkpt lat="43.60239" lon="3.75807">
        <ele>119.3</ele>
        <time>2012-01-22T08:16:53Z</time>
      </trkpt>
      <trkpt lat="43.60243" lon="3.75795">
        <ele>118.7</ele>
        <time>2012-01-22T08:16:56Z</time>
      </trkpt>
      <trkpt lat="43.60251" lon="3.75758">
        <ele>120.9</ele>
        <time>2012-01-22T08:17:02Z</time>
      </trkpt>
      <trkpt lat="43.60259" lon="3.75735">
        <ele>122</ele>
        <time>2012-01-22T08:17:05Z</time>
      </trkpt>
      <trkpt lat="43.60267" lon="3.75714">
        <ele>123.1</ele>
        <time>2012-01-22T08:17:08Z</time>
      </trkpt>
      <trkpt lat="43.60274" lon="3.75696">
        <ele>124.8</ele>
        <time>2012-01-22T08:17:13Z</time>
      </trkpt>
      <trkpt lat="43.60284" lon="3.75666">
        <ele>126.1</ele>
        <time>2012-01-22T08:17:18Z</time>
      </trkpt>
      <trkpt lat="43.60295" lon="3.75643">
        <ele>126</ele>
        <time>2012-01-22T08:17:22Z</time>
      </trkpt>
      <trkpt lat="43.60305" lon="3.75626">
        <ele>128.3</ele>
        <time>2012-01-22T08:17:26Z</time>
      </trkpt>
      <trkpt lat="43.60311" lon="3.75605">
        <ele>128.3</ele>
        <time>2012-01-22T08:17:29Z</time>
      </trkpt>
      <trkpt lat="43.60311" lon="3.75591">
        <ele>130.7</ele>
        <time>2012-01-22T08:17:33Z</time>
      </trkpt>
      <trkpt lat="43.6031" lon="3.75565">
        <ele>136</ele>
        <time>2012-01-22T08:17:38Z</time>
      </trkpt>
      <trkpt lat="43.60308" lon="3.75545">
        <ele>135.8</ele>
        <time>2012-01-22T08:17:42Z</time>
      </trkpt>
      <trkpt lat="43.60307" lon="3.75536">
        <ele>136.8</ele>
        <time>2012-01-22T08:17:44Z</time>
      </trkpt>
      <trkpt lat="43.60304" lon="3.75517">
        <ele>137.2</ele>
        <time>2012-01-22T08:17:48Z</time>
      </trkpt>
      <trkpt lat="43.60314" lon="3.75487">
        <ele>138.8</ele>
        <time>2012-01-22T08:17:54Z</time>
      </trkpt>
      <trkpt lat="43.60318" lon="3.75469">
        <ele>140.2</ele>
        <time>2012-01-22T08:17:58Z</time>
      </trkpt>
      <trkpt lat="43.60315" lon="3.75452">
        <ele>142.8</ele>
        <time>2012-01-22T08:18:02Z</time>
      </trkpt>
      <trkpt lat="43.60307" lon="3.75434">
        <ele>143.5</ele>
        <time>2012-01-22T08:18:06Z</time>
      </trkpt>
      <trkpt lat="43.60289" lon="3.75422">
        <ele>141.3</ele>
        <time>2012-01-22T08:18:10Z</time>
      </trkpt>
      <trkpt lat="43.60276" lon="3.75406">
        <ele>141.1</ele>
        <time>2012-01-22T08:18:14Z</time>
      </trkpt>
      <trkpt lat="43.60276" lon="3.75382">
        <ele>144.8</ele>
        <time>2012-01-22T08:18:18Z</time>
      </trkpt>
      <trkpt lat="43.60275" lon="3.75373">
        <ele>145.1</ele>
        <time>2012-01-22T08:18:20Z</time>
      </trkpt>
      <trkpt lat="43.60277" lon="3.75342">
        <ele>142.5</ele>
        <time>2012-01-22T08:18:25Z</time>
      </trkpt>
      <trkpt lat="43.60277" lon="3.75324">
        <ele>142.1</ele>
        <time>2012-01-22T08:18:29Z</time>
      </trkpt>
      <trkpt lat="43.60271" lon="3.75303">
        <ele>143.9</ele>
        <time>2012-01-22T08:18:33Z</time>
      </trkpt>
      <trkpt lat="43.60275" lon="3.75284">
        <ele>144.5</ele>
        <time>2012-01-22T08:18:37Z</time>
      </trkpt>
      <trkpt lat="43.60291" lon="3.7527">
        <ele>142.9</ele>
        <time>2012-01-22T08:18:41Z</time>
      </trkpt>
      <trkpt lat="43.60301" lon="3.75254">
        <ele>142.2</ele>
        <time>2012-01-22T08:18:45Z</time>
      </trkpt>
      <trkpt lat="43.60307" lon="3.75246">
        <ele>142.1</ele>
        <time>2012-01-22T08:18:47Z</time>
      </trkpt>
      <trkpt lat="43.60326" lon="3.75221">
        <ele>139.7</ele>
        <time>2012-01-22T08:18:52Z</time>
      </trkpt>
      <trkpt lat="43.60337" lon="3.75199">
        <ele>136.7</ele>
        <time>2012-01-22T08:18:56Z</time>
      </trkpt>
      <trkpt lat="43.60348" lon="3.75182">
        <ele>135.9</ele>
        <time>2012-01-22T08:19:00Z</time>
      </trkpt>
      <trkpt lat="43.60361" lon="3.75164">
        <ele>138.4</ele>
        <time>2012-01-22T08:19:04Z</time>
      </trkpt>
      <trkpt lat="43.60373" lon="3.75145">
        <ele>141.1</ele>
        <time>2012-01-22T08:19:08Z</time>
      </trkpt>
      <trkpt lat="43.60392" lon="3.75121">
        <ele>139.8</ele>
        <time>2012-01-22T08:19:13Z</time>
      </trkpt>
      <trkpt lat="43.60406" lon="3.75104">
        <ele>139.9</ele>
        <time>2012-01-22T08:19:17Z</time>
      </trkpt>
      <trkpt lat="43.60421" lon="3.75084">
        <ele>141</ele>
        <time>2012-01-22T08:19:21Z</time>
      </trkpt>
      <trkpt lat="43.60433" lon="3.75062">
        <ele>139.9</ele>
        <time>2012-01-22T08:19:25Z</time>
      </trkpt>
      <trkpt lat="43.60443" lon="3.75043">
        <ele>139.3</ele>
        <time>2012-01-22T08:19:29Z</time>
      </trkpt>
      <trkpt lat="43.60455" lon="3.75025">
        <ele>139</ele>
        <time>2012-01-22T08:19:35Z</time>
      </trkpt>
      <trkpt lat="43.60471" lon="3.75015">
        <ele>136.7</ele>
        <time>2012-01-22T08:19:41Z</time>
      </trkpt>
      <trkpt lat="43.60477" lon="3.7501">
        <ele>137.8</ele>
        <time>2012-01-22T08:19:43Z</time>
      </trkpt>
      <trkpt lat="43.6049" lon="3.75">
        <ele>139.3</ele>
        <time>2012-01-22T08:19:48Z</time>
      </trkpt>
      <trkpt lat="43.60503" lon="3.74992">
        <ele>141.4</ele>
        <time>2012-01-22T08:19:52Z</time>
      </trkpt>
      <trkpt lat="43.60515" lon="3.74982">
        <ele>141.4</ele>
        <time>2012-01-22T08:19:56Z</time>
      </trkpt>
      <trkpt lat="43.60521" lon="3.74978">
        <ele>141.2</ele>
        <time>2012-01-22T08:19:58Z</time>
      </trkpt>
      <trkpt lat="43.60531" lon="3.74968">
        <ele>142.3</ele>
        <time>2012-01-22T08:20:02Z</time>
      </trkpt>
      <trkpt lat="43.60543" lon="3.74947">
        <ele>144.3</ele>
        <time>2012-01-22T08:20:08Z</time>
      </trkpt>
      <trkpt lat="43.60546" lon="3.74937">
        <ele>144</ele>
        <time>2012-01-22T08:20:10Z</time>
      </trkpt>
      <trkpt lat="43.60554" lon="3.74909">
        <ele>145.4</ele>
        <time>2012-01-22T08:20:16Z</time>
      </trkpt>
      <trkpt lat="43.60557" lon="3.74899">
        <ele>144.5</ele>
        <time>2012-01-22T08:20:18Z</time>
      </trkpt>
      <trkpt lat="43.60566" lon="3.74871">
        <ele>145.2</ele>
        <time>2012-01-22T08:20:25Z</time>
      </trkpt>
      <trkpt lat="43.60572" lon="3.74853">
        <ele>146</ele>
        <time>2012-01-22T08:20:29Z</time>
      </trkpt>
      <trkpt lat="43.60576" lon="3.74842">
        <ele>145.7</ele>
        <time>2012-01-22T08:20:32Z</time>
      </trkpt>
      <trkpt lat="43.60577" lon="3.74831">
        <ele>145.5</ele>
        <time>2012-01-22T08:20:35Z</time>
      </trkpt>
      <trkpt lat="43.60579" lon="3.74821">
        <ele>147.9</ele>
        <time>2012-01-22T08:20:38Z</time>
      </trkpt>
      <trkpt lat="43.60586" lon="3.74803">
        <ele>149.6</ele>
        <time>2012-01-22T08:20:44Z</time>
      </trkpt>
      <trkpt lat="43.60588" lon="3.74792">
        <ele>151.4</ele>
        <time>2012-01-22T08:20:47Z</time>
      </trkpt>
      <trkpt lat="43.60589" lon="3.74783">
        <ele>152.3</ele>
        <time>2012-01-22T08:20:50Z</time>
      </trkpt>
      <trkpt lat="43.60592" lon="3.74762">
        <ele>152.7</ele>
        <time>2012-01-22T08:20:56Z</time>
      </trkpt>
      <trkpt lat="43.60595" lon="3.74742">
        <ele>151.8</ele>
        <time>2012-01-22T08:21:01Z</time>
      </trkpt>
      <trkpt lat="43.60591" lon="3.74722">
        <ele>155</ele>
        <time>2012-01-22T08:21:07Z</time>
      </trkpt>
      <trkpt lat="43.60589" lon="3.747">
        <ele>155.8</ele>
        <time>2012-01-22T08:21:13Z</time>
      </trkpt>
      <trkpt lat="43.60591" lon="3.7468">
        <ele>157.6</ele>
        <time>2012-01-22T08:21:19Z</time>
      </trkpt>
      <trkpt lat="43.60592" lon="3.74671">
        <ele>158.8</ele>
        <time>2012-01-22T08:21:22Z</time>
      </trkpt>
      <trkpt lat="43.60599" lon="3.7465">
        <ele>160</ele>
        <time>2012-01-22T08:21:28Z</time>
      </trkpt>
      <trkpt lat="43.60604" lon="3.74634">
        <ele>160.6</ele>
        <time>2012-01-22T08:21:32Z</time>
      </trkpt>
      <trkpt lat="43.60609" lon="3.74617">
        <ele>159.8</ele>
        <time>2012-01-22T08:21:36Z</time>
      </trkpt>
      <trkpt lat="43.60615" lon="3.74598">
        <ele>159</ele>
        <time>2012-01-22T08:21:41Z</time>
      </trkpt>
      <trkpt lat="43.6062" lon="3.74581">
        <ele>159.6</ele>
        <time>2012-01-22T08:21:45Z</time>
      </trkpt>
      <trkpt lat="43.60632" lon="3.74578">
        <ele>159.8</ele>
        <time>2012-01-22T08:21:49Z</time>
      </trkpt>
      <trkpt lat="43.60648" lon="3.74592">
        <ele>157.9</ele>
        <time>2012-01-22T08:21:52Z</time>
      </trkpt>
      <trkpt lat="43.60669" lon="3.74603">
        <ele>159.3</ele>
        <time>2012-01-22T08:21:56Z</time>
      </trkpt>
      <trkpt lat="43.60691" lon="3.74615">
        <ele>159.1</ele>
        <time>2012-01-22T08:22:00Z</time>
      </trkpt>
      <trkpt lat="43.60713" lon="3.74624">
        <ele>157.4</ele>
        <time>2012-01-22T08:22:04Z</time>
      </trkpt>
      <trkpt lat="43.60729" lon="3.74636">
        <ele>156.8</ele>
        <time>2012-01-22T08:22:08Z</time>
      </trkpt>
      <trkpt lat="43.60742" lon="3.74646">
        <ele>156.4</ele>
        <time>2012-01-22T08:22:13Z</time>
      </trkpt>
      <trkpt lat="43.60749" lon="3.74651">
        <ele>157.6</ele>
        <time>2012-01-22T08:22:16Z</time>
      </trkpt>
      <trkpt lat="43.60755" lon="3.74659">
        <ele>157.5</ele>
        <time>2012-01-22T08:22:19Z</time>
      </trkpt>
      <trkpt lat="43.60764" lon="3.74675">
        <ele>157.4</ele>
        <time>2012-01-22T08:22:25Z</time>
      </trkpt>
      <trkpt lat="43.60766" lon="3.74684">
        <ele>158</ele>
        <time>2012-01-22T08:22:28Z</time>
      </trkpt>
      <trkpt lat="43.60767" lon="3.74693">
        <ele>158.7</ele>
        <time>2012-01-22T08:22:34Z</time>
      </trkpt>
      <trkpt lat="43.60773" lon="3.7469">
        <ele>158.3</ele>
        <time>2012-01-22T08:22:39Z</time>
      </trkpt>
      <trkpt lat="43.60778" lon="3.74684">
        <ele>158.2</ele>
        <time>2012-01-22T08:22:43Z</time>
      </trkpt>
      <trkpt lat="43.60778" lon="3.74684">
        <ele>111.9</ele>
        <time>2012-01-22T08:22:55Z</time>
      </trkpt>
      <trkpt lat="43.60778" lon="3.74684">
        <ele>111.9</ele>
        <time>2012-01-22T08:22:55Z</time>
      </trkpt>
      <trkpt lat="43.60788" lon="3.74693">
        <ele>158.3</ele>
        <time>2012-01-22T08:23:02Z</time>
      </trkpt>
      <trkpt lat="43.60788" lon="3.74693">
        <ele>113.7</ele>
        <time>2012-01-22T08:23:15Z</time>
      </trkpt>
      <trkpt lat="43.60788" lon="3.74693">
        <ele>113.7</ele>
        <time>2012-01-22T08:23:20Z</time>
      </trkpt>
      <trkpt lat="43.60803" lon="3.74689">
        <ele>164</ele>
        <time>2012-01-22T08:23:23Z</time>
      </trkpt>
      <trkpt lat="43.60811" lon="3.74687">
        <ele>166.4</ele>
        <time>2012-01-22T08:23:26Z</time>
      </trkpt>
      <trkpt lat="43.60818" lon="3.74686">
        <ele>167.2</ele>
        <time>2012-01-22T08:23:29Z</time>
      </trkpt>
      <trkpt lat="43.60831" lon="3.74686">
        <ele>167.2</ele>
        <time>2012-01-22T08:23:35Z</time>
      </trkpt>
      <trkpt lat="43.60838" lon="3.74688">
        <ele>167.7</ele>
        <time>2012-01-22T08:23:38Z</time>
      </trkpt>
      <trkpt lat="43.60847" lon="3.74689">
        <ele>168.9</ele>
        <time>2012-01-22T08:23:41Z</time>
      </trkpt>
      <trkpt lat="43.60862" lon="3.74688">
        <ele>167.7</ele>
        <time>2012-01-22T08:23:47Z</time>
      </trkpt>
      <trkpt lat="43.6087" lon="3.74689">
        <ele>168.2</ele>
        <time>2012-01-22T08:23:51Z</time>
      </trkpt>
      <trkpt lat="43.60878" lon="3.74689">
        <ele>168.2</ele>
        <time>2012-01-22T08:23:54Z</time>
      </trkpt>
      <trkpt lat="43.60886" lon="3.74689">
        <ele>167.9</ele>
        <time>2012-01-22T08:23:57Z</time>
      </trkpt>
      <trkpt lat="43.60903" lon="3.74686">
        <ele>166.7</ele>
        <time>2012-01-22T08:24:03Z</time>
      </trkpt>
      <trkpt lat="43.60918" lon="3.74679">
        <ele>165.2</ele>
        <time>2012-01-22T08:24:07Z</time>
      </trkpt>
      <trkpt lat="43.60934" lon="3.74669">
        <ele>164.3</ele>
        <time>2012-01-22T08:24:11Z</time>
      </trkpt>
      <trkpt lat="43.6095" lon="3.74656">
        <ele>164.4</ele>
        <time>2012-01-22T08:24:15Z</time>
      </trkpt>
      <trkpt lat="43.60964" lon="3.7464">
        <ele>164</ele>
        <time>2012-01-22T08:24:18Z</time>
      </trkpt>
      <trkpt lat="43.60981" lon="3.74622">
        <ele>164.7</ele>
        <time>2012-01-22T08:24:22Z</time>
      </trkpt>
      <trkpt lat="43.60995" lon="3.74607">
        <ele>165.6</ele>
        <time>2012-01-22T08:24:26Z</time>
      </trkpt>
      <trkpt lat="43.61011" lon="3.74594">
        <ele>165.6</ele>
        <time>2012-01-22T08:24:30Z</time>
      </trkpt>
      <trkpt lat="43.61033" lon="3.74576">
        <ele>166.8</ele>
        <time>2012-01-22T08:24:35Z</time>
      </trkpt>
      <trkpt lat="43.61045" lon="3.74557">
        <ele>165.7</ele>
        <time>2012-01-22T08:24:38Z</time>
      </trkpt>
      <trkpt lat="43.61056" lon="3.74537">
        <ele>165.3</ele>
        <time>2012-01-22T08:24:43Z</time>
      </trkpt>
      <trkpt lat="43.61069" lon="3.74524">
        <ele>165.4</ele>
        <time>2012-01-22T08:24:47Z</time>
      </trkpt>
      <trkpt lat="43.61084" lon="3.74517">
        <ele>164.5</ele>
        <time>2012-01-22T08:24:51Z</time>
      </trkpt>
      <trkpt lat="43.61091" lon="3.74518">
        <ele>164.3</ele>
        <time>2012-01-22T08:24:53Z</time>
      </trkpt>
      <trkpt lat="43.61106" lon="3.74524">
        <ele>164.6</ele>
        <time>2012-01-22T08:24:58Z</time>
      </trkpt>
      <trkpt lat="43.61121" lon="3.74518">
        <ele>168</ele>
        <time>2012-01-22T08:25:03Z</time>
      </trkpt>
      <trkpt lat="43.61126" lon="3.74513">
        <ele>167.7</ele>
        <time>2012-01-22T08:25:05Z</time>
      </trkpt>
      <trkpt lat="43.61142" lon="3.74502">
        <ele>167.9</ele>
        <time>2012-01-22T08:25:11Z</time>
      </trkpt>
      <trkpt lat="43.6115" lon="3.74497">
        <ele>166.7</ele>
        <time>2012-01-22T08:25:14Z</time>
      </trkpt>
      <trkpt lat="43.61157" lon="3.74493">
        <ele>166</ele>
        <time>2012-01-22T08:25:17Z</time>
      </trkpt>
      <trkpt lat="43.61163" lon="3.74489">
        <ele>167</ele>
        <time>2012-01-22T08:25:21Z</time>
      </trkpt>
      <trkpt lat="43.61169" lon="3.74484">
        <ele>169.8</ele>
        <time>2012-01-22T08:25:27Z</time>
      </trkpt>
      <trkpt lat="43.61175" lon="3.7448">
        <ele>170.8</ele>
        <time>2012-01-22T08:25:35Z</time>
      </trkpt>
      <trkpt lat="43.61175" lon="3.7448">
        <ele>124.7</ele>
        <time>2012-01-22T08:25:47Z</time>
      </trkpt>
      <trkpt lat="43.61175" lon="3.7448">
        <ele>124.7</ele>
        <time>2012-01-22T08:26:08Z</time>
      </trkpt>
      <trkpt lat="43.61184" lon="3.74509">
        <ele>170.8</ele>
        <time>2012-01-22T08:26:13Z</time>
      </trkpt>
      <trkpt lat="43.61188" lon="3.74529">
        <ele>169.1</ele>
        <time>2012-01-22T08:26:17Z</time>
      </trkpt>
      <trkpt lat="43.61191" lon="3.74555">
        <ele>169.6</ele>
        <time>2012-01-22T08:26:21Z</time>
      </trkpt>
      <trkpt lat="43.61194" lon="3.74575">
        <ele>171.1</ele>
        <time>2012-01-22T08:26:25Z</time>
      </trkpt>
      <trkpt lat="43.61197" lon="3.74598">
        <ele>172.6</ele>
        <time>2012-01-22T08:26:29Z</time>
      </trkpt>
      <trkpt lat="43.61199" lon="3.74621">
        <ele>170.7</ele>
        <time>2012-01-22T08:26:33Z</time>
      </trkpt>
      <trkpt lat="43.612" lon="3.74644">
        <ele>170.6</ele>
        <time>2012-01-22T08:26:37Z</time>
      </trkpt>
      <trkpt lat="43.61202" lon="3.74668">
        <ele>170.8</ele>
        <time>2012-01-22T08:26:41Z</time>
      </trkpt>
      <trkpt lat="43.61201" lon="3.74694">
        <ele>168.8</ele>
        <time>2012-01-22T08:26:45Z</time>
      </trkpt>
      <trkpt lat="43.61199" lon="3.7472">
        <ele>170.2</ele>
        <time>2012-01-22T08:26:49Z</time>
      </trkpt>
      <trkpt lat="43.612" lon="3.7475">
        <ele>170.2</ele>
        <time>2012-01-22T08:26:53Z</time>
      </trkpt>
      <trkpt lat="43.61205" lon="3.7478">
        <ele>170.5</ele>
        <time>2012-01-22T08:26:57Z</time>
      </trkpt>
      <trkpt lat="43.61209" lon="3.74815">
        <ele>168.8</ele>
        <time>2012-01-22T08:27:01Z</time>
      </trkpt>
      <trkpt lat="43.61213" lon="3.74848">
        <ele>169.3</ele>
        <time>2012-01-22T08:27:05Z</time>
      </trkpt>
      <trkpt lat="43.61217" lon="3.74873">
        <ele>168.1</ele>
        <time>2012-01-22T08:27:08Z</time>
      </trkpt>
      <trkpt lat="43.61226" lon="3.74914">
        <ele>167.1</ele>
        <time>2012-01-22T08:27:13Z</time>
      </trkpt>
      <trkpt lat="43.61226" lon="3.74947">
        <ele>167</ele>
        <time>2012-01-22T08:27:17Z</time>
      </trkpt>
      <trkpt lat="43.61225" lon="3.74984">
        <ele>166.7</ele>
        <time>2012-01-22T08:27:21Z</time>
      </trkpt>
      <trkpt lat="43.61228" lon="3.75019">
        <ele>166.5</ele>
        <time>2012-01-22T08:27:25Z</time>
      </trkpt>
      <trkpt lat="43.61232" lon="3.75053">
        <ele>166.6</ele>
        <time>2012-01-22T08:27:29Z</time>
      </trkpt>
      <trkpt lat="43.61238" lon="3.75083">
        <ele>165.9</ele>
        <time>2012-01-22T08:27:33Z</time>
      </trkpt>
      <trkpt lat="43.61247" lon="3.75106">
        <ele>166.2</ele>
        <time>2012-01-22T08:27:37Z</time>
      </trkpt>
      <trkpt lat="43.6126" lon="3.75113">
        <ele>166.4</ele>
        <time>2012-01-22T08:27:41Z</time>
      </trkpt>
      <trkpt lat="43.61267" lon="3.7511">
        <ele>165.9</ele>
        <time>2012-01-22T08:27:43Z</time>
      </trkpt>
      <trkpt lat="43.61283" lon="3.75103">
        <ele>167.2</ele>
        <time>2012-01-22T08:27:48Z</time>
      </trkpt>
      <trkpt lat="43.61296" lon="3.75097">
        <ele>167.6</ele>
        <time>2012-01-22T08:27:52Z</time>
      </trkpt>
      <trkpt lat="43.61304" lon="3.75096">
        <ele>167.1</ele>
        <time>2012-01-22T08:27:55Z</time>
      </trkpt>
      <trkpt lat="43.61319" lon="3.75086">
        <ele>165.9</ele>
        <time>2012-01-22T08:28:01Z</time>
      </trkpt>
      <trkpt lat="43.61325" lon="3.75081">
        <ele>166.6</ele>
        <time>2012-01-22T08:28:03Z</time>
      </trkpt>
      <trkpt lat="43.6134" lon="3.75066">
        <ele>169</ele>
        <time>2012-01-22T08:28:09Z</time>
      </trkpt>
      <trkpt lat="43.61347" lon="3.7506">
        <ele>170.2</ele>
        <time>2012-01-22T08:28:12Z</time>
      </trkpt>
      <trkpt lat="43.61366" lon="3.75068">
        <ele>170.7</ele>
        <time>2012-01-22T08:28:21Z</time>
      </trkpt>
      <trkpt lat="43.6137" lon="3.75076">
        <ele>171.7</ele>
        <time>2012-01-22T08:28:24Z</time>
      </trkpt>
      <trkpt lat="43.61373" lon="3.75085">
        <ele>171.2</ele>
        <time>2012-01-22T08:28:27Z</time>
      </trkpt>
      <trkpt lat="43.61382" lon="3.751">
        <ele>170.2</ele>
        <time>2012-01-22T08:28:33Z</time>
      </trkpt>
      <trkpt lat="43.61385" lon="3.7511">
        <ele>170.2</ele>
        <time>2012-01-22T08:28:37Z</time>
      </trkpt>
      <trkpt lat="43.61389" lon="3.75118">
        <ele>170.2</ele>
        <time>2012-01-22T08:28:41Z</time>
      </trkpt>
      <trkpt lat="43.61392" lon="3.75126">
        <ele>170.2</ele>
        <time>2012-01-22T08:28:45Z</time>
      </trkpt>
      <trkpt lat="43.61394" lon="3.75135">
        <ele>171.5</ele>
        <time>2012-01-22T08:28:49Z</time>
      </trkpt>
      <trkpt lat="43.61395" lon="3.75144">
        <ele>172.5</ele>
        <time>2012-01-22T08:28:53Z</time>
      </trkpt>
      <trkpt lat="43.61396" lon="3.75154">
        <ele>174.9</ele>
        <time>2012-01-22T08:28:58Z</time>
      </trkpt>
      <trkpt lat="43.61398" lon="3.75163">
        <ele>176</ele>
        <time>2012-01-22T08:29:02Z</time>
      </trkpt>
      <trkpt lat="43.61398" lon="3.75173">
        <ele>177.1</ele>
        <time>2012-01-22T08:29:06Z</time>
      </trkpt>
      <trkpt lat="43.61402" lon="3.7518">
        <ele>177.7</ele>
        <time>2012-01-22T08:29:10Z</time>
      </trkpt>
      <trkpt lat="43.61411" lon="3.75167">
        <ele>177.7</ele>
        <time>2012-01-22T08:29:18Z</time>
      </trkpt>
      <trkpt lat="43.61411" lon="3.75158">
        <ele>176.6</ele>
        <time>2012-01-22T08:29:22Z</time>
      </trkpt>
      <trkpt lat="43.61411" lon="3.75158">
        <ele>140.3</ele>
        <time>2012-01-22T08:29:34Z</time>
      </trkpt>
      <trkpt lat="43.61411" lon="3.75158">
        <ele>140.3</ele>
        <time>2012-01-22T08:29:51Z</time>
      </trkpt>
      <trkpt lat="43.6142" lon="3.75129">
        <ele>179.1</ele>
        <time>2012-01-22T08:29:58Z</time>
      </trkpt>
      <trkpt lat="43.61424" lon="3.75121">
        <ele>181.6</ele>
        <time>2012-01-22T08:30:01Z</time>
      </trkpt>
      <trkpt lat="43.61433" lon="3.75105">
        <ele>181.6</ele>
        <time>2012-01-22T08:30:08Z</time>
      </trkpt>
      <trkpt lat="43.61442" lon="3.75087">
        <ele>182</ele>
        <time>2012-01-22T08:30:14Z</time>
      </trkpt>
      <trkpt lat="43.61452" lon="3.75073">
        <ele>180.1</ele>
        <time>2012-01-22T08:30:18Z</time>
      </trkpt>
      <trkpt lat="43.61456" lon="3.75064">
        <ele>179</ele>
        <time>2012-01-22T08:30:21Z</time>
      </trkpt>
      <trkpt lat="43.61456" lon="3.75064">
        <ele>140.9</ele>
        <time>2012-01-22T08:30:33Z</time>
      </trkpt>
      <trkpt lat="43.61456" lon="3.75064">
        <ele>140.9</ele>
        <time>2012-01-22T08:33:41Z</time>
      </trkpt>
      <trkpt lat="43.61456" lon="3.75064">
        <ele>140.9</ele>
        <time>2012-01-22T08:33:52Z</time>
      </trkpt>
      <trkpt lat="43.61456" lon="3.75064">
        <ele>140.9</ele>
        <time>2012-01-22T08:33:56Z</time>
      </trkpt>
      <trkpt lat="43.6148" lon="3.75048">
        <ele>181.9</ele>
        <time>2012-01-22T08:34:00Z</time>
      </trkpt>
      <trkpt lat="43.61487" lon="3.75049">
        <ele>182.2</ele>
        <time>2012-01-22T08:34:11Z</time>
      </trkpt>
      <trkpt lat="43.61494" lon="3.7505">
        <ele>181.3</ele>
        <time>2012-01-22T08:34:16Z</time>
      </trkpt>
      <trkpt lat="43.61502" lon="3.7505">
        <ele>181</ele>
        <time>2012-01-22T08:34:19Z</time>
      </trkpt>
      <trkpt lat="43.61509" lon="3.7505">
        <ele>179.5</ele>
        <time>2012-01-22T08:34:23Z</time>
      </trkpt>
      <trkpt lat="43.61516" lon="3.75048">
        <ele>179.5</ele>
        <time>2012-01-22T08:34:27Z</time>
      </trkpt>
      <trkpt lat="43.61516" lon="3.75048">
        <ele>128.5</ele>
        <time>2012-01-22T08:34:38Z</time>
      </trkpt>
      <trkpt lat="43.61516" lon="3.75048">
        <ele>128.5</ele>
        <time>2012-01-22T08:34:45Z</time>
      </trkpt>
      <trkpt lat="43.61561" lon="3.75037">
        <ele>181.2</ele>
        <time>2012-01-22T08:34:50Z</time>
      </trkpt>
      <trkpt lat="43.61575" lon="3.7503">
        <ele>182.7</ele>
        <time>2012-01-22T08:34:54Z</time>
      </trkpt>
      <trkpt lat="43.6159" lon="3.75017">
        <ele>180.8</ele>
        <time>2012-01-22T08:34:59Z</time>
      </trkpt>
      <trkpt lat="43.61597" lon="3.75012">
        <ele>179.8</ele>
        <time>2012-01-22T08:35:03Z</time>
      </trkpt>
      <trkpt lat="43.61597" lon="3.75012">
        <ele>115.3</ele>
        <time>2012-01-22T08:35:14Z</time>
      </trkpt>
      <trkpt lat="43.61597" lon="3.75012">
        <ele>115.3</ele>
        <time>2012-01-22T08:35:29Z</time>
      </trkpt>
      <trkpt lat="43.61618" lon="3.75024">
        <ele>180.9</ele>
        <time>2012-01-22T08:35:33Z</time>
      </trkpt>
      <trkpt lat="43.61638" lon="3.75036">
        <ele>177.6</ele>
        <time>2012-01-22T08:35:37Z</time>
      </trkpt>
      <trkpt lat="43.61654" lon="3.75049">
        <ele>177</ele>
        <time>2012-01-22T08:35:41Z</time>
      </trkpt>
      <trkpt lat="43.61675" lon="3.75078">
        <ele>174.4</ele>
        <time>2012-01-22T08:35:46Z</time>
      </trkpt>
      <trkpt lat="43.61684" lon="3.75097">
        <ele>173</ele>
        <time>2012-01-22T08:35:50Z</time>
      </trkpt>
      <trkpt lat="43.61688" lon="3.75104">
        <ele>173</ele>
        <time>2012-01-22T08:35:51Z</time>
      </trkpt>
      <trkpt lat="43.61701" lon="3.75115">
        <ele>170</ele>
        <time>2012-01-22T08:35:55Z</time>
      </trkpt>
      <trkpt lat="43.61701" lon="3.75115">
        <ele>98.7</ele>
        <time>2012-01-22T08:36:06Z</time>
      </trkpt>
      <trkpt lat="43.61701" lon="3.75115">
        <ele>98.7</ele>
        <time>2012-01-22T08:36:41Z</time>
      </trkpt>
      <trkpt lat="43.6172" lon="3.75114">
        <ele>166</ele>
        <time>2012-01-22T08:36:43Z</time>
      </trkpt>
      <trkpt lat="43.61733" lon="3.75103">
        <ele>161.6</ele>
        <time>2012-01-22T08:36:48Z</time>
      </trkpt>
      <trkpt lat="43.6175" lon="3.75088">
        <ele>159.1</ele>
        <time>2012-01-22T08:36:53Z</time>
      </trkpt>
      <trkpt lat="43.61773" lon="3.75072">
        <ele>155.3</ele>
        <time>2012-01-22T08:36:56Z</time>
      </trkpt>
      <trkpt lat="43.61789" lon="3.75058">
        <ele>155.7</ele>
        <time>2012-01-22T08:37:00Z</time>
      </trkpt>
      <trkpt lat="43.61801" lon="3.75044">
        <ele>155.5</ele>
        <time>2012-01-22T08:37:04Z</time>
      </trkpt>
      <trkpt lat="43.61807" lon="3.75036">
        <ele>154.7</ele>
        <time>2012-01-22T08:37:07Z</time>
      </trkpt>
      <trkpt lat="43.61806" lon="3.75049">
        <ele>156.3</ele>
        <time>2012-01-22T08:37:16Z</time>
      </trkpt>
      <trkpt lat="43.61797" lon="3.7507">
        <ele>158.7</ele>
        <time>2012-01-22T08:37:20Z</time>
      </trkpt>
      <trkpt lat="43.61794" lon="3.75088">
        <ele>156.8</ele>
        <time>2012-01-22T08:37:25Z</time>
      </trkpt>
      <trkpt lat="43.61803" lon="3.75103">
        <ele>151.9</ele>
        <time>2012-01-22T08:37:29Z</time>
      </trkpt>
      <trkpt lat="43.61827" lon="3.75092">
        <ele>147.1</ele>
        <time>2012-01-22T08:37:36Z</time>
      </trkpt>
      <trkpt lat="43.61845" lon="3.75082">
        <ele>149.1</ele>
        <time>2012-01-22T08:37:40Z</time>
      </trkpt>
      <trkpt lat="43.61862" lon="3.75075">
        <ele>149.7</ele>
        <time>2012-01-22T08:37:44Z</time>
      </trkpt>
      <trkpt lat="43.61877" lon="3.75072">
        <ele>148</ele>
        <time>2012-01-22T08:37:48Z</time>
      </trkpt>
      <trkpt lat="43.61894" lon="3.7507">
        <ele>147.6</ele>
        <time>2012-01-22T08:37:52Z</time>
      </trkpt>
      <trkpt lat="43.6191" lon="3.75064">
        <ele>147.5</ele>
        <time>2012-01-22T08:37:56Z</time>
      </trkpt>
      <trkpt lat="43.61923" lon="3.75056">
        <ele>149.3</ele>
        <time>2012-01-22T08:38:00Z</time>
      </trkpt>
      <trkpt lat="43.61935" lon="3.75048">
        <ele>149.7</ele>
        <time>2012-01-22T08:38:04Z</time>
      </trkpt>
      <trkpt lat="43.61941" lon="3.75043">
        <ele>147.3</ele>
        <time>2012-01-22T08:38:06Z</time>
      </trkpt>
      <trkpt lat="43.61953" lon="3.75034">
        <ele>147.6</ele>
        <time>2012-01-22T08:38:10Z</time>
      </trkpt>
      <trkpt lat="43.61974" lon="3.75025">
        <ele>143.2</ele>
        <time>2012-01-22T08:38:16Z</time>
      </trkpt>
      <trkpt lat="43.61989" lon="3.7502">
        <ele>142.1</ele>
        <time>2012-01-22T08:38:21Z</time>
      </trkpt>
      <trkpt lat="43.61996" lon="3.75016">
        <ele>141.7</ele>
        <time>2012-01-22T08:38:24Z</time>
      </trkpt>
      <trkpt lat="43.6201" lon="3.75002">
        <ele>140.7</ele>
        <time>2012-01-22T08:38:29Z</time>
      </trkpt>
      <trkpt lat="43.62019" lon="3.74986">
        <ele>141.5</ele>
        <time>2012-01-22T08:38:33Z</time>
      </trkpt>
      <trkpt lat="43.62021" lon="3.74977">
        <ele>141.5</ele>
        <time>2012-01-22T08:38:35Z</time>
      </trkpt>
      <trkpt lat="43.62032" lon="3.74958">
        <ele>141.9</ele>
        <time>2012-01-22T08:38:41Z</time>
      </trkpt>
      <trkpt lat="43.62036" lon="3.74939">
        <ele>139.2</ele>
        <time>2012-01-22T08:38:45Z</time>
      </trkpt>
      <trkpt lat="43.62038" lon="3.74929">
        <ele>137.4</ele>
        <time>2012-01-22T08:38:47Z</time>
      </trkpt>
      <trkpt lat="43.62042" lon="3.74919">
        <ele>135.9</ele>
        <time>2012-01-22T08:38:50Z</time>
      </trkpt>
      <trkpt lat="43.62055" lon="3.74911">
        <ele>135</ele>
        <time>2012-01-22T08:38:57Z</time>
      </trkpt>
      <trkpt lat="43.62057" lon="3.74902">
        <ele>135.6</ele>
        <time>2012-01-22T08:39:00Z</time>
      </trkpt>
      <trkpt lat="43.62058" lon="3.74882">
        <ele>136.7</ele>
        <time>2012-01-22T08:39:04Z</time>
      </trkpt>
      <trkpt lat="43.62057" lon="3.74862">
        <ele>137.4</ele>
        <time>2012-01-22T08:39:08Z</time>
      </trkpt>
      <trkpt lat="43.62059" lon="3.74851">
        <ele>140.7</ele>
        <time>2012-01-22T08:39:11Z</time>
      </trkpt>
      <trkpt lat="43.6207" lon="3.74837">
        <ele>141.8</ele>
        <time>2012-01-22T08:39:17Z</time>
      </trkpt>
      <trkpt lat="43.62077" lon="3.74829">
        <ele>142.4</ele>
        <time>2012-01-22T08:39:20Z</time>
      </trkpt>
      <trkpt lat="43.62085" lon="3.74825">
        <ele>142.7</ele>
        <time>2012-01-22T08:39:23Z</time>
      </trkpt>
      <trkpt lat="43.62091" lon="3.74821">
        <ele>144.6</ele>
        <time>2012-01-22T08:39:26Z</time>
      </trkpt>
      <trkpt lat="43.62099" lon="3.74819">
        <ele>144.8</ele>
        <time>2012-01-22T08:39:31Z</time>
      </trkpt>
      <trkpt lat="43.62111" lon="3.74825">
        <ele>145.2</ele>
        <time>2012-01-22T08:39:38Z</time>
      </trkpt>
      <trkpt lat="43.62117" lon="3.74832">
        <ele>145.7</ele>
        <time>2012-01-22T08:39:43Z</time>
      </trkpt>
      <trkpt lat="43.6212" lon="3.7484">
        <ele>144.8</ele>
        <time>2012-01-22T08:39:48Z</time>
      </trkpt>
      <trkpt lat="43.62118" lon="3.74849">
        <ele>147.6</ele>
        <time>2012-01-22T08:39:54Z</time>
      </trkpt>
      <trkpt lat="43.62121" lon="3.74857">
        <ele>148.4</ele>
        <time>2012-01-22T08:40:00Z</time>
      </trkpt>
      <trkpt lat="43.62123" lon="3.74847">
        <ele>150.1</ele>
        <time>2012-01-22T08:40:06Z</time>
      </trkpt>
      <trkpt lat="43.62116" lon="3.7483">
        <ele>146.3</ele>
        <time>2012-01-22T08:40:13Z</time>
      </trkpt>
      <trkpt lat="43.62113" lon="3.74823">
        <ele>146.5</ele>
        <time>2012-01-22T08:40:16Z</time>
      </trkpt>
      <trkpt lat="43.62113" lon="3.74811">
        <ele>147.3</ele>
        <time>2012-01-22T08:40:20Z</time>
      </trkpt>
      <trkpt lat="43.62115" lon="3.74801">
        <ele>147.6</ele>
        <time>2012-01-22T08:40:23Z</time>
      </trkpt>
      <trkpt lat="43.62118" lon="3.74782">
        <ele>148.7</ele>
        <time>2012-01-22T08:40:29Z</time>
      </trkpt>
      <trkpt lat="43.62118" lon="3.74773">
        <ele>149.5</ele>
        <time>2012-01-22T08:40:32Z</time>
      </trkpt>
      <trkpt lat="43.62119" lon="3.74764">
        <ele>149.8</ele>
        <time>2012-01-22T08:40:35Z</time>
      </trkpt>
      <trkpt lat="43.62117" lon="3.74753">
        <ele>149.7</ele>
        <time>2012-01-22T08:40:39Z</time>
      </trkpt>
      <trkpt lat="43.62116" lon="3.74733">
        <ele>150.1</ele>
        <time>2012-01-22T08:40:45Z</time>
      </trkpt>
      <trkpt lat="43.62119" lon="3.74714">
        <ele>149.8</ele>
        <time>2012-01-22T08:40:49Z</time>
      </trkpt>
      <trkpt lat="43.62122" lon="3.74693">
        <ele>150.9</ele>
        <time>2012-01-22T08:40:53Z</time>
      </trkpt>
      <trkpt lat="43.62126" lon="3.74673">
        <ele>150.2</ele>
        <time>2012-01-22T08:40:57Z</time>
      </trkpt>
      <trkpt lat="43.62131" lon="3.74654">
        <ele>149</ele>
        <time>2012-01-22T08:41:01Z</time>
      </trkpt>
      <trkpt lat="43.62135" lon="3.74634">
        <ele>150.3</ele>
        <time>2012-01-22T08:41:05Z</time>
      </trkpt>
      <trkpt lat="43.62138" lon="3.74614">
        <ele>149.8</ele>
        <time>2012-01-22T08:41:09Z</time>
      </trkpt>
      <trkpt lat="43.62142" lon="3.74594">
        <ele>148.4</ele>
        <time>2012-01-22T08:41:13Z</time>
      </trkpt>
      <trkpt lat="43.62147" lon="3.74573">
        <ele>147.8</ele>
        <time>2012-01-22T08:41:17Z</time>
      </trkpt>
      <trkpt lat="43.62151" lon="3.74553">
        <ele>147.9</ele>
        <time>2012-01-22T08:41:21Z</time>
      </trkpt>
      <trkpt lat="43.62156" lon="3.74533">
        <ele>148</ele>
        <time>2012-01-22T08:41:25Z</time>
      </trkpt>
      <trkpt lat="43.62162" lon="3.74513">
        <ele>148</ele>
        <time>2012-01-22T08:41:29Z</time>
      </trkpt>
      <trkpt lat="43.62171" lon="3.74495">
        <ele>148.1</ele>
        <time>2012-01-22T08:41:33Z</time>
      </trkpt>
      <trkpt lat="43.62179" lon="3.74477">
        <ele>148.5</ele>
        <time>2012-01-22T08:41:37Z</time>
      </trkpt>
      <trkpt lat="43.62187" lon="3.74461">
        <ele>150.1</ele>
        <time>2012-01-22T08:41:41Z</time>
      </trkpt>
      <trkpt lat="43.62195" lon="3.74445">
        <ele>148.9</ele>
        <time>2012-01-22T08:41:45Z</time>
      </trkpt>
      <trkpt lat="43.62206" lon="3.74429">
        <ele>147</ele>
        <time>2012-01-22T08:41:49Z</time>
      </trkpt>
      <trkpt lat="43.62217" lon="3.74414">
        <ele>148.1</ele>
        <time>2012-01-22T08:41:53Z</time>
      </trkpt>
      <trkpt lat="43.62227" lon="3.74399">
        <ele>148.3</ele>
        <time>2012-01-22T08:41:57Z</time>
      </trkpt>
      <trkpt lat="43.62237" lon="3.74385">
        <ele>151.1</ele>
        <time>2012-01-22T08:42:01Z</time>
      </trkpt>
      <trkpt lat="43.6225" lon="3.74372">
        <ele>150.2</ele>
        <time>2012-01-22T08:42:05Z</time>
      </trkpt>
      <trkpt lat="43.62264" lon="3.7436">
        <ele>151.1</ele>
        <time>2012-01-22T08:42:09Z</time>
      </trkpt>
      <trkpt lat="43.62276" lon="3.74347">
        <ele>153.1</ele>
        <time>2012-01-22T08:42:13Z</time>
      </trkpt>
      <trkpt lat="43.62288" lon="3.74333">
        <ele>154.5</ele>
        <time>2012-01-22T08:42:17Z</time>
      </trkpt>
      <trkpt lat="43.623" lon="3.74319">
        <ele>155.5</ele>
        <time>2012-01-22T08:42:21Z</time>
      </trkpt>
      <trkpt lat="43.62313" lon="3.74302">
        <ele>154.2</ele>
        <time>2012-01-22T08:42:25Z</time>
      </trkpt>
      <trkpt lat="43.62326" lon="3.74284">
        <ele>155.9</ele>
        <time>2012-01-22T08:42:29Z</time>
      </trkpt>
      <trkpt lat="43.62337" lon="3.74269">
        <ele>155.5</ele>
        <time>2012-01-22T08:42:33Z</time>
      </trkpt>
      <trkpt lat="43.62345" lon="3.74254">
        <ele>156.7</ele>
        <time>2012-01-22T08:42:37Z</time>
      </trkpt>
      <trkpt lat="43.62354" lon="3.74237">
        <ele>157.1</ele>
        <time>2012-01-22T08:42:41Z</time>
      </trkpt>
      <trkpt lat="43.62363" lon="3.74216">
        <ele>157.6</ele>
        <time>2012-01-22T08:42:45Z</time>
      </trkpt>
      <trkpt lat="43.62371" lon="3.74196">
        <ele>156.5</ele>
        <time>2012-01-22T08:42:49Z</time>
      </trkpt>
      <trkpt lat="43.62378" lon="3.74175">
        <ele>155.5</ele>
        <time>2012-01-22T08:42:53Z</time>
      </trkpt>
      <trkpt lat="43.62384" lon="3.74154">
        <ele>155.1</ele>
        <time>2012-01-22T08:42:57Z</time>
      </trkpt>
      <trkpt lat="43.62391" lon="3.7413">
        <ele>154.5</ele>
        <time>2012-01-22T08:43:01Z</time>
      </trkpt>
      <trkpt lat="43.62396" lon="3.74107">
        <ele>154</ele>
        <time>2012-01-22T08:43:05Z</time>
      </trkpt>
      <trkpt lat="43.62398" lon="3.74084">
        <ele>153.9</ele>
        <time>2012-01-22T08:43:09Z</time>
      </trkpt>
      <trkpt lat="43.624" lon="3.74061">
        <ele>153.2</ele>
        <time>2012-01-22T08:43:13Z</time>
      </trkpt>
      <trkpt lat="43.62402" lon="3.74039">
        <ele>155.6</ele>
        <time>2012-01-22T08:43:17Z</time>
      </trkpt>
      <trkpt lat="43.62402" lon="3.74017">
        <ele>157.1</ele>
        <time>2012-01-22T08:43:21Z</time>
      </trkpt>
      <trkpt lat="43.62404" lon="3.73996">
        <ele>158.7</ele>
        <time>2012-01-22T08:43:25Z</time>
      </trkpt>
      <trkpt lat="43.62404" lon="3.73976">
        <ele>157.2</ele>
        <time>2012-01-22T08:43:29Z</time>
      </trkpt>
      <trkpt lat="43.62406" lon="3.73954">
        <ele>155.8</ele>
        <time>2012-01-22T08:43:33Z</time>
      </trkpt>
      <trkpt lat="43.62407" lon="3.73933">
        <ele>156.1</ele>
        <time>2012-01-22T08:43:37Z</time>
      </trkpt>
      <trkpt lat="43.62408" lon="3.73914">
        <ele>156</ele>
        <time>2012-01-22T08:43:41Z</time>
      </trkpt>
      <trkpt lat="43.62409" lon="3.73896">
        <ele>156.3</ele>
        <time>2012-01-22T08:43:45Z</time>
      </trkpt>
      <trkpt lat="43.6241" lon="3.73885">
        <ele>155.4</ele>
        <time>2012-01-22T08:43:48Z</time>
      </trkpt>
      <trkpt lat="43.62413" lon="3.73865">
        <ele>154.4</ele>
        <time>2012-01-22T08:43:53Z</time>
      </trkpt>
      <trkpt lat="43.62416" lon="3.73846">
        <ele>153.5</ele>
        <time>2012-01-22T08:43:57Z</time>
      </trkpt>
      <trkpt lat="43.62418" lon="3.73827">
        <ele>153.8</ele>
        <time>2012-01-22T08:44:01Z</time>
      </trkpt>
      <trkpt lat="43.62423" lon="3.73807">
        <ele>153</ele>
        <time>2012-01-22T08:44:05Z</time>
      </trkpt>
      <trkpt lat="43.62429" lon="3.73788">
        <ele>153.2</ele>
        <time>2012-01-22T08:44:09Z</time>
      </trkpt>
      <trkpt lat="43.62435" lon="3.73767">
        <ele>153.5</ele>
        <time>2012-01-22T08:44:13Z</time>
      </trkpt>
      <trkpt lat="43.62441" lon="3.73745">
        <ele>153.9</ele>
        <time>2012-01-22T08:44:17Z</time>
      </trkpt>
      <trkpt lat="43.62447" lon="3.73726">
        <ele>152.1</ele>
        <time>2012-01-22T08:44:21Z</time>
      </trkpt>
      <trkpt lat="43.62454" lon="3.73709">
        <ele>153</ele>
        <time>2012-01-22T08:44:25Z</time>
      </trkpt>
      <trkpt lat="43.62459" lon="3.73691">
        <ele>153.3</ele>
        <time>2012-01-22T08:44:29Z</time>
      </trkpt>
      <trkpt lat="43.62466" lon="3.73672">
        <ele>155.1</ele>
        <time>2012-01-22T08:44:33Z</time>
      </trkpt>
      <trkpt lat="43.62471" lon="3.73655">
        <ele>155.9</ele>
        <time>2012-01-22T08:44:37Z</time>
      </trkpt>
      <trkpt lat="43.62472" lon="3.73646">
        <ele>155.5</ele>
        <time>2012-01-22T08:44:39Z</time>
      </trkpt>
      <trkpt lat="43.62476" lon="3.73625">
        <ele>155.8</ele>
        <time>2012-01-22T08:44:45Z</time>
      </trkpt>
      <trkpt lat="43.62478" lon="3.73616">
        <ele>155.7</ele>
        <time>2012-01-22T08:44:50Z</time>
      </trkpt>
      <trkpt lat="43.62492" lon="3.73608">
        <ele>153.1</ele>
        <time>2012-01-22T08:45:01Z</time>
      </trkpt>
      <trkpt lat="43.62506" lon="3.73599">
        <ele>150.8</ele>
        <time>2012-01-22T08:45:04Z</time>
      </trkpt>
      <trkpt lat="43.62519" lon="3.73592">
        <ele>151.3</ele>
        <time>2012-01-22T08:45:09Z</time>
      </trkpt>
      <trkpt lat="43.62526" lon="3.73589">
        <ele>151.6</ele>
        <time>2012-01-22T08:45:12Z</time>
      </trkpt>
      <trkpt lat="43.62534" lon="3.73585">
        <ele>152.3</ele>
        <time>2012-01-22T08:45:15Z</time>
      </trkpt>
      <trkpt lat="43.62549" lon="3.73575">
        <ele>152.8</ele>
        <time>2012-01-22T08:45:21Z</time>
      </trkpt>
      <trkpt lat="43.62556" lon="3.73571">
        <ele>153.5</ele>
        <time>2012-01-22T08:45:24Z</time>
      </trkpt>
      <trkpt lat="43.62564" lon="3.73566">
        <ele>154.1</ele>
        <time>2012-01-22T08:45:27Z</time>
      </trkpt>
      <trkpt lat="43.62578" lon="3.73559">
        <ele>154</ele>
        <time>2012-01-22T08:45:33Z</time>
      </trkpt>
      <trkpt lat="43.62585" lon="3.73555">
        <ele>154.1</ele>
        <time>2012-01-22T08:45:36Z</time>
      </trkpt>
      <trkpt lat="43.62591" lon="3.73549">
        <ele>154.7</ele>
        <time>2012-01-22T08:45:39Z</time>
      </trkpt>
      <trkpt lat="43.62587" lon="3.73527">
        <ele>155.1</ele>
        <time>2012-01-22T08:45:45Z</time>
      </trkpt>
      <trkpt lat="43.62582" lon="3.73511">
        <ele>155.5</ele>
        <time>2012-01-22T08:45:49Z</time>
      </trkpt>
      <trkpt lat="43.6258" lon="3.73498">
        <ele>155.3</ele>
        <time>2012-01-22T08:45:52Z</time>
      </trkpt>
      <trkpt lat="43.62579" lon="3.7349">
        <ele>155.2</ele>
        <time>2012-01-22T08:45:54Z</time>
      </trkpt>
      <trkpt lat="43.62577" lon="3.73466">
        <ele>155.2</ele>
        <time>2012-01-22T08:46:00Z</time>
      </trkpt>
      <trkpt lat="43.62576" lon="3.73445">
        <ele>154.7</ele>
        <time>2012-01-22T08:46:05Z</time>
      </trkpt>
      <trkpt lat="43.62573" lon="3.73433">
        <ele>155.3</ele>
        <time>2012-01-22T08:46:08Z</time>
      </trkpt>
      <trkpt lat="43.6257" lon="3.73421">
        <ele>156.6</ele>
        <time>2012-01-22T08:46:11Z</time>
      </trkpt>
      <trkpt lat="43.62565" lon="3.73397">
        <ele>156.3</ele>
        <time>2012-01-22T08:46:17Z</time>
      </trkpt>
      <trkpt lat="43.62561" lon="3.73387">
        <ele>155.6</ele>
        <time>2012-01-22T08:46:20Z</time>
      </trkpt>
      <trkpt lat="43.62556" lon="3.7337">
        <ele>155.7</ele>
        <time>2012-01-22T08:46:24Z</time>
      </trkpt>
      <trkpt lat="43.62554" lon="3.73352">
        <ele>155.5</ele>
        <time>2012-01-22T08:46:28Z</time>
      </trkpt>
      <trkpt lat="43.62552" lon="3.7333">
        <ele>156.7</ele>
        <time>2012-01-22T08:46:33Z</time>
      </trkpt>
      <trkpt lat="43.62552" lon="3.7331">
        <ele>156</ele>
        <time>2012-01-22T08:46:37Z</time>
      </trkpt>
      <trkpt lat="43.62551" lon="3.7329">
        <ele>156</ele>
        <time>2012-01-22T08:46:41Z</time>
      </trkpt>
      <trkpt lat="43.62551" lon="3.7328">
        <ele>156.7</ele>
        <time>2012-01-22T08:46:43Z</time>
      </trkpt>
      <trkpt lat="43.6255" lon="3.73256">
        <ele>160.2</ele>
        <time>2012-01-22T08:46:49Z</time>
      </trkpt>
      <trkpt lat="43.6255" lon="3.73243">
        <ele>159.2</ele>
        <time>2012-01-22T08:46:52Z</time>
      </trkpt>
      <trkpt lat="43.62548" lon="3.73233">
        <ele>157.7</ele>
        <time>2012-01-22T08:46:55Z</time>
      </trkpt>
      <trkpt lat="43.62543" lon="3.73224">
        <ele>156</ele>
        <time>2012-01-22T08:46:59Z</time>
      </trkpt>
      <trkpt lat="43.62545" lon="3.73202">
        <ele>156</ele>
        <time>2012-01-22T08:47:04Z</time>
      </trkpt>
      <trkpt lat="43.62547" lon="3.73184">
        <ele>155.8</ele>
        <time>2012-01-22T08:47:08Z</time>
      </trkpt>
      <trkpt lat="43.62552" lon="3.73164">
        <ele>158</ele>
        <time>2012-01-22T08:47:13Z</time>
      </trkpt>
      <trkpt lat="43.62555" lon="3.73147">
        <ele>156.9</ele>
        <time>2012-01-22T08:47:17Z</time>
      </trkpt>
      <trkpt lat="43.62554" lon="3.73134">
        <ele>157.6</ele>
        <time>2012-01-22T08:47:20Z</time>
      </trkpt>
      <trkpt lat="43.62552" lon="3.73116">
        <ele>158.3</ele>
        <time>2012-01-22T08:47:24Z</time>
      </trkpt>
      <trkpt lat="43.6255" lon="3.73097">
        <ele>158.3</ele>
        <time>2012-01-22T08:47:28Z</time>
      </trkpt>
      <trkpt lat="43.62549" lon="3.73076">
        <ele>158.9</ele>
        <time>2012-01-22T08:47:33Z</time>
      </trkpt>
      <trkpt lat="43.6255" lon="3.73063">
        <ele>159.8</ele>
        <time>2012-01-22T08:47:36Z</time>
      </trkpt>
      <trkpt lat="43.62552" lon="3.73052">
        <ele>159.6</ele>
        <time>2012-01-22T08:47:39Z</time>
      </trkpt>
      <trkpt lat="43.62556" lon="3.73028">
        <ele>159.8</ele>
        <time>2012-01-22T08:47:45Z</time>
      </trkpt>
      <trkpt lat="43.62557" lon="3.73016">
        <ele>159.4</ele>
        <time>2012-01-22T08:47:48Z</time>
      </trkpt>
      <trkpt lat="43.62558" lon="3.72994">
        <ele>158.4</ele>
        <time>2012-01-22T08:47:53Z</time>
      </trkpt>
      <trkpt lat="43.62559" lon="3.72976">
        <ele>159.4</ele>
        <time>2012-01-22T08:47:57Z</time>
      </trkpt>
      <trkpt lat="43.62558" lon="3.72958">
        <ele>159.6</ele>
        <time>2012-01-22T08:48:01Z</time>
      </trkpt>
      <trkpt lat="43.62556" lon="3.72949">
        <ele>159.6</ele>
        <time>2012-01-22T08:48:03Z</time>
      </trkpt>
      <trkpt lat="43.62554" lon="3.72926">
        <ele>157.7</ele>
        <time>2012-01-22T08:48:09Z</time>
      </trkpt>
      <trkpt lat="43.62554" lon="3.72913">
        <ele>157.2</ele>
        <time>2012-01-22T08:48:12Z</time>
      </trkpt>
      <trkpt lat="43.62554" lon="3.72892">
        <ele>156.7</ele>
        <time>2012-01-22T08:48:17Z</time>
      </trkpt>
      <trkpt lat="43.62555" lon="3.7288">
        <ele>157.3</ele>
        <time>2012-01-22T08:48:20Z</time>
      </trkpt>
      <trkpt lat="43.62554" lon="3.72868">
        <ele>158.1</ele>
        <time>2012-01-22T08:48:23Z</time>
      </trkpt>
      <trkpt lat="43.6255" lon="3.72846">
        <ele>158.1</ele>
        <time>2012-01-22T08:48:29Z</time>
      </trkpt>
      <trkpt lat="43.62551" lon="3.72835">
        <ele>159.8</ele>
        <time>2012-01-22T08:48:32Z</time>
      </trkpt>
      <trkpt lat="43.62555" lon="3.72826">
        <ele>162.8</ele>
        <time>2012-01-22T08:48:35Z</time>
      </trkpt>
      <trkpt lat="43.6256" lon="3.72821">
        <ele>166</ele>
        <time>2012-01-22T08:48:39Z</time>
      </trkpt>
      <trkpt lat="43.62568" lon="3.72819">
        <ele>164.7</ele>
        <time>2012-01-22T08:48:44Z</time>
      </trkpt>
      <trkpt lat="43.62576" lon="3.72819">
        <ele>166.4</ele>
        <time>2012-01-22T08:48:49Z</time>
      </trkpt>
      <trkpt lat="43.62583" lon="3.72818">
        <ele>166.9</ele>
        <time>2012-01-22T08:48:53Z</time>
      </trkpt>
      <trkpt lat="43.62583" lon="3.72818">
        <ele>126.1</ele>
        <time>2012-01-22T08:49:05Z</time>
      </trkpt>
      <trkpt lat="43.62583" lon="3.72818">
        <ele>126.1</ele>
        <time>2012-01-22T08:49:11Z</time>
      </trkpt>
      <trkpt lat="43.62594" lon="3.72809">
        <ele>168.1</ele>
        <time>2012-01-22T08:49:20Z</time>
      </trkpt>
      <trkpt lat="43.626" lon="3.72812">
        <ele>169.2</ele>
        <time>2012-01-22T08:49:27Z</time>
      </trkpt>
      <trkpt lat="43.62608" lon="3.72815">
        <ele>169.7</ele>
        <time>2012-01-22T08:49:32Z</time>
      </trkpt>
      <trkpt lat="43.62614" lon="3.72818">
        <ele>169.2</ele>
        <time>2012-01-22T08:49:36Z</time>
      </trkpt>
      <trkpt lat="43.62622" lon="3.72821">
        <ele>169.3</ele>
        <time>2012-01-22T08:49:40Z</time>
      </trkpt>
      <trkpt lat="43.6263" lon="3.72825">
        <ele>168.2</ele>
        <time>2012-01-22T08:49:43Z</time>
      </trkpt>
      <trkpt lat="43.62644" lon="3.72826">
        <ele>167.1</ele>
        <time>2012-01-22T08:49:47Z</time>
      </trkpt>
      <trkpt lat="43.62659" lon="3.72823">
        <ele>166.4</ele>
        <time>2012-01-22T08:49:51Z</time>
      </trkpt>
      <trkpt lat="43.62666" lon="3.72824">
        <ele>169.8</ele>
        <time>2012-01-22T08:49:54Z</time>
      </trkpt>
      <trkpt lat="43.62673" lon="3.72826">
        <ele>169.9</ele>
        <time>2012-01-22T08:49:59Z</time>
      </trkpt>
      <trkpt lat="43.62679" lon="3.72829">
        <ele>170.4</ele>
        <time>2012-01-22T08:50:02Z</time>
      </trkpt>
      <trkpt lat="43.62694" lon="3.72837">
        <ele>169.6</ele>
        <time>2012-01-22T08:50:08Z</time>
      </trkpt>
      <trkpt lat="43.62701" lon="3.72844">
        <ele>169.7</ele>
        <time>2012-01-22T08:50:11Z</time>
      </trkpt>
      <trkpt lat="43.62709" lon="3.72848">
        <ele>170.2</ele>
        <time>2012-01-22T08:50:14Z</time>
      </trkpt>
      <trkpt lat="43.62724" lon="3.72847">
        <ele>171.3</ele>
        <time>2012-01-22T08:50:20Z</time>
      </trkpt>
      <trkpt lat="43.62731" lon="3.72842">
        <ele>171.4</ele>
        <time>2012-01-22T08:50:23Z</time>
      </trkpt>
      <trkpt lat="43.62737" lon="3.72836">
        <ele>171</ele>
        <time>2012-01-22T08:50:26Z</time>
      </trkpt>
      <trkpt lat="43.62745" lon="3.72814">
        <ele>171.7</ele>
        <time>2012-01-22T08:50:32Z</time>
      </trkpt>
      <trkpt lat="43.62746" lon="3.72795">
        <ele>171.3</ele>
        <time>2012-01-22T08:50:36Z</time>
      </trkpt>
      <trkpt lat="43.62748" lon="3.72776">
        <ele>171.7</ele>
        <time>2012-01-22T08:50:40Z</time>
      </trkpt>
      <trkpt lat="43.62751" lon="3.72765">
        <ele>171</ele>
        <time>2012-01-22T08:50:43Z</time>
      </trkpt>
      <trkpt lat="43.62755" lon="3.72744">
        <ele>169.9</ele>
        <time>2012-01-22T08:50:48Z</time>
      </trkpt>
      <trkpt lat="43.62757" lon="3.72726">
        <ele>168.9</ele>
        <time>2012-01-22T08:50:52Z</time>
      </trkpt>
      <trkpt lat="43.62759" lon="3.72714">
        <ele>169</ele>
        <time>2012-01-22T08:50:55Z</time>
      </trkpt>
      <trkpt lat="43.62764" lon="3.72704">
        <ele>168.4</ele>
        <time>2012-01-22T08:50:58Z</time>
      </trkpt>
      <trkpt lat="43.62772" lon="3.72686">
        <ele>167.4</ele>
        <time>2012-01-22T08:51:03Z</time>
      </trkpt>
      <trkpt lat="43.62774" lon="3.72668">
        <ele>166.6</ele>
        <time>2012-01-22T08:51:07Z</time>
      </trkpt>
      <trkpt lat="43.62771" lon="3.7265">
        <ele>166.4</ele>
        <time>2012-01-22T08:51:11Z</time>
      </trkpt>
      <trkpt lat="43.6277" lon="3.72632">
        <ele>165.5</ele>
        <time>2012-01-22T08:51:15Z</time>
      </trkpt>
      <trkpt lat="43.6277" lon="3.72614">
        <ele>166.8</ele>
        <time>2012-01-22T08:51:19Z</time>
      </trkpt>
      <trkpt lat="43.62769" lon="3.72601">
        <ele>167.7</ele>
        <time>2012-01-22T08:51:22Z</time>
      </trkpt>
      <trkpt lat="43.62766" lon="3.72579">
        <ele>166.3</ele>
        <time>2012-01-22T08:51:27Z</time>
      </trkpt>
      <trkpt lat="43.62762" lon="3.72563">
        <ele>167.4</ele>
        <time>2012-01-22T08:51:31Z</time>
      </trkpt>
      <trkpt lat="43.62754" lon="3.72548">
        <ele>167.5</ele>
        <time>2012-01-22T08:51:35Z</time>
      </trkpt>
      <trkpt lat="43.62749" lon="3.72528">
        <ele>168.9</ele>
        <time>2012-01-22T08:51:40Z</time>
      </trkpt>
      <trkpt lat="43.62746" lon="3.72516">
        <ele>168</ele>
        <time>2012-01-22T08:51:43Z</time>
      </trkpt>
      <trkpt lat="43.62745" lon="3.72504">
        <ele>166.7</ele>
        <time>2012-01-22T08:51:46Z</time>
      </trkpt>
      <trkpt lat="43.62745" lon="3.72483">
        <ele>168.8</ele>
        <time>2012-01-22T08:51:51Z</time>
      </trkpt>
      <trkpt lat="43.62744" lon="3.72471">
        <ele>168.9</ele>
        <time>2012-01-22T08:51:54Z</time>
      </trkpt>
      <trkpt lat="43.62745" lon="3.72447">
        <ele>169.8</ele>
        <time>2012-01-22T08:52:00Z</time>
      </trkpt>
      <trkpt lat="43.62745" lon="3.72435">
        <ele>171</ele>
        <time>2012-01-22T08:52:03Z</time>
      </trkpt>
      <trkpt lat="43.62744" lon="3.72423">
        <ele>171.6</ele>
        <time>2012-01-22T08:52:06Z</time>
      </trkpt>
      <trkpt lat="43.62744" lon="3.72401">
        <ele>172.7</ele>
        <time>2012-01-22T08:52:12Z</time>
      </trkpt>
      <trkpt lat="43.62743" lon="3.72389">
        <ele>172.6</ele>
        <time>2012-01-22T08:52:15Z</time>
      </trkpt>
      <trkpt lat="43.62743" lon="3.72378">
        <ele>172.9</ele>
        <time>2012-01-22T08:52:18Z</time>
      </trkpt>
      <trkpt lat="43.62741" lon="3.72355">
        <ele>175.2</ele>
        <time>2012-01-22T08:52:24Z</time>
      </trkpt>
      <trkpt lat="43.62739" lon="3.72343">
        <ele>176.2</ele>
        <time>2012-01-22T08:52:27Z</time>
      </trkpt>
      <trkpt lat="43.62738" lon="3.72334">
        <ele>177.1</ele>
        <time>2012-01-22T08:52:30Z</time>
      </trkpt>
      <trkpt lat="43.62736" lon="3.72312">
        <ele>176.9</ele>
        <time>2012-01-22T08:52:36Z</time>
      </trkpt>
      <trkpt lat="43.62735" lon="3.72302">
        <ele>177.3</ele>
        <time>2012-01-22T08:52:39Z</time>
      </trkpt>
      <trkpt lat="43.62733" lon="3.72291">
        <ele>177.8</ele>
        <time>2012-01-22T08:52:42Z</time>
      </trkpt>
      <trkpt lat="43.6273" lon="3.72267">
        <ele>177.8</ele>
        <time>2012-01-22T08:52:48Z</time>
      </trkpt>
      <trkpt lat="43.62729" lon="3.72254">
        <ele>179</ele>
        <time>2012-01-22T08:52:51Z</time>
      </trkpt>
      <trkpt lat="43.62726" lon="3.72233">
        <ele>178.3</ele>
        <time>2012-01-22T08:52:56Z</time>
      </trkpt>
      <trkpt lat="43.62725" lon="3.72216">
        <ele>177.5</ele>
        <time>2012-01-22T08:53:00Z</time>
      </trkpt>
      <trkpt lat="43.62724" lon="3.72198">
        <ele>177.5</ele>
        <time>2012-01-22T08:53:04Z</time>
      </trkpt>
      <trkpt lat="43.62723" lon="3.72186">
        <ele>178.5</ele>
        <time>2012-01-22T08:53:07Z</time>
      </trkpt>
      <trkpt lat="43.62722" lon="3.72175">
        <ele>179.9</ele>
        <time>2012-01-22T08:53:10Z</time>
      </trkpt>
      <trkpt lat="43.62714" lon="3.72154">
        <ele>180.4</ele>
        <time>2012-01-22T08:53:16Z</time>
      </trkpt>
      <trkpt lat="43.62711" lon="3.72143">
        <ele>180.2</ele>
        <time>2012-01-22T08:53:19Z</time>
      </trkpt>
      <trkpt lat="43.62709" lon="3.72132">
        <ele>180.4</ele>
        <time>2012-01-22T08:53:22Z</time>
      </trkpt>
      <trkpt lat="43.62709" lon="3.72108">
        <ele>180.7</ele>
        <time>2012-01-22T08:53:28Z</time>
      </trkpt>
      <trkpt lat="43.62709" lon="3.72096">
        <ele>180.5</ele>
        <time>2012-01-22T08:53:31Z</time>
      </trkpt>
      <trkpt lat="43.62708" lon="3.72084">
        <ele>181.2</ele>
        <time>2012-01-22T08:53:34Z</time>
      </trkpt>
      <trkpt lat="43.62707" lon="3.72063">
        <ele>180</ele>
        <time>2012-01-22T08:53:39Z</time>
      </trkpt>
      <trkpt lat="43.62706" lon="3.7205">
        <ele>181.8</ele>
        <time>2012-01-22T08:53:42Z</time>
      </trkpt>
      <trkpt lat="43.62705" lon="3.72028">
        <ele>181.6</ele>
        <time>2012-01-22T08:53:48Z</time>
      </trkpt>
      <trkpt lat="43.62706" lon="3.72017">
        <ele>181.1</ele>
        <time>2012-01-22T08:53:51Z</time>
      </trkpt>
      <trkpt lat="43.62705" lon="3.72006">
        <ele>179.7</ele>
        <time>2012-01-22T08:53:54Z</time>
      </trkpt>
      <trkpt lat="43.62696" lon="3.71988">
        <ele>181.1</ele>
        <time>2012-01-22T08:54:00Z</time>
      </trkpt>
      <trkpt lat="43.62692" lon="3.71978">
        <ele>181.8</ele>
        <time>2012-01-22T08:54:03Z</time>
      </trkpt>
      <trkpt lat="43.62692" lon="3.71966">
        <ele>180.9</ele>
        <time>2012-01-22T08:54:06Z</time>
      </trkpt>
      <trkpt lat="43.62692" lon="3.71942">
        <ele>180.3</ele>
        <time>2012-01-22T08:54:12Z</time>
      </trkpt>
      <trkpt lat="43.62692" lon="3.7193">
        <ele>180.4</ele>
        <time>2012-01-22T08:54:15Z</time>
      </trkpt>
      <trkpt lat="43.62692" lon="3.71919">
        <ele>180</ele>
        <time>2012-01-22T08:54:18Z</time>
      </trkpt>
      <trkpt lat="43.62691" lon="3.71894">
        <ele>181.5</ele>
        <time>2012-01-22T08:54:24Z</time>
      </trkpt>
      <trkpt lat="43.62691" lon="3.71882">
        <ele>180.9</ele>
        <time>2012-01-22T08:54:27Z</time>
      </trkpt>
      <trkpt lat="43.62692" lon="3.71871">
        <ele>182.7</ele>
        <time>2012-01-22T08:54:30Z</time>
      </trkpt>
      <trkpt lat="43.62691" lon="3.71847">
        <ele>184.6</ele>
        <time>2012-01-22T08:54:36Z</time>
      </trkpt>
      <trkpt lat="43.6269" lon="3.71834">
        <ele>183.2</ele>
        <time>2012-01-22T08:54:39Z</time>
      </trkpt>
      <trkpt lat="43.62689" lon="3.71822">
        <ele>184.1</ele>
        <time>2012-01-22T08:54:42Z</time>
      </trkpt>
      <trkpt lat="43.6269" lon="3.71801">
        <ele>184</ele>
        <time>2012-01-22T08:54:47Z</time>
      </trkpt>
      <trkpt lat="43.6269" lon="3.7178">
        <ele>183.2</ele>
        <time>2012-01-22T08:54:51Z</time>
      </trkpt>
      <trkpt lat="43.62689" lon="3.71752">
        <ele>182.9</ele>
        <time>2012-01-22T08:54:55Z</time>
      </trkpt>
      <trkpt lat="43.62686" lon="3.71708">
        <ele>179.3</ele>
        <time>2012-01-22T08:55:01Z</time>
      </trkpt>
      <trkpt lat="43.62686" lon="3.71679">
        <ele>180</ele>
        <time>2012-01-22T08:55:05Z</time>
      </trkpt>
      <trkpt lat="43.62689" lon="3.71649">
        <ele>179.8</ele>
        <time>2012-01-22T08:55:09Z</time>
      </trkpt>
      <trkpt lat="43.62694" lon="3.71618">
        <ele>179.7</ele>
        <time>2012-01-22T08:55:13Z</time>
      </trkpt>
      <trkpt lat="43.62701" lon="3.7159">
        <ele>181.4</ele>
        <time>2012-01-22T08:55:17Z</time>
      </trkpt>
      <trkpt lat="43.62716" lon="3.71567">
        <ele>183</ele>
        <time>2012-01-22T08:55:21Z</time>
      </trkpt>
      <trkpt lat="43.62722" lon="3.71539">
        <ele>183.6</ele>
        <time>2012-01-22T08:55:25Z</time>
      </trkpt>
      <trkpt lat="43.62723" lon="3.71523">
        <ele>183</ele>
        <time>2012-01-22T08:55:27Z</time>
      </trkpt>
      <trkpt lat="43.6273" lon="3.71478">
        <ele>182.7</ele>
        <time>2012-01-22T08:55:33Z</time>
      </trkpt>
      <trkpt lat="43.6273" lon="3.7145">
        <ele>182.7</ele>
        <time>2012-01-22T08:55:37Z</time>
      </trkpt>
      <trkpt lat="43.62731" lon="3.71423">
        <ele>181.4</ele>
        <time>2012-01-22T08:55:41Z</time>
      </trkpt>
      <trkpt lat="43.62732" lon="3.71396">
        <ele>180.7</ele>
        <time>2012-01-22T08:55:45Z</time>
      </trkpt>
      <trkpt lat="43.62732" lon="3.7137">
        <ele>180.9</ele>
        <time>2012-01-22T08:55:49Z</time>
      </trkpt>
      <trkpt lat="43.62732" lon="3.71345">
        <ele>181</ele>
        <time>2012-01-22T08:55:53Z</time>
      </trkpt>
      <trkpt lat="43.62732" lon="3.71322">
        <ele>182.3</ele>
        <time>2012-01-22T08:55:57Z</time>
      </trkpt>
      <trkpt lat="43.62731" lon="3.713">
        <ele>183.5</ele>
        <time>2012-01-22T08:56:01Z</time>
      </trkpt>
      <trkpt lat="43.62726" lon="3.71278">
        <ele>182.6</ele>
        <time>2012-01-22T08:56:05Z</time>
      </trkpt>
      <trkpt lat="43.62719" lon="3.71257">
        <ele>182.5</ele>
        <time>2012-01-22T08:56:09Z</time>
      </trkpt>
      <trkpt lat="43.62713" lon="3.71238">
        <ele>184.1</ele>
        <time>2012-01-22T08:56:13Z</time>
      </trkpt>
      <trkpt lat="43.62711" lon="3.71219">
        <ele>185.4</ele>
        <time>2012-01-22T08:56:17Z</time>
      </trkpt>
      <trkpt lat="43.62712" lon="3.71199">
        <ele>186.3</ele>
        <time>2012-01-22T08:56:21Z</time>
      </trkpt>
      <trkpt lat="43.62712" lon="3.7119">
        <ele>187.6</ele>
        <time>2012-01-22T08:56:23Z</time>
      </trkpt>
      <trkpt lat="43.62712" lon="3.71165">
        <ele>187.5</ele>
        <time>2012-01-22T08:56:29Z</time>
      </trkpt>
      <trkpt lat="43.62711" lon="3.71152">
        <ele>187.2</ele>
        <time>2012-01-22T08:56:32Z</time>
      </trkpt>
      <trkpt lat="43.62709" lon="3.71133">
        <ele>187.7</ele>
        <time>2012-01-22T08:56:36Z</time>
      </trkpt>
      <trkpt lat="43.62706" lon="3.71112">
        <ele>186.6</ele>
        <time>2012-01-22T08:56:40Z</time>
      </trkpt>
      <trkpt lat="43.62705" lon="3.71091">
        <ele>187.3</ele>
        <time>2012-01-22T08:56:44Z</time>
      </trkpt>
      <trkpt lat="43.62706" lon="3.7107">
        <ele>188.5</ele>
        <time>2012-01-22T08:56:48Z</time>
      </trkpt>
      <trkpt lat="43.62705" lon="3.7105">
        <ele>188.1</ele>
        <time>2012-01-22T08:56:52Z</time>
      </trkpt>
      <trkpt lat="43.62705" lon="3.7103">
        <ele>188.8</ele>
        <time>2012-01-22T08:56:56Z</time>
      </trkpt>
      <trkpt lat="43.62705" lon="3.7101">
        <ele>188.9</ele>
        <time>2012-01-22T08:57:00Z</time>
      </trkpt>
      <trkpt lat="43.62707" lon="3.7099">
        <ele>189</ele>
        <time>2012-01-22T08:57:04Z</time>
      </trkpt>
      <trkpt lat="43.62713" lon="3.70972">
        <ele>189.4</ele>
        <time>2012-01-22T08:57:08Z</time>
      </trkpt>
      <trkpt lat="43.6272" lon="3.70954">
        <ele>189.4</ele>
        <time>2012-01-22T08:57:12Z</time>
      </trkpt>
      <trkpt lat="43.62723" lon="3.70935">
        <ele>189.1</ele>
        <time>2012-01-22T08:57:16Z</time>
      </trkpt>
      <trkpt lat="43.62718" lon="3.70915">
        <ele>190</ele>
        <time>2012-01-22T08:57:20Z</time>
      </trkpt>
      <trkpt lat="43.62708" lon="3.709">
        <ele>190.7</ele>
        <time>2012-01-22T08:57:24Z</time>
      </trkpt>
      <trkpt lat="43.62697" lon="3.70885">
        <ele>191.9</ele>
        <time>2012-01-22T08:57:28Z</time>
      </trkpt>
      <trkpt lat="43.62694" lon="3.70864">
        <ele>193.2</ele>
        <time>2012-01-22T08:57:32Z</time>
      </trkpt>
      <trkpt lat="43.62694" lon="3.70844">
        <ele>193.1</ele>
        <time>2012-01-22T08:57:36Z</time>
      </trkpt>
      <trkpt lat="43.6269" lon="3.70823">
        <ele>193.9</ele>
        <time>2012-01-22T08:57:41Z</time>
      </trkpt>
      <trkpt lat="43.62687" lon="3.7081">
        <ele>194.5</ele>
        <time>2012-01-22T08:57:44Z</time>
      </trkpt>
      <trkpt lat="43.62684" lon="3.70798">
        <ele>195.3</ele>
        <time>2012-01-22T08:57:47Z</time>
      </trkpt>
      <trkpt lat="43.62679" lon="3.70775">
        <ele>197.2</ele>
        <time>2012-01-22T08:57:53Z</time>
      </trkpt>
      <trkpt lat="43.62677" lon="3.70764">
        <ele>198.1</ele>
        <time>2012-01-22T08:57:56Z</time>
      </trkpt>
      <trkpt lat="43.62673" lon="3.70754">
        <ele>198.1</ele>
        <time>2012-01-22T08:57:59Z</time>
      </trkpt>
      <trkpt lat="43.62663" lon="3.70733">
        <ele>200.4</ele>
        <time>2012-01-22T08:58:05Z</time>
      </trkpt>
      <trkpt lat="43.62659" lon="3.70723">
        <ele>200.5</ele>
        <time>2012-01-22T08:58:08Z</time>
      </trkpt>
      <trkpt lat="43.62655" lon="3.70712">
        <ele>200.8</ele>
        <time>2012-01-22T08:58:11Z</time>
      </trkpt>
      <trkpt lat="43.62654" lon="3.7069">
        <ele>199.8</ele>
        <time>2012-01-22T08:58:16Z</time>
      </trkpt>
      <trkpt lat="43.62654" lon="3.7067">
        <ele>199.8</ele>
        <time>2012-01-22T08:58:21Z</time>
      </trkpt>
      <trkpt lat="43.62654" lon="3.70661">
        <ele>199.6</ele>
        <time>2012-01-22T08:58:23Z</time>
      </trkpt>
      <trkpt lat="43.62655" lon="3.70636">
        <ele>200</ele>
        <time>2012-01-22T08:58:29Z</time>
      </trkpt>
      <trkpt lat="43.62655" lon="3.70619">
        <ele>200</ele>
        <time>2012-01-22T08:58:33Z</time>
      </trkpt>
      <trkpt lat="43.62654" lon="3.70601">
        <ele>200.2</ele>
        <time>2012-01-22T08:58:37Z</time>
      </trkpt>
      <trkpt lat="43.62654" lon="3.70588">
        <ele>199.9</ele>
        <time>2012-01-22T08:58:40Z</time>
      </trkpt>
      <trkpt lat="43.62654" lon="3.70576">
        <ele>200.7</ele>
        <time>2012-01-22T08:58:43Z</time>
      </trkpt>
      <trkpt lat="43.62651" lon="3.70552">
        <ele>199.4</ele>
        <time>2012-01-22T08:58:49Z</time>
      </trkpt>
      <trkpt lat="43.62642" lon="3.70536">
        <ele>197.5</ele>
        <time>2012-01-22T08:58:53Z</time>
      </trkpt>
      <trkpt lat="43.62635" lon="3.70517">
        <ele>196.9</ele>
        <time>2012-01-22T08:58:57Z</time>
      </trkpt>
      <trkpt lat="43.62634" lon="3.70508">
        <ele>196.7</ele>
        <time>2012-01-22T08:58:59Z</time>
      </trkpt>
      <trkpt lat="43.62636" lon="3.70497">
        <ele>196.7</ele>
        <time>2012-01-22T08:59:02Z</time>
      </trkpt>
      <trkpt lat="43.62636" lon="3.70497">
        <ele>150</ele>
        <time>2012-01-22T08:59:13Z</time>
      </trkpt>
      <trkpt lat="43.62636" lon="3.70497">
        <ele>150</ele>
        <time>2012-01-22T09:00:38Z</time>
      </trkpt>
      <trkpt lat="43.62643" lon="3.70481">
        <ele>199.6</ele>
        <time>2012-01-22T09:00:42Z</time>
      </trkpt>
      <trkpt lat="43.62651" lon="3.70477">
        <ele>199</ele>
        <time>2012-01-22T09:00:45Z</time>
      </trkpt>
      <trkpt lat="43.62663" lon="3.7047">
        <ele>199.3</ele>
        <time>2012-01-22T09:00:49Z</time>
      </trkpt>
      <trkpt lat="43.62676" lon="3.70461">
        <ele>199.5</ele>
        <time>2012-01-22T09:00:54Z</time>
      </trkpt>
      <trkpt lat="43.62682" lon="3.70452">
        <ele>198.4</ele>
        <time>2012-01-22T09:00:57Z</time>
      </trkpt>
      <trkpt lat="43.62688" lon="3.70431">
        <ele>198.1</ele>
        <time>2012-01-22T09:01:02Z</time>
      </trkpt>
      <trkpt lat="43.62699" lon="3.70411">
        <ele>196.8</ele>
        <time>2012-01-22T09:01:06Z</time>
      </trkpt>
      <trkpt lat="43.62713" lon="3.70395">
        <ele>195.6</ele>
        <time>2012-01-22T09:01:10Z</time>
      </trkpt>
      <trkpt lat="43.62728" lon="3.7038">
        <ele>193.6</ele>
        <time>2012-01-22T09:01:14Z</time>
      </trkpt>
      <trkpt lat="43.6274" lon="3.70367">
        <ele>193.5</ele>
        <time>2012-01-22T09:01:18Z</time>
      </trkpt>
      <trkpt lat="43.6274" lon="3.70354">
        <ele>192.4</ele>
        <time>2012-01-22T09:01:21Z</time>
      </trkpt>
      <trkpt lat="43.62739" lon="3.70336">
        <ele>190.8</ele>
        <time>2012-01-22T09:01:25Z</time>
      </trkpt>
      <trkpt lat="43.62737" lon="3.70314">
        <ele>189</ele>
        <time>2012-01-22T09:01:30Z</time>
      </trkpt>
      <trkpt lat="43.6273" lon="3.70298">
        <ele>188.9</ele>
        <time>2012-01-22T09:01:34Z</time>
      </trkpt>
      <trkpt lat="43.62725" lon="3.70291">
        <ele>189.2</ele>
        <time>2012-01-22T09:01:36Z</time>
      </trkpt>
      <trkpt lat="43.62721" lon="3.70282">
        <ele>188.9</ele>
        <time>2012-01-22T09:01:39Z</time>
      </trkpt>
      <trkpt lat="43.62718" lon="3.70273">
        <ele>189.3</ele>
        <time>2012-01-22T09:01:44Z</time>
      </trkpt>
      <trkpt lat="43.62714" lon="3.70251">
        <ele>189.3</ele>
        <time>2012-01-22T09:01:54Z</time>
      </trkpt>
      <trkpt lat="43.62715" lon="3.70232">
        <ele>190.3</ele>
        <time>2012-01-22T09:01:58Z</time>
      </trkpt>
      <trkpt lat="43.62718" lon="3.70212">
        <ele>190.8</ele>
        <time>2012-01-22T09:02:02Z</time>
      </trkpt>
      <trkpt lat="43.62721" lon="3.70187">
        <ele>190.5</ele>
        <time>2012-01-22T09:02:06Z</time>
      </trkpt>
      <trkpt lat="43.62719" lon="3.70175">
        <ele>190.1</ele>
        <time>2012-01-22T09:02:09Z</time>
      </trkpt>
      <trkpt lat="43.62718" lon="3.70156">
        <ele>189.9</ele>
        <time>2012-01-22T09:02:13Z</time>
      </trkpt>
      <trkpt lat="43.62717" lon="3.70133">
        <ele>189.3</ele>
        <time>2012-01-22T09:02:17Z</time>
      </trkpt>
      <trkpt lat="43.62717" lon="3.70107">
        <ele>188.2</ele>
        <time>2012-01-22T09:02:21Z</time>
      </trkpt>
      <trkpt lat="43.62718" lon="3.7008">
        <ele>188.7</ele>
        <time>2012-01-22T09:02:25Z</time>
      </trkpt>
      <trkpt lat="43.62719" lon="3.70068">
        <ele>189.3</ele>
        <time>2012-01-22T09:02:27Z</time>
      </trkpt>
      <trkpt lat="43.62721" lon="3.70033">
        <ele>189.1</ele>
        <time>2012-01-22T09:02:33Z</time>
      </trkpt>
      <trkpt lat="43.6272" lon="3.7001">
        <ele>188.5</ele>
        <time>2012-01-22T09:02:37Z</time>
      </trkpt>
      <trkpt lat="43.62718" lon="3.69989">
        <ele>189.1</ele>
        <time>2012-01-22T09:02:41Z</time>
      </trkpt>
      <trkpt lat="43.62716" lon="3.69967">
        <ele>188.8</ele>
        <time>2012-01-22T09:02:45Z</time>
      </trkpt>
      <trkpt lat="43.62718" lon="3.69944">
        <ele>189.5</ele>
        <time>2012-01-22T09:02:49Z</time>
      </trkpt>
      <trkpt lat="43.6272" lon="3.6992">
        <ele>188.9</ele>
        <time>2012-01-22T09:02:53Z</time>
      </trkpt>
      <trkpt lat="43.6272" lon="3.69898">
        <ele>188.9</ele>
        <time>2012-01-22T09:02:57Z</time>
      </trkpt>
      <trkpt lat="43.62718" lon="3.69878">
        <ele>189.7</ele>
        <time>2012-01-22T09:03:01Z</time>
      </trkpt>
      <trkpt lat="43.62715" lon="3.69858">
        <ele>190.5</ele>
        <time>2012-01-22T09:03:05Z</time>
      </trkpt>
      <trkpt lat="43.62712" lon="3.69839">
        <ele>190.5</ele>
        <time>2012-01-22T09:03:09Z</time>
      </trkpt>
      <trkpt lat="43.6271" lon="3.69817">
        <ele>189.5</ele>
        <time>2012-01-22T09:03:13Z</time>
      </trkpt>
      <trkpt lat="43.62709" lon="3.69792">
        <ele>188.6</ele>
        <time>2012-01-22T09:03:17Z</time>
      </trkpt>
      <trkpt lat="43.62707" lon="3.69763">
        <ele>188.9</ele>
        <time>2012-01-22T09:03:21Z</time>
      </trkpt>
      <trkpt lat="43.62707" lon="3.69738">
        <ele>189</ele>
        <time>2012-01-22T09:03:25Z</time>
      </trkpt>
      <trkpt lat="43.62706" lon="3.69713">
        <ele>186.7</ele>
        <time>2012-01-22T09:03:29Z</time>
      </trkpt>
      <trkpt lat="43.62707" lon="3.6969">
        <ele>187</ele>
        <time>2012-01-22T09:03:33Z</time>
      </trkpt>
      <trkpt lat="43.62705" lon="3.69668">
        <ele>186.6</ele>
        <time>2012-01-22T09:03:37Z</time>
      </trkpt>
      <trkpt lat="43.62701" lon="3.69646">
        <ele>186.6</ele>
        <time>2012-01-22T09:03:41Z</time>
      </trkpt>
      <trkpt lat="43.62697" lon="3.69626">
        <ele>185.4</ele>
        <time>2012-01-22T09:03:45Z</time>
      </trkpt>
      <trkpt lat="43.62695" lon="3.69599">
        <ele>184.8</ele>
        <time>2012-01-22T09:03:49Z</time>
      </trkpt>
      <trkpt lat="43.62693" lon="3.69574">
        <ele>183.9</ele>
        <time>2012-01-22T09:03:53Z</time>
      </trkpt>
      <trkpt lat="43.62689" lon="3.69553">
        <ele>183.5</ele>
        <time>2012-01-22T09:03:57Z</time>
      </trkpt>
      <trkpt lat="43.62679" lon="3.69536">
        <ele>182.8</ele>
        <time>2012-01-22T09:04:01Z</time>
      </trkpt>
      <trkpt lat="43.62669" lon="3.69521">
        <ele>183.2</ele>
        <time>2012-01-22T09:04:05Z</time>
      </trkpt>
      <trkpt lat="43.6266" lon="3.69504">
        <ele>183</ele>
        <time>2012-01-22T09:04:09Z</time>
      </trkpt>
      <trkpt lat="43.62652" lon="3.69489">
        <ele>182.4</ele>
        <time>2012-01-22T09:04:13Z</time>
      </trkpt>
      <trkpt lat="43.62647" lon="3.69483">
        <ele>183.3</ele>
        <time>2012-01-22T09:04:16Z</time>
      </trkpt>
      <trkpt lat="43.6264" lon="3.69479">
        <ele>182.7</ele>
        <time>2012-01-22T09:04:21Z</time>
      </trkpt>
      <trkpt lat="43.62634" lon="3.69478">
        <ele>185.8</ele>
        <time>2012-01-22T09:04:24Z</time>
      </trkpt>
      <trkpt lat="43.62634" lon="3.69478">
        <ele>136.7</ele>
        <time>2012-01-22T09:04:35Z</time>
      </trkpt>
      <trkpt lat="43.62634" lon="3.69478">
        <ele>136.7</ele>
        <time>2012-01-22T09:04:50Z</time>
      </trkpt>
      <trkpt lat="43.62627" lon="3.69462">
        <ele>188.4</ele>
        <time>2012-01-22T09:04:53Z</time>
      </trkpt>
      <trkpt lat="43.62623" lon="3.69443">
        <ele>188</ele>
        <time>2012-01-22T09:04:57Z</time>
      </trkpt>
      <trkpt lat="43.6262" lon="3.69424">
        <ele>187.8</ele>
        <time>2012-01-22T09:05:01Z</time>
      </trkpt>
      <trkpt lat="43.62616" lon="3.69402">
        <ele>186</ele>
        <time>2012-01-22T09:05:05Z</time>
      </trkpt>
      <trkpt lat="43.62612" lon="3.69375">
        <ele>185.8</ele>
        <time>2012-01-22T09:05:09Z</time>
      </trkpt>
      <trkpt lat="43.62605" lon="3.6935">
        <ele>185.5</ele>
        <time>2012-01-22T09:05:13Z</time>
      </trkpt>
      <trkpt lat="43.626" lon="3.69323">
        <ele>186.1</ele>
        <time>2012-01-22T09:05:17Z</time>
      </trkpt>
      <trkpt lat="43.62595" lon="3.69299">
        <ele>186.8</ele>
        <time>2012-01-22T09:05:21Z</time>
      </trkpt>
      <trkpt lat="43.62592" lon="3.69275">
        <ele>187.2</ele>
        <time>2012-01-22T09:05:25Z</time>
      </trkpt>
      <trkpt lat="43.62587" lon="3.69247">
        <ele>186.3</ele>
        <time>2012-01-22T09:05:29Z</time>
      </trkpt>
      <trkpt lat="43.62581" lon="3.69223">
        <ele>186.7</ele>
        <time>2012-01-22T09:05:33Z</time>
      </trkpt>
      <trkpt lat="43.62581" lon="3.69194">
        <ele>186.2</ele>
        <time>2012-01-22T09:05:37Z</time>
      </trkpt>
      <trkpt lat="43.62577" lon="3.69166">
        <ele>186.6</ele>
        <time>2012-01-22T09:05:41Z</time>
      </trkpt>
      <trkpt lat="43.62575" lon="3.6914">
        <ele>186.3</ele>
        <time>2012-01-22T09:05:45Z</time>
      </trkpt>
      <trkpt lat="43.62572" lon="3.69113">
        <ele>186</ele>
        <time>2012-01-22T09:05:49Z</time>
      </trkpt>
      <trkpt lat="43.62569" lon="3.69086">
        <ele>185.8</ele>
        <time>2012-01-22T09:05:53Z</time>
      </trkpt>
      <trkpt lat="43.62567" lon="3.69059">
        <ele>183.8</ele>
        <time>2012-01-22T09:05:57Z</time>
      </trkpt>
      <trkpt lat="43.62563" lon="3.69029">
        <ele>181.4</ele>
        <time>2012-01-22T09:06:01Z</time>
      </trkpt>
      <trkpt lat="43.62559" lon="3.69002">
        <ele>180</ele>
        <time>2012-01-22T09:06:05Z</time>
      </trkpt>
      <trkpt lat="43.62555" lon="3.68972">
        <ele>181.6</ele>
        <time>2012-01-22T09:06:09Z</time>
      </trkpt>
      <trkpt lat="43.62551" lon="3.68946">
        <ele>182.4</ele>
        <time>2012-01-22T09:06:13Z</time>
      </trkpt>
      <trkpt lat="43.62548" lon="3.6892">
        <ele>183.1</ele>
        <time>2012-01-22T09:06:17Z</time>
      </trkpt>
      <trkpt lat="43.62545" lon="3.68895">
        <ele>184.1</ele>
        <time>2012-01-22T09:06:21Z</time>
      </trkpt>
      <trkpt lat="43.62541" lon="3.6887">
        <ele>185.4</ele>
        <time>2012-01-22T09:06:25Z</time>
      </trkpt>
      <trkpt lat="43.62539" lon="3.68847">
        <ele>184.6</ele>
        <time>2012-01-22T09:06:29Z</time>
      </trkpt>
      <trkpt lat="43.62537" lon="3.68823">
        <ele>186.6</ele>
        <time>2012-01-22T09:06:33Z</time>
      </trkpt>
      <trkpt lat="43.62534" lon="3.68801">
        <ele>186.8</ele>
        <time>2012-01-22T09:06:37Z</time>
      </trkpt>
      <trkpt lat="43.6253" lon="3.68777">
        <ele>187</ele>
        <time>2012-01-22T09:06:41Z</time>
      </trkpt>
      <trkpt lat="43.62525" lon="3.68754">
        <ele>188</ele>
        <time>2012-01-22T09:06:45Z</time>
      </trkpt>
      <trkpt lat="43.6252" lon="3.68732">
        <ele>188.8</ele>
        <time>2012-01-22T09:06:49Z</time>
      </trkpt>
      <trkpt lat="43.62514" lon="3.68712">
        <ele>188.9</ele>
        <time>2012-01-22T09:06:53Z</time>
      </trkpt>
      <trkpt lat="43.62509" lon="3.68692">
        <ele>189.9</ele>
        <time>2012-01-22T09:06:57Z</time>
      </trkpt>
      <trkpt lat="43.62503" lon="3.68672">
        <ele>190.4</ele>
        <time>2012-01-22T09:07:01Z</time>
      </trkpt>
      <trkpt lat="43.62498" lon="3.68652">
        <ele>191</ele>
        <time>2012-01-22T09:07:05Z</time>
      </trkpt>
      <trkpt lat="43.62494" lon="3.68635">
        <ele>191.2</ele>
        <time>2012-01-22T09:07:09Z</time>
      </trkpt>
      <trkpt lat="43.62489" lon="3.68618">
        <ele>193.1</ele>
        <time>2012-01-22T09:07:13Z</time>
      </trkpt>
      <trkpt lat="43.62485" lon="3.68602">
        <ele>193.7</ele>
        <time>2012-01-22T09:07:17Z</time>
      </trkpt>
      <trkpt lat="43.62481" lon="3.68584">
        <ele>193.4</ele>
        <time>2012-01-22T09:07:21Z</time>
      </trkpt>
      <trkpt lat="43.62476" lon="3.68567">
        <ele>194.5</ele>
        <time>2012-01-22T09:07:25Z</time>
      </trkpt>
      <trkpt lat="43.62471" lon="3.6855">
        <ele>195.5</ele>
        <time>2012-01-22T09:07:29Z</time>
      </trkpt>
      <trkpt lat="43.62467" lon="3.68533">
        <ele>196.6</ele>
        <time>2012-01-22T09:07:33Z</time>
      </trkpt>
      <trkpt lat="43.62463" lon="3.68516">
        <ele>196.7</ele>
        <time>2012-01-22T09:07:37Z</time>
      </trkpt>
      <trkpt lat="43.6246" lon="3.68498">
        <ele>198</ele>
        <time>2012-01-22T09:07:41Z</time>
      </trkpt>
      <trkpt lat="43.62457" lon="3.68481">
        <ele>196.9</ele>
        <time>2012-01-22T09:07:45Z</time>
      </trkpt>
      <trkpt lat="43.62455" lon="3.68462">
        <ele>195.2</ele>
        <time>2012-01-22T09:07:49Z</time>
      </trkpt>
      <trkpt lat="43.62453" lon="3.68442">
        <ele>194</ele>
        <time>2012-01-22T09:07:53Z</time>
      </trkpt>
      <trkpt lat="43.62452" lon="3.68421">
        <ele>194.2</ele>
        <time>2012-01-22T09:07:57Z</time>
      </trkpt>
      <trkpt lat="43.62451" lon="3.68402">
        <ele>196.5</ele>
        <time>2012-01-22T09:08:01Z</time>
      </trkpt>
      <trkpt lat="43.62451" lon="3.68384">
        <ele>195</ele>
        <time>2012-01-22T09:08:05Z</time>
      </trkpt>
      <trkpt lat="43.62452" lon="3.68363">
        <ele>190</ele>
        <time>2012-01-22T09:08:09Z</time>
      </trkpt>
      <trkpt lat="43.62454" lon="3.68345">
        <ele>190.8</ele>
        <time>2012-01-22T09:08:13Z</time>
      </trkpt>
      <trkpt lat="43.62455" lon="3.68336">
        <ele>190.9</ele>
        <time>2012-01-22T09:08:15Z</time>
      </trkpt>
      <trkpt lat="43.62461" lon="3.68309">
        <ele>191.6</ele>
        <time>2012-01-22T09:08:21Z</time>
      </trkpt>
      <trkpt lat="43.62465" lon="3.68289">
        <ele>191.4</ele>
        <time>2012-01-22T09:08:25Z</time>
      </trkpt>
      <trkpt lat="43.62472" lon="3.68268">
        <ele>188.3</ele>
        <time>2012-01-22T09:08:29Z</time>
      </trkpt>
      <trkpt lat="43.62475" lon="3.68258">
        <ele>188.1</ele>
        <time>2012-01-22T09:08:31Z</time>
      </trkpt>
      <trkpt lat="43.62486" lon="3.68229">
        <ele>188.8</ele>
        <time>2012-01-22T09:08:37Z</time>
      </trkpt>
      <trkpt lat="43.62492" lon="3.68209">
        <ele>189.3</ele>
        <time>2012-01-22T09:08:41Z</time>
      </trkpt>
      <trkpt lat="43.62499" lon="3.68187">
        <ele>188.9</ele>
        <time>2012-01-22T09:08:45Z</time>
      </trkpt>
      <trkpt lat="43.62504" lon="3.68166">
        <ele>189.4</ele>
        <time>2012-01-22T09:08:49Z</time>
      </trkpt>
      <trkpt lat="43.6251" lon="3.68146">
        <ele>194.2</ele>
        <time>2012-01-22T09:08:53Z</time>
      </trkpt>
      <trkpt lat="43.62517" lon="3.68125">
        <ele>195.4</ele>
        <time>2012-01-22T09:08:57Z</time>
      </trkpt>
      <trkpt lat="43.62523" lon="3.68104">
        <ele>195.4</ele>
        <time>2012-01-22T09:09:01Z</time>
      </trkpt>
      <trkpt lat="43.62529" lon="3.68081">
        <ele>194.2</ele>
        <time>2012-01-22T09:09:05Z</time>
      </trkpt>
      <trkpt lat="43.62534" lon="3.68058">
        <ele>195</ele>
        <time>2012-01-22T09:09:09Z</time>
      </trkpt>
      <trkpt lat="43.62536" lon="3.68035">
        <ele>194.4</ele>
        <time>2012-01-22T09:09:13Z</time>
      </trkpt>
      <trkpt lat="43.62537" lon="3.68007">
        <ele>193.9</ele>
        <time>2012-01-22T09:09:17Z</time>
      </trkpt>
      <trkpt lat="43.62538" lon="3.67983">
        <ele>192.3</ele>
        <time>2012-01-22T09:09:21Z</time>
      </trkpt>
      <trkpt lat="43.62538" lon="3.67956">
        <ele>190.9</ele>
        <time>2012-01-22T09:09:25Z</time>
      </trkpt>
      <trkpt lat="43.62535" lon="3.67931">
        <ele>192.4</ele>
        <time>2012-01-22T09:09:29Z</time>
      </trkpt>
      <trkpt lat="43.62532" lon="3.67904">
        <ele>190.6</ele>
        <time>2012-01-22T09:09:33Z</time>
      </trkpt>
      <trkpt lat="43.62527" lon="3.67875">
        <ele>190.8</ele>
        <time>2012-01-22T09:09:37Z</time>
      </trkpt>
      <trkpt lat="43.62523" lon="3.67844">
        <ele>190.7</ele>
        <time>2012-01-22T09:09:41Z</time>
      </trkpt>
      <trkpt lat="43.62519" lon="3.67814">
        <ele>191.1</ele>
        <time>2012-01-22T09:09:45Z</time>
      </trkpt>
      <trkpt lat="43.62515" lon="3.67784">
        <ele>191</ele>
        <time>2012-01-22T09:09:49Z</time>
      </trkpt>
      <trkpt lat="43.6251" lon="3.67754">
        <ele>190.3</ele>
        <time>2012-01-22T09:09:53Z</time>
      </trkpt>
      <trkpt lat="43.62508" lon="3.6774">
        <ele>190.4</ele>
        <time>2012-01-22T09:09:55Z</time>
      </trkpt>
      <trkpt lat="43.62501" lon="3.67695">
        <ele>189.6</ele>
        <time>2012-01-22T09:10:01Z</time>
      </trkpt>
      <trkpt lat="43.62498" lon="3.67663">
        <ele>189.9</ele>
        <time>2012-01-22T09:10:05Z</time>
      </trkpt>
      <trkpt lat="43.62494" lon="3.67635">
        <ele>192.1</ele>
        <time>2012-01-22T09:10:09Z</time>
      </trkpt>
      <trkpt lat="43.62489" lon="3.67607">
        <ele>190.1</ele>
        <time>2012-01-22T09:10:13Z</time>
      </trkpt>
      <trkpt lat="43.62484" lon="3.67578">
        <ele>189.7</ele>
        <time>2012-01-22T09:10:17Z</time>
      </trkpt>
      <trkpt lat="43.62479" lon="3.67546">
        <ele>186.8</ele>
        <time>2012-01-22T09:10:21Z</time>
      </trkpt>
      <trkpt lat="43.62474" lon="3.67518">
        <ele>185.2</ele>
        <time>2012-01-22T09:10:25Z</time>
      </trkpt>
      <trkpt lat="43.6247" lon="3.67485">
        <ele>184.6</ele>
        <time>2012-01-22T09:10:29Z</time>
      </trkpt>
      <trkpt lat="43.62468" lon="3.67453">
        <ele>185.5</ele>
        <time>2012-01-22T09:10:33Z</time>
      </trkpt>
      <trkpt lat="43.62467" lon="3.67424">
        <ele>186.4</ele>
        <time>2012-01-22T09:10:37Z</time>
      </trkpt>
      <trkpt lat="43.62468" lon="3.67395">
        <ele>188.4</ele>
        <time>2012-01-22T09:10:41Z</time>
      </trkpt>
      <trkpt lat="43.62471" lon="3.67369">
        <ele>191.4</ele>
        <time>2012-01-22T09:10:45Z</time>
      </trkpt>
      <trkpt lat="43.62475" lon="3.67343">
        <ele>190.6</ele>
        <time>2012-01-22T09:10:49Z</time>
      </trkpt>
      <trkpt lat="43.62478" lon="3.67319">
        <ele>188.6</ele>
        <time>2012-01-22T09:10:53Z</time>
      </trkpt>
      <trkpt lat="43.6248" lon="3.67293">
        <ele>188.9</ele>
        <time>2012-01-22T09:10:57Z</time>
      </trkpt>
      <trkpt lat="43.62484" lon="3.67271">
        <ele>188.2</ele>
        <time>2012-01-22T09:11:01Z</time>
      </trkpt>
      <trkpt lat="43.62487" lon="3.67261">
        <ele>189.1</ele>
        <time>2012-01-22T09:11:03Z</time>
      </trkpt>
      <trkpt lat="43.62492" lon="3.67228">
        <ele>189.5</ele>
        <time>2012-01-22T09:11:09Z</time>
      </trkpt>
      <trkpt lat="43.62495" lon="3.67203">
        <ele>187.1</ele>
        <time>2012-01-22T09:11:13Z</time>
      </trkpt>
      <trkpt lat="43.62498" lon="3.67178">
        <ele>188.4</ele>
        <time>2012-01-22T09:11:17Z</time>
      </trkpt>
      <trkpt lat="43.625" lon="3.67155">
        <ele>188.7</ele>
        <time>2012-01-22T09:11:21Z</time>
      </trkpt>
      <trkpt lat="43.62502" lon="3.67132">
        <ele>186.5</ele>
        <time>2012-01-22T09:11:25Z</time>
      </trkpt>
      <trkpt lat="43.62503" lon="3.67107">
        <ele>187.2</ele>
        <time>2012-01-22T09:11:29Z</time>
      </trkpt>
      <trkpt lat="43.62504" lon="3.67084">
        <ele>187.6</ele>
        <time>2012-01-22T09:11:33Z</time>
      </trkpt>
      <trkpt lat="43.62505" lon="3.67062">
        <ele>188.1</ele>
        <time>2012-01-22T09:11:37Z</time>
      </trkpt>
      <trkpt lat="43.62504" lon="3.67036">
        <ele>188.2</ele>
        <time>2012-01-22T09:11:41Z</time>
      </trkpt>
      <trkpt lat="43.62507" lon="3.67009">
        <ele>188.9</ele>
        <time>2012-01-22T09:11:45Z</time>
      </trkpt>
      <trkpt lat="43.62507" lon="3.66982">
        <ele>187.1</ele>
        <time>2012-01-22T09:11:49Z</time>
      </trkpt>
      <trkpt lat="43.62506" lon="3.66956">
        <ele>186.4</ele>
        <time>2012-01-22T09:11:53Z</time>
      </trkpt>
      <trkpt lat="43.62505" lon="3.66929">
        <ele>184.6</ele>
        <time>2012-01-22T09:11:57Z</time>
      </trkpt>
      <trkpt lat="43.62502" lon="3.66901">
        <ele>184.5</ele>
        <time>2012-01-22T09:12:01Z</time>
      </trkpt>
      <trkpt lat="43.62502" lon="3.66874">
        <ele>180.2</ele>
        <time>2012-01-22T09:12:05Z</time>
      </trkpt>
      <trkpt lat="43.625" lon="3.66848">
        <ele>181.2</ele>
        <time>2012-01-22T09:12:09Z</time>
      </trkpt>
      <trkpt lat="43.62498" lon="3.66823">
        <ele>179.2</ele>
        <time>2012-01-22T09:12:13Z</time>
      </trkpt>
      <trkpt lat="43.62495" lon="3.66796">
        <ele>177.8</ele>
        <time>2012-01-22T09:12:17Z</time>
      </trkpt>
      <trkpt lat="43.62491" lon="3.66768">
        <ele>177.4</ele>
        <time>2012-01-22T09:12:21Z</time>
      </trkpt>
      <trkpt lat="43.62487" lon="3.66741">
        <ele>176.7</ele>
        <time>2012-01-22T09:12:25Z</time>
      </trkpt>
      <trkpt lat="43.62484" lon="3.66717">
        <ele>176.2</ele>
        <time>2012-01-22T09:12:29Z</time>
      </trkpt>
      <trkpt lat="43.62478" lon="3.66692">
        <ele>175.7</ele>
        <time>2012-01-22T09:12:33Z</time>
      </trkpt>
      <trkpt lat="43.62473" lon="3.66666">
        <ele>176.9</ele>
        <time>2012-01-22T09:12:37Z</time>
      </trkpt>
      <trkpt lat="43.6247" lon="3.6664">
        <ele>176</ele>
        <time>2012-01-22T09:12:41Z</time>
      </trkpt>
      <trkpt lat="43.62465" lon="3.66614">
        <ele>176.1</ele>
        <time>2012-01-22T09:12:45Z</time>
      </trkpt>
      <trkpt lat="43.62463" lon="3.66602">
        <ele>176.9</ele>
        <time>2012-01-22T09:12:47Z</time>
      </trkpt>
      <trkpt lat="43.62455" lon="3.66567">
        <ele>177.5</ele>
        <time>2012-01-22T09:12:52Z</time>
      </trkpt>
      <trkpt lat="43.62451" lon="3.66544">
        <ele>177.9</ele>
        <time>2012-01-22T09:12:56Z</time>
      </trkpt>
      <trkpt lat="43.6244" lon="3.66525">
        <ele>176.7</ele>
        <time>2012-01-22T09:13:00Z</time>
      </trkpt>
      <trkpt lat="43.62429" lon="3.66497">
        <ele>175.1</ele>
        <time>2012-01-22T09:13:04Z</time>
      </trkpt>
      <trkpt lat="43.62423" lon="3.6647">
        <ele>171.8</ele>
        <time>2012-01-22T09:13:08Z</time>
      </trkpt>
      <trkpt lat="43.62413" lon="3.66453">
        <ele>170.9</ele>
        <time>2012-01-22T09:13:13Z</time>
      </trkpt>
      <trkpt lat="43.62413" lon="3.66453">
        <ele>131.6</ele>
        <time>2012-01-22T09:13:24Z</time>
      </trkpt>
      <trkpt lat="43.62413" lon="3.66453">
        <ele>131.6</ele>
        <time>2012-01-22T09:13:42Z</time>
      </trkpt>
      <trkpt lat="43.62412" lon="3.66414">
        <ele>173.9</ele>
        <time>2012-01-22T09:13:49Z</time>
      </trkpt>
      <trkpt lat="43.62417" lon="3.66407">
        <ele>176.9</ele>
        <time>2012-01-22T09:13:54Z</time>
      </trkpt>
      <trkpt lat="43.62417" lon="3.66407">
        <ele>130.4</ele>
        <time>2012-01-22T09:14:05Z</time>
      </trkpt>
      <trkpt lat="43.62417" lon="3.66407">
        <ele>130.4</ele>
        <time>2012-01-22T09:14:22Z</time>
      </trkpt>
      <trkpt lat="43.62417" lon="3.66407">
        <ele>130.4</ele>
        <time>2012-01-22T09:14:33Z</time>
      </trkpt>
      <trkpt lat="43.62417" lon="3.66407">
        <ele>130.4</ele>
        <time>2012-01-22T09:14:35Z</time>
      </trkpt>
      <trkpt lat="43.62417" lon="3.66407">
        <ele>130.4</ele>
        <time>2012-01-22T09:14:46Z</time>
      </trkpt>
      <trkpt lat="43.62417" lon="3.66407">
        <ele>130.4</ele>
        <time>2012-01-22T09:14:50Z</time>
      </trkpt>
      <trkpt lat="43.62418" lon="3.66366">
        <ele>190.1</ele>
        <time>2012-01-22T09:15:01Z</time>
      </trkpt>
      <trkpt lat="43.62416" lon="3.66357">
        <ele>188.8</ele>
        <time>2012-01-22T09:15:10Z</time>
      </trkpt>
      <trkpt lat="43.6242" lon="3.6635">
        <ele>186.7</ele>
        <time>2012-01-22T09:15:18Z</time>
      </trkpt>
      <trkpt lat="43.62425" lon="3.66342">
        <ele>186.6</ele>
        <time>2012-01-22T09:15:25Z</time>
      </trkpt>
      <trkpt lat="43.62429" lon="3.66336">
        <ele>187.5</ele>
        <time>2012-01-22T09:15:32Z</time>
      </trkpt>
      <trkpt lat="43.62434" lon="3.66329">
        <ele>188.9</ele>
        <time>2012-01-22T09:15:38Z</time>
      </trkpt>
      <trkpt lat="43.62437" lon="3.66318">
        <ele>189.4</ele>
        <time>2012-01-22T09:15:41Z</time>
      </trkpt>
      <trkpt lat="43.62438" lon="3.66296">
        <ele>190.2</ele>
        <time>2012-01-22T09:15:46Z</time>
      </trkpt>
      <trkpt lat="43.62436" lon="3.66274">
        <ele>190.2</ele>
        <time>2012-01-22T09:15:50Z</time>
      </trkpt>
      <trkpt lat="43.62434" lon="3.66252">
        <ele>191.4</ele>
        <time>2012-01-22T09:15:54Z</time>
      </trkpt>
      <trkpt lat="43.62432" lon="3.6623">
        <ele>191.5</ele>
        <time>2012-01-22T09:15:58Z</time>
      </trkpt>
      <trkpt lat="43.62432" lon="3.66207">
        <ele>191.8</ele>
        <time>2012-01-22T09:16:02Z</time>
      </trkpt>
      <trkpt lat="43.62432" lon="3.66185">
        <ele>191.2</ele>
        <time>2012-01-22T09:16:06Z</time>
      </trkpt>
      <trkpt lat="43.62433" lon="3.66162">
        <ele>190.2</ele>
        <time>2012-01-22T09:16:10Z</time>
      </trkpt>
      <trkpt lat="43.62436" lon="3.6614">
        <ele>189.6</ele>
        <time>2012-01-22T09:16:14Z</time>
      </trkpt>
      <trkpt lat="43.62441" lon="3.66119">
        <ele>189.5</ele>
        <time>2012-01-22T09:16:18Z</time>
      </trkpt>
      <trkpt lat="43.62446" lon="3.66096">
        <ele>187.2</ele>
        <time>2012-01-22T09:16:22Z</time>
      </trkpt>
      <trkpt lat="43.62451" lon="3.66078">
        <ele>184.3</ele>
        <time>2012-01-22T09:16:26Z</time>
      </trkpt>
      <trkpt lat="43.62455" lon="3.66067">
        <ele>185.1</ele>
        <time>2012-01-22T09:16:29Z</time>
      </trkpt>
      <trkpt lat="43.62459" lon="3.66056">
        <ele>184.5</ele>
        <time>2012-01-22T09:16:32Z</time>
      </trkpt>
      <trkpt lat="43.62463" lon="3.66048">
        <ele>183.9</ele>
        <time>2012-01-22T09:16:36Z</time>
      </trkpt>
      <trkpt lat="43.62467" lon="3.66038">
        <ele>184.7</ele>
        <time>2012-01-22T09:16:41Z</time>
      </trkpt>
      <trkpt lat="43.6247" lon="3.66016">
        <ele>186.2</ele>
        <time>2012-01-22T09:16:46Z</time>
      </trkpt>
      <trkpt lat="43.62468" lon="3.65995">
        <ele>187.9</ele>
        <time>2012-01-22T09:16:50Z</time>
      </trkpt>
      <trkpt lat="43.62466" lon="3.65973">
        <ele>188.3</ele>
        <time>2012-01-22T09:16:54Z</time>
      </trkpt>
      <trkpt lat="43.62466" lon="3.65953">
        <ele>189.4</ele>
        <time>2012-01-22T09:16:58Z</time>
      </trkpt>
      <trkpt lat="43.62466" lon="3.65934">
        <ele>189.7</ele>
        <time>2012-01-22T09:17:02Z</time>
      </trkpt>
      <trkpt lat="43.62466" lon="3.65916">
        <ele>191</ele>
        <time>2012-01-22T09:17:06Z</time>
      </trkpt>
      <trkpt lat="43.62465" lon="3.65897">
        <ele>190.5</ele>
        <time>2012-01-22T09:17:10Z</time>
      </trkpt>
      <trkpt lat="43.62464" lon="3.65878">
        <ele>191.5</ele>
        <time>2012-01-22T09:17:14Z</time>
      </trkpt>
      <trkpt lat="43.62462" lon="3.65859">
        <ele>192.2</ele>
        <time>2012-01-22T09:17:18Z</time>
      </trkpt>
      <trkpt lat="43.62462" lon="3.6585">
        <ele>193.6</ele>
        <time>2012-01-22T09:17:20Z</time>
      </trkpt>
      <trkpt lat="43.62462" lon="3.65839">
        <ele>194.5</ele>
        <time>2012-01-22T09:17:23Z</time>
      </trkpt>
      <trkpt lat="43.62462" lon="3.6583">
        <ele>193.1</ele>
        <time>2012-01-22T09:17:27Z</time>
      </trkpt>
      <trkpt lat="43.62457" lon="3.65822">
        <ele>194</ele>
        <time>2012-01-22T09:17:32Z</time>
      </trkpt>
      <trkpt lat="43.62451" lon="3.65815">
        <ele>195.3</ele>
        <time>2012-01-22T09:17:36Z</time>
      </trkpt>
      <trkpt lat="43.62447" lon="3.65808">
        <ele>195.9</ele>
        <time>2012-01-22T09:17:39Z</time>
      </trkpt>
      <trkpt lat="43.62439" lon="3.65804">
        <ele>199.4</ele>
        <time>2012-01-22T09:17:43Z</time>
      </trkpt>
      <trkpt lat="43.62432" lon="3.65807">
        <ele>200.5</ele>
        <time>2012-01-22T09:17:47Z</time>
      </trkpt>
      <trkpt lat="43.62428" lon="3.65815">
        <ele>201.1</ele>
        <time>2012-01-22T09:17:51Z</time>
      </trkpt>
      <trkpt lat="43.62426" lon="3.65825">
        <ele>202.4</ele>
        <time>2012-01-22T09:17:55Z</time>
      </trkpt>
      <trkpt lat="43.62423" lon="3.65835">
        <ele>203.6</ele>
        <time>2012-01-22T09:17:59Z</time>
      </trkpt>
      <trkpt lat="43.62421" lon="3.65845">
        <ele>205.8</ele>
        <time>2012-01-22T09:18:03Z</time>
      </trkpt>
      <trkpt lat="43.62419" lon="3.65854">
        <ele>207.4</ele>
        <time>2012-01-22T09:18:07Z</time>
      </trkpt>
      <trkpt lat="43.62417" lon="3.65864">
        <ele>209.6</ele>
        <time>2012-01-22T09:18:11Z</time>
      </trkpt>
      <trkpt lat="43.62413" lon="3.65873">
        <ele>209.4</ele>
        <time>2012-01-22T09:18:15Z</time>
      </trkpt>
      <trkpt lat="43.62409" lon="3.65881">
        <ele>210.8</ele>
        <time>2012-01-22T09:18:19Z</time>
      </trkpt>
      <trkpt lat="43.62406" lon="3.65889">
        <ele>211.4</ele>
        <time>2012-01-22T09:18:23Z</time>
      </trkpt>
      <trkpt lat="43.624" lon="3.65896">
        <ele>211.9</ele>
        <time>2012-01-22T09:18:27Z</time>
      </trkpt>
      <trkpt lat="43.62394" lon="3.65898">
        <ele>213.2</ele>
        <time>2012-01-22T09:18:31Z</time>
      </trkpt>
      <trkpt lat="43.62387" lon="3.65897">
        <ele>213.8</ele>
        <time>2012-01-22T09:18:35Z</time>
      </trkpt>
      <trkpt lat="43.62381" lon="3.65896">
        <ele>215.5</ele>
        <time>2012-01-22T09:18:39Z</time>
      </trkpt>
      <trkpt lat="43.62373" lon="3.65892">
        <ele>215.9</ele>
        <time>2012-01-22T09:18:43Z</time>
      </trkpt>
      <trkpt lat="43.62367" lon="3.65886">
        <ele>216.1</ele>
        <time>2012-01-22T09:18:47Z</time>
      </trkpt>
      <trkpt lat="43.62363" lon="3.65877">
        <ele>216.5</ele>
        <time>2012-01-22T09:18:52Z</time>
      </trkpt>
      <trkpt lat="43.6236" lon="3.65867">
        <ele>216.2</ele>
        <time>2012-01-22T09:18:57Z</time>
      </trkpt>
      <trkpt lat="43.62355" lon="3.6586">
        <ele>215.6</ele>
        <time>2012-01-22T09:19:01Z</time>
      </trkpt>
      <trkpt lat="43.6235" lon="3.65855">
        <ele>215.1</ele>
        <time>2012-01-22T09:19:05Z</time>
      </trkpt>
      <trkpt lat="43.62343" lon="3.65851">
        <ele>216.1</ele>
        <time>2012-01-22T09:19:09Z</time>
      </trkpt>
      <trkpt lat="43.62336" lon="3.6585">
        <ele>216.5</ele>
        <time>2012-01-22T09:19:13Z</time>
      </trkpt>
      <trkpt lat="43.62328" lon="3.65852">
        <ele>217.6</ele>
        <time>2012-01-22T09:19:17Z</time>
      </trkpt>
      <trkpt lat="43.6232" lon="3.65853">
        <ele>217.1</ele>
        <time>2012-01-22T09:19:21Z</time>
      </trkpt>
      <trkpt lat="43.62313" lon="3.65853">
        <ele>217.7</ele>
        <time>2012-01-22T09:19:25Z</time>
      </trkpt>
      <trkpt lat="43.62305" lon="3.6585">
        <ele>217.3</ele>
        <time>2012-01-22T09:19:29Z</time>
      </trkpt>
      <trkpt lat="43.62298" lon="3.65845">
        <ele>217.7</ele>
        <time>2012-01-22T09:19:32Z</time>
      </trkpt>
      <trkpt lat="43.62292" lon="3.6584">
        <ele>217.7</ele>
        <time>2012-01-22T09:19:35Z</time>
      </trkpt>
      <trkpt lat="43.62286" lon="3.65834">
        <ele>218.5</ele>
        <time>2012-01-22T09:19:39Z</time>
      </trkpt>
      <trkpt lat="43.62275" lon="3.6582">
        <ele>215.9</ele>
        <time>2012-01-22T09:19:46Z</time>
      </trkpt>
      <trkpt lat="43.6227" lon="3.65814">
        <ele>216.6</ele>
        <time>2012-01-22T09:19:49Z</time>
      </trkpt>
      <trkpt lat="43.62264" lon="3.65809">
        <ele>216</ele>
        <time>2012-01-22T09:19:52Z</time>
      </trkpt>
      <trkpt lat="43.62252" lon="3.65799">
        <ele>218.5</ele>
        <time>2012-01-22T09:19:58Z</time>
      </trkpt>
      <trkpt lat="43.62245" lon="3.65794">
        <ele>218.8</ele>
        <time>2012-01-22T09:20:01Z</time>
      </trkpt>
      <trkpt lat="43.62238" lon="3.6579">
        <ele>218.5</ele>
        <time>2012-01-22T09:20:04Z</time>
      </trkpt>
      <trkpt lat="43.62224" lon="3.65781">
        <ele>220.3</ele>
        <time>2012-01-22T09:20:10Z</time>
      </trkpt>
      <trkpt lat="43.62218" lon="3.65777">
        <ele>221</ele>
        <time>2012-01-22T09:20:13Z</time>
      </trkpt>
      <trkpt lat="43.62212" lon="3.65772">
        <ele>222.9</ele>
        <time>2012-01-22T09:20:16Z</time>
      </trkpt>
      <trkpt lat="43.62206" lon="3.65766">
        <ele>223.5</ele>
        <time>2012-01-22T09:20:20Z</time>
      </trkpt>
      <trkpt lat="43.62199" lon="3.65751">
        <ele>223.3</ele>
        <time>2012-01-22T09:20:26Z</time>
      </trkpt>
      <trkpt lat="43.62195" lon="3.65742">
        <ele>225.1</ele>
        <time>2012-01-22T09:20:31Z</time>
      </trkpt>
      <trkpt lat="43.62184" lon="3.65726">
        <ele>225.6</ele>
        <time>2012-01-22T09:20:38Z</time>
      </trkpt>
      <trkpt lat="43.62166" lon="3.6571">
        <ele>225.4</ele>
        <time>2012-01-22T09:20:45Z</time>
      </trkpt>
      <trkpt lat="43.62157" lon="3.65708">
        <ele>225.9</ele>
        <time>2012-01-22T09:20:48Z</time>
      </trkpt>
      <trkpt lat="43.62142" lon="3.65714">
        <ele>228.6</ele>
        <time>2012-01-22T09:20:54Z</time>
      </trkpt>
      <trkpt lat="43.62136" lon="3.65717">
        <ele>230.2</ele>
        <time>2012-01-22T09:20:57Z</time>
      </trkpt>
      <trkpt lat="43.62129" lon="3.65719">
        <ele>231.7</ele>
        <time>2012-01-22T09:21:00Z</time>
      </trkpt>
      <trkpt lat="43.62122" lon="3.65716">
        <ele>234.2</ele>
        <time>2012-01-22T09:21:04Z</time>
      </trkpt>
      <trkpt lat="43.6211" lon="3.65707">
        <ele>234.5</ele>
        <time>2012-01-22T09:21:10Z</time>
      </trkpt>
      <trkpt lat="43.62104" lon="3.65702">
        <ele>236.5</ele>
        <time>2012-01-22T09:21:13Z</time>
      </trkpt>
      <trkpt lat="43.62099" lon="3.65696">
        <ele>237.5</ele>
        <time>2012-01-22T09:21:16Z</time>
      </trkpt>
      <trkpt lat="43.62094" lon="3.65687">
        <ele>242.8</ele>
        <time>2012-01-22T09:21:20Z</time>
      </trkpt>
      <trkpt lat="43.6209" lon="3.65669">
        <ele>245.1</ele>
        <time>2012-01-22T09:21:28Z</time>
      </trkpt>
      <trkpt lat="43.62088" lon="3.6566">
        <ele>243</ele>
        <time>2012-01-22T09:21:32Z</time>
      </trkpt>
      <trkpt lat="43.62087" lon="3.6565">
        <ele>242.2</ele>
        <time>2012-01-22T09:21:36Z</time>
      </trkpt>
      <trkpt lat="43.62084" lon="3.65642">
        <ele>243.3</ele>
        <time>2012-01-22T09:21:40Z</time>
      </trkpt>
      <trkpt lat="43.62081" lon="3.65633">
        <ele>243.9</ele>
        <time>2012-01-22T09:21:44Z</time>
      </trkpt>
      <trkpt lat="43.62078" lon="3.65625">
        <ele>245.2</ele>
        <time>2012-01-22T09:21:48Z</time>
      </trkpt>
      <trkpt lat="43.62074" lon="3.65617">
        <ele>245.1</ele>
        <time>2012-01-22T09:21:52Z</time>
      </trkpt>
      <trkpt lat="43.62072" lon="3.65608">
        <ele>246.9</ele>
        <time>2012-01-22T09:21:56Z</time>
      </trkpt>
      <trkpt lat="43.62069" lon="3.656">
        <ele>247.1</ele>
        <time>2012-01-22T09:22:00Z</time>
      </trkpt>
      <trkpt lat="43.62066" lon="3.65591">
        <ele>247.6</ele>
        <time>2012-01-22T09:22:04Z</time>
      </trkpt>
      <trkpt lat="43.62064" lon="3.6558">
        <ele>248.9</ele>
        <time>2012-01-22T09:22:08Z</time>
      </trkpt>
      <trkpt lat="43.6206" lon="3.6557">
        <ele>250.5</ele>
        <time>2012-01-22T09:22:12Z</time>
      </trkpt>
      <trkpt lat="43.62056" lon="3.65562">
        <ele>250.9</ele>
        <time>2012-01-22T09:22:16Z</time>
      </trkpt>
      <trkpt lat="43.6205" lon="3.65556">
        <ele>252.9</ele>
        <time>2012-01-22T09:22:21Z</time>
      </trkpt>
      <trkpt lat="43.62044" lon="3.65549">
        <ele>254.3</ele>
        <time>2012-01-22T09:22:26Z</time>
      </trkpt>
      <trkpt lat="43.62038" lon="3.65545">
        <ele>253.9</ele>
        <time>2012-01-22T09:22:30Z</time>
      </trkpt>
      <trkpt lat="43.62031" lon="3.65544">
        <ele>254</ele>
        <time>2012-01-22T09:22:34Z</time>
      </trkpt>
      <trkpt lat="43.62025" lon="3.65543">
        <ele>255.9</ele>
        <time>2012-01-22T09:22:39Z</time>
      </trkpt>
      <trkpt lat="43.62018" lon="3.6554">
        <ele>254.6</ele>
        <time>2012-01-22T09:22:44Z</time>
      </trkpt>
      <trkpt lat="43.62011" lon="3.65538">
        <ele>255.6</ele>
        <time>2012-01-22T09:22:50Z</time>
      </trkpt>
      <trkpt lat="43.62004" lon="3.65535">
        <ele>257</ele>
        <time>2012-01-22T09:22:55Z</time>
      </trkpt>
      <trkpt lat="43.61997" lon="3.65533">
        <ele>258</ele>
        <time>2012-01-22T09:23:00Z</time>
      </trkpt>
      <trkpt lat="43.61989" lon="3.65534">
        <ele>258.8</ele>
        <time>2012-01-22T09:23:05Z</time>
      </trkpt>
      <trkpt lat="43.61983" lon="3.65537">
        <ele>261.2</ele>
        <time>2012-01-22T09:23:10Z</time>
      </trkpt>
      <trkpt lat="43.61976" lon="3.65539">
        <ele>262.3</ele>
        <time>2012-01-22T09:23:14Z</time>
      </trkpt>
      <trkpt lat="43.61969" lon="3.65541">
        <ele>261.7</ele>
        <time>2012-01-22T09:23:19Z</time>
      </trkpt>
      <trkpt lat="43.61961" lon="3.65541">
        <ele>262.1</ele>
        <time>2012-01-22T09:23:24Z</time>
      </trkpt>
      <trkpt lat="43.61954" lon="3.65546">
        <ele>263.5</ele>
        <time>2012-01-22T09:23:29Z</time>
      </trkpt>
      <trkpt lat="43.61949" lon="3.65552">
        <ele>264.8</ele>
        <time>2012-01-22T09:23:33Z</time>
      </trkpt>
      <trkpt lat="43.61946" lon="3.6556">
        <ele>266.7</ele>
        <time>2012-01-22T09:23:37Z</time>
      </trkpt>
      <trkpt lat="43.61945" lon="3.6557">
        <ele>266.9</ele>
        <time>2012-01-22T09:23:41Z</time>
      </trkpt>
      <trkpt lat="43.61945" lon="3.65581">
        <ele>268</ele>
        <time>2012-01-22T09:23:45Z</time>
      </trkpt>
      <trkpt lat="43.61945" lon="3.65591">
        <ele>268.3</ele>
        <time>2012-01-22T09:23:49Z</time>
      </trkpt>
      <trkpt lat="43.61945" lon="3.65601">
        <ele>268.3</ele>
        <time>2012-01-22T09:23:53Z</time>
      </trkpt>
      <trkpt lat="43.61945" lon="3.65612">
        <ele>267.8</ele>
        <time>2012-01-22T09:23:57Z</time>
      </trkpt>
      <trkpt lat="43.61945" lon="3.65621">
        <ele>266.9</ele>
        <time>2012-01-22T09:24:01Z</time>
      </trkpt>
      <trkpt lat="43.61945" lon="3.65631">
        <ele>266.2</ele>
        <time>2012-01-22T09:24:05Z</time>
      </trkpt>
      <trkpt lat="43.61945" lon="3.6564">
        <ele>266.3</ele>
        <time>2012-01-22T09:24:09Z</time>
      </trkpt>
      <trkpt lat="43.61947" lon="3.65649">
        <ele>266.8</ele>
        <time>2012-01-22T09:24:14Z</time>
      </trkpt>
      <trkpt lat="43.6195" lon="3.65658">
        <ele>266.9</ele>
        <time>2012-01-22T09:24:19Z</time>
      </trkpt>
      <trkpt lat="43.61949" lon="3.65668">
        <ele>266.7</ele>
        <time>2012-01-22T09:24:25Z</time>
      </trkpt>
      <trkpt lat="43.61944" lon="3.65675">
        <ele>268.7</ele>
        <time>2012-01-22T09:24:32Z</time>
      </trkpt>
      <trkpt lat="43.61939" lon="3.6567">
        <ele>269.3</ele>
        <time>2012-01-22T09:24:36Z</time>
      </trkpt>
      <trkpt lat="43.61932" lon="3.65671">
        <ele>269</ele>
        <time>2012-01-22T09:24:41Z</time>
      </trkpt>
      <trkpt lat="43.61938" lon="3.65678">
        <ele>269.4</ele>
        <time>2012-01-22T09:24:46Z</time>
      </trkpt>
      <trkpt lat="43.61944" lon="3.6568">
        <ele>269.7</ele>
        <time>2012-01-22T09:24:50Z</time>
      </trkpt>
      <trkpt lat="43.6195" lon="3.65678">
        <ele>267.9</ele>
        <time>2012-01-22T09:24:54Z</time>
      </trkpt>
      <trkpt lat="43.6195" lon="3.65669">
        <ele>268.3</ele>
        <time>2012-01-22T09:24:59Z</time>
      </trkpt>
      <trkpt lat="43.61946" lon="3.6566">
        <ele>267.1</ele>
        <time>2012-01-22T09:25:04Z</time>
      </trkpt>
      <trkpt lat="43.61946" lon="3.65649">
        <ele>266.9</ele>
        <time>2012-01-22T09:25:09Z</time>
      </trkpt>
      <trkpt lat="43.61944" lon="3.6564">
        <ele>266.6</ele>
        <time>2012-01-22T09:25:13Z</time>
      </trkpt>
      <trkpt lat="43.61943" lon="3.6563">
        <ele>265.3</ele>
        <time>2012-01-22T09:25:17Z</time>
      </trkpt>
      <trkpt lat="43.61941" lon="3.65619">
        <ele>265</ele>
        <time>2012-01-22T09:25:21Z</time>
      </trkpt>
      <trkpt lat="43.61942" lon="3.65609">
        <ele>265.3</ele>
        <time>2012-01-22T09:25:25Z</time>
      </trkpt>
      <trkpt lat="43.61938" lon="3.656">
        <ele>267</ele>
        <time>2012-01-22T09:25:29Z</time>
      </trkpt>
      <trkpt lat="43.61938" lon="3.65609">
        <ele>268.2</ele>
        <time>2012-01-22T09:25:36Z</time>
      </trkpt>
      <trkpt lat="43.61943" lon="3.65615">
        <ele>268.8</ele>
        <time>2012-01-22T09:25:39Z</time>
      </trkpt>
      <trkpt lat="43.61945" lon="3.65626">
        <ele>269</ele>
        <time>2012-01-22T09:25:43Z</time>
      </trkpt>
      <trkpt lat="43.61946" lon="3.65636">
        <ele>268.8</ele>
        <time>2012-01-22T09:25:47Z</time>
      </trkpt>
      <trkpt lat="43.61946" lon="3.65646">
        <ele>269</ele>
        <time>2012-01-22T09:25:51Z</time>
      </trkpt>
      <trkpt lat="43.61946" lon="3.65656">
        <ele>268.6</ele>
        <time>2012-01-22T09:25:55Z</time>
      </trkpt>
      <trkpt lat="43.61945" lon="3.65665">
        <ele>268.7</ele>
        <time>2012-01-22T09:25:59Z</time>
      </trkpt>
      <trkpt lat="43.61938" lon="3.65669">
        <ele>269.7</ele>
        <time>2012-01-22T09:26:05Z</time>
      </trkpt>
      <trkpt lat="43.61933" lon="3.65664">
        <ele>269</ele>
        <time>2012-01-22T09:26:09Z</time>
      </trkpt>
      <trkpt lat="43.61932" lon="3.65673">
        <ele>268.6</ele>
        <time>2012-01-22T09:26:17Z</time>
      </trkpt>
      <trkpt lat="43.61938" lon="3.65668">
        <ele>269.2</ele>
        <time>2012-01-22T09:26:23Z</time>
      </trkpt>
      <trkpt lat="43.61938" lon="3.65668">
        <ele>213.2</ele>
        <time>2012-01-22T09:26:34Z</time>
      </trkpt>
      <trkpt lat="43.61938" lon="3.65668">
        <ele>213.2</ele>
        <time>2012-01-22T09:28:53Z</time>
      </trkpt>
      <trkpt lat="43.61926" lon="3.65681">
        <ele>271.2</ele>
        <time>2012-01-22T09:28:57Z</time>
      </trkpt>
      <trkpt lat="43.61919" lon="3.65685">
        <ele>271</ele>
        <time>2012-01-22T09:29:00Z</time>
      </trkpt>
      <trkpt lat="43.61911" lon="3.65683">
        <ele>271.7</ele>
        <time>2012-01-22T09:29:04Z</time>
      </trkpt>
      <trkpt lat="43.61906" lon="3.65676">
        <ele>272.5</ele>
        <time>2012-01-22T09:29:07Z</time>
      </trkpt>
      <trkpt lat="43.61902" lon="3.6567">
        <ele>274.4</ele>
        <time>2012-01-22T09:29:10Z</time>
      </trkpt>
      <trkpt lat="43.6189" lon="3.65656">
        <ele>274.6</ele>
        <time>2012-01-22T09:29:16Z</time>
      </trkpt>
      <trkpt lat="43.61883" lon="3.6565">
        <ele>275.1</ele>
        <time>2012-01-22T09:29:19Z</time>
      </trkpt>
      <trkpt lat="43.61869" lon="3.65641">
        <ele>271.5</ele>
        <time>2012-01-22T09:29:25Z</time>
      </trkpt>
      <trkpt lat="43.61869" lon="3.65641">
        <ele>212.4</ele>
        <time>2012-01-22T09:29:36Z</time>
      </trkpt>
      <trkpt lat="43.61869" lon="3.65641">
        <ele>212.4</ele>
        <time>2012-01-22T09:29:45Z</time>
      </trkpt>
      <trkpt lat="43.61879" lon="3.65654">
        <ele>276.7</ele>
        <time>2012-01-22T09:29:48Z</time>
      </trkpt>
      <trkpt lat="43.61879" lon="3.65654">
        <ele>212.1</ele>
        <time>2012-01-22T09:29:59Z</time>
      </trkpt>
      <trkpt lat="43.61879" lon="3.65654">
        <ele>212.1</ele>
        <time>2012-01-22T09:30:17Z</time>
      </trkpt>
      <trkpt lat="43.61879" lon="3.65654">
        <ele>212.1</ele>
        <time>2012-01-22T09:30:28Z</time>
      </trkpt>
      <trkpt lat="43.61879" lon="3.65654">
        <ele>212.1</ele>
        <time>2012-01-22T09:30:31Z</time>
      </trkpt>
      <trkpt lat="43.61879" lon="3.65654">
        <ele>212.1</ele>
        <time>2012-01-22T09:30:42Z</time>
      </trkpt>
      <trkpt lat="43.61879" lon="3.65654">
        <ele>212.1</ele>
        <time>2012-01-22T09:31:38Z</time>
      </trkpt>
      <trkpt lat="43.61879" lon="3.65654">
        <ele>212.1</ele>
        <time>2012-01-22T09:31:49Z</time>
      </trkpt>
      <trkpt lat="43.61879" lon="3.65654">
        <ele>212.1</ele>
        <time>2012-01-22T09:31:50Z</time>
      </trkpt>
      <trkpt lat="43.61879" lon="3.65654">
        <ele>212.1</ele>
        <time>2012-01-22T09:32:01Z</time>
      </trkpt>
      <trkpt lat="43.61879" lon="3.65654">
        <ele>212.1</ele>
        <time>2012-01-22T09:32:03Z</time>
      </trkpt>
      <trkpt lat="43.61874" lon="3.65659">
        <ele>281.6</ele>
        <time>2012-01-22T09:32:07Z</time>
      </trkpt>
      <trkpt lat="43.61886" lon="3.65668">
        <ele>282.5</ele>
        <time>2012-01-22T09:32:15Z</time>
      </trkpt>
      <trkpt lat="43.61891" lon="3.65677">
        <ele>285.2</ele>
        <time>2012-01-22T09:32:19Z</time>
      </trkpt>
      <trkpt lat="43.61903" lon="3.65688">
        <ele>286.3</ele>
        <time>2012-01-22T09:32:26Z</time>
      </trkpt>
      <trkpt lat="43.6191" lon="3.65692">
        <ele>281.4</ele>
        <time>2012-01-22T09:32:29Z</time>
      </trkpt>
      <trkpt lat="43.61917" lon="3.65691">
        <ele>281.2</ele>
        <time>2012-01-22T09:32:32Z</time>
      </trkpt>
      <trkpt lat="43.61922" lon="3.65685">
        <ele>282.7</ele>
        <time>2012-01-22T09:32:35Z</time>
      </trkpt>
      <trkpt lat="43.61928" lon="3.65678">
        <ele>283.1</ele>
        <time>2012-01-22T09:32:39Z</time>
      </trkpt>
      <trkpt lat="43.61934" lon="3.65674">
        <ele>284.7</ele>
        <time>2012-01-22T09:32:44Z</time>
      </trkpt>
      <trkpt lat="43.61941" lon="3.65674">
        <ele>283.1</ele>
        <time>2012-01-22T09:32:50Z</time>
      </trkpt>
      <trkpt lat="43.61946" lon="3.6568">
        <ele>284.3</ele>
        <time>2012-01-22T09:32:53Z</time>
      </trkpt>
      <trkpt lat="43.61949" lon="3.65691">
        <ele>281.3</ele>
        <time>2012-01-22T09:32:56Z</time>
      </trkpt>
      <trkpt lat="43.61952" lon="3.65702">
        <ele>277.6</ele>
        <time>2012-01-22T09:32:59Z</time>
      </trkpt>
      <trkpt lat="43.61954" lon="3.65711">
        <ele>275.3</ele>
        <time>2012-01-22T09:33:03Z</time>
      </trkpt>
      <trkpt lat="43.61956" lon="3.65719">
        <ele>274.3</ele>
        <time>2012-01-22T09:33:07Z</time>
      </trkpt>
      <trkpt lat="43.61955" lon="3.65741">
        <ele>270.2</ele>
        <time>2012-01-22T09:33:14Z</time>
      </trkpt>
      <trkpt lat="43.61953" lon="3.6575">
        <ele>269.6</ele>
        <time>2012-01-22T09:33:17Z</time>
      </trkpt>
      <trkpt lat="43.61947" lon="3.65754">
        <ele>271.6</ele>
        <time>2012-01-22T09:33:22Z</time>
      </trkpt>
      <trkpt lat="43.6194" lon="3.65757">
        <ele>272.5</ele>
        <time>2012-01-22T09:33:26Z</time>
      </trkpt>
      <trkpt lat="43.61917" lon="3.65755">
        <ele>269.6</ele>
        <time>2012-01-22T09:33:30Z</time>
      </trkpt>
      <trkpt lat="43.61894" lon="3.65757">
        <ele>271</ele>
        <time>2012-01-22T09:33:34Z</time>
      </trkpt>
      <trkpt lat="43.61887" lon="3.65764">
        <ele>272.4</ele>
        <time>2012-01-22T09:33:36Z</time>
      </trkpt>
      <trkpt lat="43.61888" lon="3.65785">
        <ele>274.6</ele>
        <time>2012-01-22T09:33:42Z</time>
      </trkpt>
      <trkpt lat="43.61894" lon="3.65794">
        <ele>275</ele>
        <time>2012-01-22T09:33:46Z</time>
      </trkpt>
      <trkpt lat="43.61898" lon="3.65802">
        <ele>275.5</ele>
        <time>2012-01-22T09:33:49Z</time>
      </trkpt>
      <trkpt lat="43.61902" lon="3.65813">
        <ele>276.1</ele>
        <time>2012-01-22T09:33:52Z</time>
      </trkpt>
      <trkpt lat="43.61907" lon="3.65833">
        <ele>276</ele>
        <time>2012-01-22T09:33:58Z</time>
      </trkpt>
      <trkpt lat="43.61909" lon="3.65843">
        <ele>275.4</ele>
        <time>2012-01-22T09:34:01Z</time>
      </trkpt>
      <trkpt lat="43.61911" lon="3.65853">
        <ele>276</ele>
        <time>2012-01-22T09:34:04Z</time>
      </trkpt>
      <trkpt lat="43.61915" lon="3.65872">
        <ele>276.2</ele>
        <time>2012-01-22T09:34:10Z</time>
      </trkpt>
      <trkpt lat="43.61918" lon="3.65881">
        <ele>276.6</ele>
        <time>2012-01-22T09:34:13Z</time>
      </trkpt>
      <trkpt lat="43.6192" lon="3.65891">
        <ele>276</ele>
        <time>2012-01-22T09:34:17Z</time>
      </trkpt>
      <trkpt lat="43.61922" lon="3.65902">
        <ele>277.4</ele>
        <time>2012-01-22T09:34:21Z</time>
      </trkpt>
      <trkpt lat="43.61924" lon="3.65913">
        <ele>278.2</ele>
        <time>2012-01-22T09:34:25Z</time>
      </trkpt>
      <trkpt lat="43.61924" lon="3.65924">
        <ele>278.8</ele>
        <time>2012-01-22T09:34:29Z</time>
      </trkpt>
      <trkpt lat="43.61923" lon="3.65934">
        <ele>279.1</ele>
        <time>2012-01-22T09:34:33Z</time>
      </trkpt>
      <trkpt lat="43.61921" lon="3.65943">
        <ele>279.9</ele>
        <time>2012-01-22T09:34:37Z</time>
      </trkpt>
      <trkpt lat="43.61917" lon="3.65951">
        <ele>280.9</ele>
        <time>2012-01-22T09:34:41Z</time>
      </trkpt>
      <trkpt lat="43.61912" lon="3.65957">
        <ele>282.3</ele>
        <time>2012-01-22T09:34:45Z</time>
      </trkpt>
      <trkpt lat="43.61905" lon="3.65963">
        <ele>284.4</ele>
        <time>2012-01-22T09:34:49Z</time>
      </trkpt>
      <trkpt lat="43.61899" lon="3.65969">
        <ele>285.5</ele>
        <time>2012-01-22T09:34:53Z</time>
      </trkpt>
      <trkpt lat="43.61893" lon="3.65975">
        <ele>285.2</ele>
        <time>2012-01-22T09:34:57Z</time>
      </trkpt>
      <trkpt lat="43.61886" lon="3.65976">
        <ele>285.7</ele>
        <time>2012-01-22T09:35:01Z</time>
      </trkpt>
      <trkpt lat="43.61879" lon="3.65973">
        <ele>285.1</ele>
        <time>2012-01-22T09:35:05Z</time>
      </trkpt>
      <trkpt lat="43.61873" lon="3.65966">
        <ele>286</ele>
        <time>2012-01-22T09:35:09Z</time>
      </trkpt>
      <trkpt lat="43.61869" lon="3.65958">
        <ele>286.2</ele>
        <time>2012-01-22T09:35:12Z</time>
      </trkpt>
      <trkpt lat="43.61861" lon="3.65943">
        <ele>286.5</ele>
        <time>2012-01-22T09:35:18Z</time>
      </trkpt>
      <trkpt lat="43.61857" lon="3.65936">
        <ele>286.7</ele>
        <time>2012-01-22T09:35:21Z</time>
      </trkpt>
      <trkpt lat="43.61853" lon="3.65926">
        <ele>286.1</ele>
        <time>2012-01-22T09:35:25Z</time>
      </trkpt>
      <trkpt lat="43.61849" lon="3.6592">
        <ele>285.7</ele>
        <time>2012-01-22T09:35:28Z</time>
      </trkpt>
      <trkpt lat="43.61844" lon="3.65913">
        <ele>286.2</ele>
        <time>2012-01-22T09:35:31Z</time>
      </trkpt>
      <trkpt lat="43.61838" lon="3.65907">
        <ele>285.7</ele>
        <time>2012-01-22T09:35:35Z</time>
      </trkpt>
      <trkpt lat="43.61824" lon="3.65903">
        <ele>284.2</ele>
        <time>2012-01-22T09:35:42Z</time>
      </trkpt>
      <trkpt lat="43.61817" lon="3.65903">
        <ele>285.6</ele>
        <time>2012-01-22T09:35:45Z</time>
      </trkpt>
      <trkpt lat="43.61809" lon="3.65904">
        <ele>284.4</ele>
        <time>2012-01-22T09:35:49Z</time>
      </trkpt>
      <trkpt lat="43.61801" lon="3.65906">
        <ele>285</ele>
        <time>2012-01-22T09:35:53Z</time>
      </trkpt>
      <trkpt lat="43.61794" lon="3.65906">
        <ele>285.1</ele>
        <time>2012-01-22T09:35:57Z</time>
      </trkpt>
      <trkpt lat="43.61786" lon="3.65906">
        <ele>284.7</ele>
        <time>2012-01-22T09:36:01Z</time>
      </trkpt>
      <trkpt lat="43.61778" lon="3.65909">
        <ele>285.1</ele>
        <time>2012-01-22T09:36:05Z</time>
      </trkpt>
      <trkpt lat="43.61772" lon="3.6591">
        <ele>285.3</ele>
        <time>2012-01-22T09:36:08Z</time>
      </trkpt>
      <trkpt lat="43.61759" lon="3.65913">
        <ele>287.7</ele>
        <time>2012-01-22T09:36:14Z</time>
      </trkpt>
      <trkpt lat="43.61751" lon="3.65914">
        <ele>291.5</ele>
        <time>2012-01-22T09:36:18Z</time>
      </trkpt>
      <trkpt lat="43.61744" lon="3.65915">
        <ele>292.7</ele>
        <time>2012-01-22T09:36:22Z</time>
      </trkpt>
      <trkpt lat="43.61736" lon="3.65914">
        <ele>291.6</ele>
        <time>2012-01-22T09:36:26Z</time>
      </trkpt>
      <trkpt lat="43.61729" lon="3.65911">
        <ele>292.8</ele>
        <time>2012-01-22T09:36:30Z</time>
      </trkpt>
      <trkpt lat="43.61722" lon="3.65905">
        <ele>292.7</ele>
        <time>2012-01-22T09:36:35Z</time>
      </trkpt>
      <trkpt lat="43.61717" lon="3.659">
        <ele>292.3</ele>
        <time>2012-01-22T09:36:39Z</time>
      </trkpt>
      <trkpt lat="43.6171" lon="3.65895">
        <ele>294</ele>
        <time>2012-01-22T09:36:44Z</time>
      </trkpt>
      <trkpt lat="43.61703" lon="3.65893">
        <ele>295.1</ele>
        <time>2012-01-22T09:36:48Z</time>
      </trkpt>
      <trkpt lat="43.61696" lon="3.65892">
        <ele>296.9</ele>
        <time>2012-01-22T09:36:52Z</time>
      </trkpt>
      <trkpt lat="43.6169" lon="3.65892">
        <ele>297.3</ele>
        <time>2012-01-22T09:36:56Z</time>
      </trkpt>
      <trkpt lat="43.61682" lon="3.65892">
        <ele>299.6</ele>
        <time>2012-01-22T09:37:00Z</time>
      </trkpt>
      <trkpt lat="43.61675" lon="3.65894">
        <ele>301</ele>
        <time>2012-01-22T09:37:04Z</time>
      </trkpt>
      <trkpt lat="43.61669" lon="3.65896">
        <ele>301.6</ele>
        <time>2012-01-22T09:37:08Z</time>
      </trkpt>
      <trkpt lat="43.61663" lon="3.65896">
        <ele>302.1</ele>
        <time>2012-01-22T09:37:12Z</time>
      </trkpt>
      <trkpt lat="43.61656" lon="3.65898">
        <ele>303.2</ele>
        <time>2012-01-22T09:37:17Z</time>
      </trkpt>
      <trkpt lat="43.61648" lon="3.659">
        <ele>304.2</ele>
        <time>2012-01-22T09:37:22Z</time>
      </trkpt>
      <trkpt lat="43.61642" lon="3.65902">
        <ele>306.1</ele>
        <time>2012-01-22T09:37:26Z</time>
      </trkpt>
      <trkpt lat="43.61636" lon="3.65906">
        <ele>308.2</ele>
        <time>2012-01-22T09:37:30Z</time>
      </trkpt>
      <trkpt lat="43.6163" lon="3.6591">
        <ele>308.6</ele>
        <time>2012-01-22T09:37:33Z</time>
      </trkpt>
      <trkpt lat="43.61624" lon="3.65915">
        <ele>308.6</ele>
        <time>2012-01-22T09:37:36Z</time>
      </trkpt>
      <trkpt lat="43.61617" lon="3.6592">
        <ele>308.5</ele>
        <time>2012-01-22T09:37:40Z</time>
      </trkpt>
      <trkpt lat="43.61611" lon="3.65925">
        <ele>310.4</ele>
        <time>2012-01-22T09:37:44Z</time>
      </trkpt>
      <trkpt lat="43.61605" lon="3.65932">
        <ele>310.1</ele>
        <time>2012-01-22T09:37:48Z</time>
      </trkpt>
      <trkpt lat="43.61599" lon="3.65938">
        <ele>311</ele>
        <time>2012-01-22T09:37:52Z</time>
      </trkpt>
      <trkpt lat="43.61594" lon="3.65945">
        <ele>311.2</ele>
        <time>2012-01-22T09:37:56Z</time>
      </trkpt>
      <trkpt lat="43.61589" lon="3.65953">
        <ele>312.4</ele>
        <time>2012-01-22T09:38:00Z</time>
      </trkpt>
      <trkpt lat="43.61581" lon="3.65969">
        <ele>311.9</ele>
        <time>2012-01-22T09:38:06Z</time>
      </trkpt>
      <trkpt lat="43.61579" lon="3.65979">
        <ele>312.6</ele>
        <time>2012-01-22T09:38:09Z</time>
      </trkpt>
      <trkpt lat="43.61576" lon="3.65987">
        <ele>313.4</ele>
        <time>2012-01-22T09:38:12Z</time>
      </trkpt>
      <trkpt lat="43.61573" lon="3.65998">
        <ele>313</ele>
        <time>2012-01-22T09:38:16Z</time>
      </trkpt>
      <trkpt lat="43.6157" lon="3.66008">
        <ele>313.6</ele>
        <time>2012-01-22T09:38:19Z</time>
      </trkpt>
      <trkpt lat="43.61568" lon="3.66018">
        <ele>314.3</ele>
        <time>2012-01-22T09:38:23Z</time>
      </trkpt>
      <trkpt lat="43.61566" lon="3.66028">
        <ele>314.4</ele>
        <time>2012-01-22T09:38:27Z</time>
      </trkpt>
      <trkpt lat="43.61564" lon="3.66039">
        <ele>315</ele>
        <time>2012-01-22T09:38:31Z</time>
      </trkpt>
      <trkpt lat="43.6156" lon="3.66057">
        <ele>317.6</ele>
        <time>2012-01-22T09:38:37Z</time>
      </trkpt>
      <trkpt lat="43.61557" lon="3.66067">
        <ele>317.5</ele>
        <time>2012-01-22T09:38:40Z</time>
      </trkpt>
      <trkpt lat="43.61552" lon="3.66087">
        <ele>319.2</ele>
        <time>2012-01-22T09:38:45Z</time>
      </trkpt>
      <trkpt lat="43.61549" lon="3.66104">
        <ele>320.4</ele>
        <time>2012-01-22T09:38:49Z</time>
      </trkpt>
      <trkpt lat="43.61546" lon="3.66122">
        <ele>320.3</ele>
        <time>2012-01-22T09:38:53Z</time>
      </trkpt>
      <trkpt lat="43.61547" lon="3.66145">
        <ele>320.2</ele>
        <time>2012-01-22T09:38:57Z</time>
      </trkpt>
      <trkpt lat="43.61555" lon="3.66168">
        <ele>319.8</ele>
        <time>2012-01-22T09:39:01Z</time>
      </trkpt>
      <trkpt lat="43.61558" lon="3.66176">
        <ele>320</ele>
        <time>2012-01-22T09:39:03Z</time>
      </trkpt>
      <trkpt lat="43.61558" lon="3.66186">
        <ele>319.3</ele>
        <time>2012-01-22T09:39:08Z</time>
      </trkpt>
      <trkpt lat="43.61561" lon="3.66194">
        <ele>320.1</ele>
        <time>2012-01-22T09:39:12Z</time>
      </trkpt>
      <trkpt lat="43.61564" lon="3.66204">
        <ele>319.2</ele>
        <time>2012-01-22T09:39:16Z</time>
      </trkpt>
      <trkpt lat="43.61567" lon="3.66213">
        <ele>318.9</ele>
        <time>2012-01-22T09:39:19Z</time>
      </trkpt>
      <trkpt lat="43.61571" lon="3.66232">
        <ele>317.6</ele>
        <time>2012-01-22T09:39:25Z</time>
      </trkpt>
      <trkpt lat="43.61574" lon="3.66243">
        <ele>318.1</ele>
        <time>2012-01-22T09:39:28Z</time>
      </trkpt>
      <trkpt lat="43.61579" lon="3.66264">
        <ele>318.2</ele>
        <time>2012-01-22T09:39:33Z</time>
      </trkpt>
      <trkpt lat="43.61583" lon="3.66282">
        <ele>317.5</ele>
        <time>2012-01-22T09:39:37Z</time>
      </trkpt>
      <trkpt lat="43.61586" lon="3.66302">
        <ele>317.5</ele>
        <time>2012-01-22T09:39:41Z</time>
      </trkpt>
      <trkpt lat="43.61588" lon="3.66324">
        <ele>315.9</ele>
        <time>2012-01-22T09:39:45Z</time>
      </trkpt>
      <trkpt lat="43.61586" lon="3.66348">
        <ele>314.6</ele>
        <time>2012-01-22T09:39:49Z</time>
      </trkpt>
      <trkpt lat="43.61583" lon="3.66374">
        <ele>314</ele>
        <time>2012-01-22T09:39:53Z</time>
      </trkpt>
      <trkpt lat="43.61575" lon="3.66401">
        <ele>313.3</ele>
        <time>2012-01-22T09:39:57Z</time>
      </trkpt>
      <trkpt lat="43.61565" lon="3.66426">
        <ele>312.8</ele>
        <time>2012-01-22T09:40:01Z</time>
      </trkpt>
      <trkpt lat="43.61554" lon="3.66453">
        <ele>310.2</ele>
        <time>2012-01-22T09:40:05Z</time>
      </trkpt>
      <trkpt lat="43.61545" lon="3.66475">
        <ele>309.7</ele>
        <time>2012-01-22T09:40:08Z</time>
      </trkpt>
      <trkpt lat="43.61529" lon="3.66513">
        <ele>308.7</ele>
        <time>2012-01-22T09:40:13Z</time>
      </trkpt>
      <trkpt lat="43.61515" lon="3.66545">
        <ele>307.4</ele>
        <time>2012-01-22T09:40:17Z</time>
      </trkpt>
      <trkpt lat="43.61496" lon="3.66583">
        <ele>306.1</ele>
        <time>2012-01-22T09:40:22Z</time>
      </trkpt>
      <trkpt lat="43.61485" lon="3.66608">
        <ele>305.1</ele>
        <time>2012-01-22T09:40:25Z</time>
      </trkpt>
      <trkpt lat="43.61468" lon="3.66634">
        <ele>304.2</ele>
        <time>2012-01-22T09:40:29Z</time>
      </trkpt>
      <trkpt lat="43.61445" lon="3.66665">
        <ele>303.7</ele>
        <time>2012-01-22T09:40:34Z</time>
      </trkpt>
      <trkpt lat="43.61432" lon="3.66683">
        <ele>303.7</ele>
        <time>2012-01-22T09:40:37Z</time>
      </trkpt>
      <trkpt lat="43.6142" lon="3.66705">
        <ele>305.8</ele>
        <time>2012-01-22T09:40:41Z</time>
      </trkpt>
      <trkpt lat="43.61413" lon="3.66733">
        <ele>305.8</ele>
        <time>2012-01-22T09:40:45Z</time>
      </trkpt>
      <trkpt lat="43.61404" lon="3.66758">
        <ele>307.6</ele>
        <time>2012-01-22T09:40:49Z</time>
      </trkpt>
      <trkpt lat="43.61393" lon="3.66778">
        <ele>308.9</ele>
        <time>2012-01-22T09:40:53Z</time>
      </trkpt>
      <trkpt lat="43.61383" lon="3.66797">
        <ele>308.6</ele>
        <time>2012-01-22T09:40:57Z</time>
      </trkpt>
      <trkpt lat="43.61376" lon="3.66819">
        <ele>308.5</ele>
        <time>2012-01-22T09:41:01Z</time>
      </trkpt>
      <trkpt lat="43.61363" lon="3.66842">
        <ele>305.8</ele>
        <time>2012-01-22T09:41:05Z</time>
      </trkpt>
      <trkpt lat="43.61338" lon="3.66866">
        <ele>301.3</ele>
        <time>2012-01-22T09:41:10Z</time>
      </trkpt>
      <trkpt lat="43.61307" lon="3.66871">
        <ele>298.7</ele>
        <time>2012-01-22T09:41:14Z</time>
      </trkpt>
      <trkpt lat="43.61271" lon="3.66871">
        <ele>295.8</ele>
        <time>2012-01-22T09:41:18Z</time>
      </trkpt>
      <trkpt lat="43.61245" lon="3.6687">
        <ele>292.2</ele>
        <time>2012-01-22T09:41:22Z</time>
      </trkpt>
      <trkpt lat="43.61227" lon="3.66861">
        <ele>288.9</ele>
        <time>2012-01-22T09:41:26Z</time>
      </trkpt>
      <trkpt lat="43.61217" lon="3.66845">
        <ele>286.2</ele>
        <time>2012-01-22T09:41:30Z</time>
      </trkpt>
      <trkpt lat="43.61211" lon="3.66839">
        <ele>286.6</ele>
        <time>2012-01-22T09:41:33Z</time>
      </trkpt>
      <trkpt lat="43.61205" lon="3.66844">
        <ele>286.3</ele>
        <time>2012-01-22T09:41:36Z</time>
      </trkpt>
      <trkpt lat="43.61202" lon="3.66865">
        <ele>285.5</ele>
        <time>2012-01-22T09:41:42Z</time>
      </trkpt>
      <trkpt lat="43.61208" lon="3.6689">
        <ele>284.3</ele>
        <time>2012-01-22T09:41:46Z</time>
      </trkpt>
      <trkpt lat="43.61216" lon="3.66916">
        <ele>282</ele>
        <time>2012-01-22T09:41:50Z</time>
      </trkpt>
      <trkpt lat="43.61227" lon="3.66936">
        <ele>282.1</ele>
        <time>2012-01-22T09:41:53Z</time>
      </trkpt>
      <trkpt lat="43.61254" lon="3.66964">
        <ele>278.7</ele>
        <time>2012-01-22T09:41:58Z</time>
      </trkpt>
      <trkpt lat="43.61285" lon="3.6699">
        <ele>276.5</ele>
        <time>2012-01-22T09:42:02Z</time>
      </trkpt>
      <trkpt lat="43.61307" lon="3.67009">
        <ele>275</ele>
        <time>2012-01-22T09:42:06Z</time>
      </trkpt>
      <trkpt lat="43.61328" lon="3.67033">
        <ele>271.4</ele>
        <time>2012-01-22T09:42:10Z</time>
      </trkpt>
      <trkpt lat="43.61342" lon="3.67077">
        <ele>267.6</ele>
        <time>2012-01-22T09:42:14Z</time>
      </trkpt>
      <trkpt lat="43.61356" lon="3.67126">
        <ele>264.2</ele>
        <time>2012-01-22T09:42:18Z</time>
      </trkpt>
      <trkpt lat="43.61376" lon="3.67164">
        <ele>262.1</ele>
        <time>2012-01-22T09:42:22Z</time>
      </trkpt>
      <trkpt lat="43.61407" lon="3.67191">
        <ele>259</ele>
        <time>2012-01-22T09:42:26Z</time>
      </trkpt>
      <trkpt lat="43.61438" lon="3.67208">
        <ele>258.4</ele>
        <time>2012-01-22T09:42:30Z</time>
      </trkpt>
      <trkpt lat="43.61462" lon="3.67211">
        <ele>257.1</ele>
        <time>2012-01-22T09:42:34Z</time>
      </trkpt>
      <trkpt lat="43.61467" lon="3.67207">
        <ele>257.1</ele>
        <time>2012-01-22T09:42:36Z</time>
      </trkpt>
      <trkpt lat="43.61474" lon="3.672">
        <ele>257.8</ele>
        <time>2012-01-22T09:42:40Z</time>
      </trkpt>
      <trkpt lat="43.61488" lon="3.67187">
        <ele>255</ele>
        <time>2012-01-22T09:42:46Z</time>
      </trkpt>
      <trkpt lat="43.61493" lon="3.67195">
        <ele>253.8</ele>
        <time>2012-01-22T09:42:49Z</time>
      </trkpt>
      <trkpt lat="43.61491" lon="3.67206">
        <ele>253.2</ele>
        <time>2012-01-22T09:42:52Z</time>
      </trkpt>
      <trkpt lat="43.61485" lon="3.67212">
        <ele>252.4</ele>
        <time>2012-01-22T09:42:56Z</time>
      </trkpt>
      <trkpt lat="43.61484" lon="3.67222">
        <ele>250.5</ele>
        <time>2012-01-22T09:43:01Z</time>
      </trkpt>
      <trkpt lat="43.61484" lon="3.67222">
        <ele>179.7</ele>
        <time>2012-01-22T09:43:12Z</time>
      </trkpt>
      <trkpt lat="43.61484" lon="3.67222">
        <ele>179.7</ele>
        <time>2012-01-22T09:43:34Z</time>
      </trkpt>
      <trkpt lat="43.61462" lon="3.67246">
        <ele>246.9</ele>
        <time>2012-01-22T09:43:39Z</time>
      </trkpt>
      <trkpt lat="43.61435" lon="3.67269">
        <ele>245.8</ele>
        <time>2012-01-22T09:43:44Z</time>
      </trkpt>
      <trkpt lat="43.61408" lon="3.67272">
        <ele>244.3</ele>
        <time>2012-01-22T09:43:48Z</time>
      </trkpt>
      <trkpt lat="43.61388" lon="3.67268">
        <ele>244.7</ele>
        <time>2012-01-22T09:43:51Z</time>
      </trkpt>
      <trkpt lat="43.61359" lon="3.67255">
        <ele>241.7</ele>
        <time>2012-01-22T09:43:56Z</time>
      </trkpt>
      <trkpt lat="43.61334" lon="3.67245">
        <ele>237.8</ele>
        <time>2012-01-22T09:44:00Z</time>
      </trkpt>
      <trkpt lat="43.61302" lon="3.6723">
        <ele>236.3</ele>
        <time>2012-01-22T09:44:04Z</time>
      </trkpt>
      <trkpt lat="43.61272" lon="3.67224">
        <ele>237.3</ele>
        <time>2012-01-22T09:44:08Z</time>
      </trkpt>
      <trkpt lat="43.6126" lon="3.67232">
        <ele>234.3</ele>
        <time>2012-01-22T09:44:11Z</time>
      </trkpt>
      <trkpt lat="43.61267" lon="3.67256">
        <ele>231.2</ele>
        <time>2012-01-22T09:44:15Z</time>
      </trkpt>
      <trkpt lat="43.61283" lon="3.67286">
        <ele>229.7</ele>
        <time>2012-01-22T09:44:19Z</time>
      </trkpt>
      <trkpt lat="43.61292" lon="3.67311">
        <ele>228.8</ele>
        <time>2012-01-22T09:44:24Z</time>
      </trkpt>
      <trkpt lat="43.61289" lon="3.67343">
        <ele>226.3</ele>
        <time>2012-01-22T09:44:28Z</time>
      </trkpt>
      <trkpt lat="43.61282" lon="3.67386">
        <ele>222.9</ele>
        <time>2012-01-22T09:44:32Z</time>
      </trkpt>
      <trkpt lat="43.61282" lon="3.67404">
        <ele>222.4</ele>
        <time>2012-01-22T09:44:35Z</time>
      </trkpt>
      <trkpt lat="43.61282" lon="3.67404">
        <ele>153.2</ele>
        <time>2012-01-22T09:44:46Z</time>
      </trkpt>
      <trkpt lat="43.61282" lon="3.67404">
        <ele>153.2</ele>
        <time>2012-01-22T09:44:51Z</time>
      </trkpt>
      <trkpt lat="43.61282" lon="3.67424">
        <ele>221.1</ele>
        <time>2012-01-22T09:44:53Z</time>
      </trkpt>
      <trkpt lat="43.61282" lon="3.67437">
        <ele>219.9</ele>
        <time>2012-01-22T09:44:55Z</time>
      </trkpt>
      <trkpt lat="43.61278" lon="3.67476">
        <ele>216.8</ele>
        <time>2012-01-22T09:45:00Z</time>
      </trkpt>
      <trkpt lat="43.61274" lon="3.67499">
        <ele>212.4</ele>
        <time>2012-01-22T09:45:04Z</time>
      </trkpt>
      <trkpt lat="43.61269" lon="3.6752">
        <ele>212.8</ele>
        <time>2012-01-22T09:45:08Z</time>
      </trkpt>
      <trkpt lat="43.61269" lon="3.6753">
        <ele>212.8</ele>
        <time>2012-01-22T09:45:12Z</time>
      </trkpt>
      <trkpt lat="43.61263" lon="3.67537">
        <ele>211.9</ele>
        <time>2012-01-22T09:45:16Z</time>
      </trkpt>
      <trkpt lat="43.61251" lon="3.67527">
        <ele>210.2</ele>
        <time>2012-01-22T09:45:21Z</time>
      </trkpt>
      <trkpt lat="43.61243" lon="3.6751">
        <ele>210</ele>
        <time>2012-01-22T09:45:24Z</time>
      </trkpt>
      <trkpt lat="43.61217" lon="3.67515">
        <ele>207.5</ele>
        <time>2012-01-22T09:45:29Z</time>
      </trkpt>
      <trkpt lat="43.61196" lon="3.67527">
        <ele>204.9</ele>
        <time>2012-01-22T09:45:33Z</time>
      </trkpt>
      <trkpt lat="43.61176" lon="3.6751">
        <ele>202.7</ele>
        <time>2012-01-22T09:45:37Z</time>
      </trkpt>
      <trkpt lat="43.61159" lon="3.67484">
        <ele>202.1</ele>
        <time>2012-01-22T09:45:41Z</time>
      </trkpt>
      <trkpt lat="43.61141" lon="3.67452">
        <ele>199.9</ele>
        <time>2012-01-22T09:45:45Z</time>
      </trkpt>
      <trkpt lat="43.61134" lon="3.67421">
        <ele>201</ele>
        <time>2012-01-22T09:45:49Z</time>
      </trkpt>
      <trkpt lat="43.61126" lon="3.67418">
        <ele>200.5</ele>
        <time>2012-01-22T09:45:51Z</time>
      </trkpt>
      <trkpt lat="43.61116" lon="3.67438">
        <ele>198.6</ele>
        <time>2012-01-22T09:45:57Z</time>
      </trkpt>
      <trkpt lat="43.61114" lon="3.67451">
        <ele>199.7</ele>
        <time>2012-01-22T09:46:00Z</time>
      </trkpt>
      <trkpt lat="43.61111" lon="3.67463">
        <ele>199.5</ele>
        <time>2012-01-22T09:46:03Z</time>
      </trkpt>
      <trkpt lat="43.6111" lon="3.67486">
        <ele>201.9</ele>
        <time>2012-01-22T09:46:09Z</time>
      </trkpt>
      <trkpt lat="43.61111" lon="3.67499">
        <ele>202.3</ele>
        <time>2012-01-22T09:46:12Z</time>
      </trkpt>
      <trkpt lat="43.61115" lon="3.67519">
        <ele>202.3</ele>
        <time>2012-01-22T09:46:17Z</time>
      </trkpt>
      <trkpt lat="43.61118" lon="3.67529">
        <ele>202.3</ele>
        <time>2012-01-22T09:46:20Z</time>
      </trkpt>
      <trkpt lat="43.6112" lon="3.67539">
        <ele>203.6</ele>
        <time>2012-01-22T09:46:23Z</time>
      </trkpt>
      <trkpt lat="43.61123" lon="3.67559">
        <ele>203.2</ele>
        <time>2012-01-22T09:46:29Z</time>
      </trkpt>
      <trkpt lat="43.61125" lon="3.67569">
        <ele>202.1</ele>
        <time>2012-01-22T09:46:32Z</time>
      </trkpt>
      <trkpt lat="43.61126" lon="3.67578">
        <ele>203.9</ele>
        <time>2012-01-22T09:46:35Z</time>
      </trkpt>
      <trkpt lat="43.61128" lon="3.67597">
        <ele>206.3</ele>
        <time>2012-01-22T09:46:41Z</time>
      </trkpt>
      <trkpt lat="43.6113" lon="3.67606">
        <ele>207.7</ele>
        <time>2012-01-22T09:46:44Z</time>
      </trkpt>
      <trkpt lat="43.6113" lon="3.67616">
        <ele>207</ele>
        <time>2012-01-22T09:46:47Z</time>
      </trkpt>
      <trkpt lat="43.61131" lon="3.67636">
        <ele>207</ele>
        <time>2012-01-22T09:46:53Z</time>
      </trkpt>
      <trkpt lat="43.61131" lon="3.67648">
        <ele>206.7</ele>
        <time>2012-01-22T09:46:57Z</time>
      </trkpt>
      <trkpt lat="43.61131" lon="3.67658">
        <ele>207.1</ele>
        <time>2012-01-22T09:47:00Z</time>
      </trkpt>
      <trkpt lat="43.61131" lon="3.67669">
        <ele>208</ele>
        <time>2012-01-22T09:47:03Z</time>
      </trkpt>
      <trkpt lat="43.61128" lon="3.67689">
        <ele>208.1</ele>
        <time>2012-01-22T09:47:09Z</time>
      </trkpt>
      <trkpt lat="43.61128" lon="3.67698">
        <ele>208.4</ele>
        <time>2012-01-22T09:47:12Z</time>
      </trkpt>
      <trkpt lat="43.61127" lon="3.67707">
        <ele>207.6</ele>
        <time>2012-01-22T09:47:15Z</time>
      </trkpt>
      <trkpt lat="43.61119" lon="3.67723">
        <ele>208.5</ele>
        <time>2012-01-22T09:47:21Z</time>
      </trkpt>
      <trkpt lat="43.61116" lon="3.67731">
        <ele>207.4</ele>
        <time>2012-01-22T09:47:24Z</time>
      </trkpt>
      <trkpt lat="43.61116" lon="3.67742">
        <ele>206.8</ele>
        <time>2012-01-22T09:47:27Z</time>
      </trkpt>
      <trkpt lat="43.61118" lon="3.67764">
        <ele>205.2</ele>
        <time>2012-01-22T09:47:32Z</time>
      </trkpt>
      <trkpt lat="43.61119" lon="3.67784">
        <ele>206.3</ele>
        <time>2012-01-22T09:47:36Z</time>
      </trkpt>
      <trkpt lat="43.61121" lon="3.67803">
        <ele>205.3</ele>
        <time>2012-01-22T09:47:40Z</time>
      </trkpt>
      <trkpt lat="43.61124" lon="3.67823">
        <ele>206.1</ele>
        <time>2012-01-22T09:47:45Z</time>
      </trkpt>
      <trkpt lat="43.61124" lon="3.67835">
        <ele>206.2</ele>
        <time>2012-01-22T09:47:48Z</time>
      </trkpt>
      <trkpt lat="43.61121" lon="3.67853">
        <ele>206.9</ele>
        <time>2012-01-22T09:47:52Z</time>
      </trkpt>
      <trkpt lat="43.61116" lon="3.67871">
        <ele>206</ele>
        <time>2012-01-22T09:47:56Z</time>
      </trkpt>
      <trkpt lat="43.61109" lon="3.6789">
        <ele>206</ele>
        <time>2012-01-22T09:48:00Z</time>
      </trkpt>
      <trkpt lat="43.61099" lon="3.67906">
        <ele>206.2</ele>
        <time>2012-01-22T09:48:04Z</time>
      </trkpt>
      <trkpt lat="43.61091" lon="3.67927">
        <ele>205.5</ele>
        <time>2012-01-22T09:48:08Z</time>
      </trkpt>
      <trkpt lat="43.61084" lon="3.67946">
        <ele>203.8</ele>
        <time>2012-01-22T09:48:12Z</time>
      </trkpt>
      <trkpt lat="43.61081" lon="3.67969">
        <ele>201.8</ele>
        <time>2012-01-22T09:48:16Z</time>
      </trkpt>
      <trkpt lat="43.61084" lon="3.67995">
        <ele>200</ele>
        <time>2012-01-22T09:48:20Z</time>
      </trkpt>
      <trkpt lat="43.6108" lon="3.6802">
        <ele>197.4</ele>
        <time>2012-01-22T09:48:24Z</time>
      </trkpt>
      <trkpt lat="43.61076" lon="3.68046">
        <ele>196.5</ele>
        <time>2012-01-22T09:48:28Z</time>
      </trkpt>
      <trkpt lat="43.61076" lon="3.68055">
        <ele>196.7</ele>
        <time>2012-01-22T09:48:32Z</time>
      </trkpt>
      <trkpt lat="43.61076" lon="3.68055">
        <ele>140</ele>
        <time>2012-01-22T09:48:43Z</time>
      </trkpt>
      <trkpt lat="43.61076" lon="3.68055">
        <ele>140</ele>
        <time>2012-01-22T09:48:48Z</time>
      </trkpt>
      <trkpt lat="43.61064" lon="3.68078">
        <ele>196</ele>
        <time>2012-01-22T09:48:53Z</time>
      </trkpt>
      <trkpt lat="43.61054" lon="3.68093">
        <ele>195.5</ele>
        <time>2012-01-22T09:48:57Z</time>
      </trkpt>
      <trkpt lat="43.61041" lon="3.68107">
        <ele>195.4</ele>
        <time>2012-01-22T09:49:01Z</time>
      </trkpt>
      <trkpt lat="43.61033" lon="3.68127">
        <ele>196</ele>
        <time>2012-01-22T09:49:05Z</time>
      </trkpt>
      <trkpt lat="43.6103" lon="3.68149">
        <ele>195.1</ele>
        <time>2012-01-22T09:49:09Z</time>
      </trkpt>
      <trkpt lat="43.61021" lon="3.6817">
        <ele>196.2</ele>
        <time>2012-01-22T09:49:13Z</time>
      </trkpt>
      <trkpt lat="43.6101" lon="3.68191">
        <ele>193.4</ele>
        <time>2012-01-22T09:49:17Z</time>
      </trkpt>
      <trkpt lat="43.60997" lon="3.68213">
        <ele>193.8</ele>
        <time>2012-01-22T09:49:21Z</time>
      </trkpt>
      <trkpt lat="43.60984" lon="3.68234">
        <ele>192</ele>
        <time>2012-01-22T09:49:25Z</time>
      </trkpt>
      <trkpt lat="43.60977" lon="3.68253">
        <ele>191.8</ele>
        <time>2012-01-22T09:49:30Z</time>
      </trkpt>
      <trkpt lat="43.6097" lon="3.68273">
        <ele>189.5</ele>
        <time>2012-01-22T09:49:34Z</time>
      </trkpt>
      <trkpt lat="43.60967" lon="3.68285">
        <ele>189.2</ele>
        <time>2012-01-22T09:49:36Z</time>
      </trkpt>
      <trkpt lat="43.60959" lon="3.68303">
        <ele>190.8</ele>
        <time>2012-01-22T09:49:42Z</time>
      </trkpt>
      <trkpt lat="43.60954" lon="3.68311">
        <ele>189.3</ele>
        <time>2012-01-22T09:49:49Z</time>
      </trkpt>
      <trkpt lat="43.60953" lon="3.68322">
        <ele>188.5</ele>
        <time>2012-01-22T09:49:53Z</time>
      </trkpt>
      <trkpt lat="43.60949" lon="3.68332">
        <ele>185.9</ele>
        <time>2012-01-22T09:49:56Z</time>
      </trkpt>
      <trkpt lat="43.60937" lon="3.6835">
        <ele>185.7</ele>
        <time>2012-01-22T09:50:02Z</time>
      </trkpt>
      <trkpt lat="43.60931" lon="3.68356">
        <ele>185.2</ele>
        <time>2012-01-22T09:50:05Z</time>
      </trkpt>
      <trkpt lat="43.6093" lon="3.68364">
        <ele>185.7</ele>
        <time>2012-01-22T09:50:08Z</time>
      </trkpt>
      <trkpt lat="43.60934" lon="3.68373">
        <ele>185.9</ele>
        <time>2012-01-22T09:50:11Z</time>
      </trkpt>
      <trkpt lat="43.60934" lon="3.68373">
        <ele>119.8</ele>
        <time>2012-01-22T09:50:23Z</time>
      </trkpt>
      <trkpt lat="43.60934" lon="3.68373">
        <ele>119.8</ele>
        <time>2012-01-22T09:50:52Z</time>
      </trkpt>
      <trkpt lat="43.60934" lon="3.68373">
        <ele>119.8</ele>
        <time>2012-01-22T09:51:04Z</time>
      </trkpt>
      <trkpt lat="43.60934" lon="3.68373">
        <ele>119.8</ele>
        <time>2012-01-22T09:51:17Z</time>
      </trkpt>
      <trkpt lat="43.60934" lon="3.68373">
        <ele>119.8</ele>
        <time>2012-01-22T09:51:29Z</time>
      </trkpt>
      <trkpt lat="43.60934" lon="3.68373">
        <ele>119.8</ele>
        <time>2012-01-22T09:51:31Z</time>
      </trkpt>
      <trkpt lat="43.60943" lon="3.68347">
        <ele>191.7</ele>
        <time>2012-01-22T09:51:37Z</time>
      </trkpt>
      <trkpt lat="43.60948" lon="3.6834">
        <ele>191.6</ele>
        <time>2012-01-22T09:51:41Z</time>
      </trkpt>
      <trkpt lat="43.60953" lon="3.68332">
        <ele>192.3</ele>
        <time>2012-01-22T09:51:45Z</time>
      </trkpt>
      <trkpt lat="43.60954" lon="3.68322">
        <ele>193.8</ele>
        <time>2012-01-22T09:51:49Z</time>
      </trkpt>
      <trkpt lat="43.60955" lon="3.68313">
        <ele>194.2</ele>
        <time>2012-01-22T09:51:53Z</time>
      </trkpt>
      <trkpt lat="43.60955" lon="3.68313">
        <ele>124.9</ele>
        <time>2012-01-22T09:52:05Z</time>
      </trkpt>
      <trkpt lat="43.60955" lon="3.68313">
        <ele>124.9</ele>
        <time>2012-01-22T09:52:17Z</time>
      </trkpt>
      <trkpt lat="43.60958" lon="3.68296">
        <ele>197.2</ele>
        <time>2012-01-22T09:52:24Z</time>
      </trkpt>
      <trkpt lat="43.60963" lon="3.6829">
        <ele>198.6</ele>
        <time>2012-01-22T09:52:35Z</time>
      </trkpt>
      <trkpt lat="43.60965" lon="3.6828">
        <ele>197.3</ele>
        <time>2012-01-22T09:52:44Z</time>
      </trkpt>
      <trkpt lat="43.60966" lon="3.6827">
        <ele>197.7</ele>
        <time>2012-01-22T09:52:48Z</time>
      </trkpt>
      <trkpt lat="43.60968" lon="3.68261">
        <ele>198.6</ele>
        <time>2012-01-22T09:52:52Z</time>
      </trkpt>
      <trkpt lat="43.60972" lon="3.68252">
        <ele>201.3</ele>
        <time>2012-01-22T09:52:57Z</time>
      </trkpt>
      <trkpt lat="43.60975" lon="3.68244">
        <ele>200</ele>
        <time>2012-01-22T09:53:01Z</time>
      </trkpt>
      <trkpt lat="43.60979" lon="3.68236">
        <ele>199</ele>
        <time>2012-01-22T09:53:05Z</time>
      </trkpt>
      <trkpt lat="43.60984" lon="3.68228">
        <ele>196.3</ele>
        <time>2012-01-22T09:53:10Z</time>
      </trkpt>
      <trkpt lat="43.60989" lon="3.68221">
        <ele>195.7</ele>
        <time>2012-01-22T09:53:14Z</time>
      </trkpt>
      <trkpt lat="43.60993" lon="3.68214">
        <ele>197.1</ele>
        <time>2012-01-22T09:53:18Z</time>
      </trkpt>
      <trkpt lat="43.60997" lon="3.68205">
        <ele>197.3</ele>
        <time>2012-01-22T09:53:23Z</time>
      </trkpt>
      <trkpt lat="43.61001" lon="3.68196">
        <ele>198</ele>
        <time>2012-01-22T09:53:27Z</time>
      </trkpt>
      <trkpt lat="43.61001" lon="3.68196">
        <ele>134</ele>
        <time>2012-01-22T09:55:37Z</time>
      </trkpt>
      <trkpt lat="43.61001" lon="3.68196">
        <ele>134</ele>
        <time>2012-01-22T09:55:59Z</time>
      </trkpt>
      <trkpt lat="43.61155" lon="3.68394">
        <ele>167.4</ele>
        <time>2012-01-22T09:56:05Z</time>
      </trkpt>
      <trkpt lat="43.61154" lon="3.68404">
        <ele>166.2</ele>
        <time>2012-01-22T09:56:08Z</time>
      </trkpt>
      <trkpt lat="43.61151" lon="3.68414">
        <ele>166.7</ele>
        <time>2012-01-22T09:56:11Z</time>
      </trkpt>
      <trkpt lat="43.61147" lon="3.68438">
        <ele>167.4</ele>
        <time>2012-01-22T09:56:17Z</time>
      </trkpt>
      <trkpt lat="43.61143" lon="3.68455">
        <ele>167.9</ele>
        <time>2012-01-22T09:56:21Z</time>
      </trkpt>
      <trkpt lat="43.61135" lon="3.68469">
        <ele>168.2</ele>
        <time>2012-01-22T09:56:25Z</time>
      </trkpt>
      <trkpt lat="43.61125" lon="3.68481">
        <ele>169.2</ele>
        <time>2012-01-22T09:56:29Z</time>
      </trkpt>
      <trkpt lat="43.61113" lon="3.68492">
        <ele>170.9</ele>
        <time>2012-01-22T09:56:33Z</time>
      </trkpt>
      <trkpt lat="43.61102" lon="3.68503">
        <ele>171.1</ele>
        <time>2012-01-22T09:56:37Z</time>
      </trkpt>
      <trkpt lat="43.61094" lon="3.68509">
        <ele>170.8</ele>
        <time>2012-01-22T09:56:40Z</time>
      </trkpt>
      <trkpt lat="43.61081" lon="3.68518">
        <ele>171.7</ele>
        <time>2012-01-22T09:56:44Z</time>
      </trkpt>
      <trkpt lat="43.61067" lon="3.68527">
        <ele>171.8</ele>
        <time>2012-01-22T09:56:48Z</time>
      </trkpt>
      <trkpt lat="43.61052" lon="3.68532">
        <ele>172.4</ele>
        <time>2012-01-22T09:56:52Z</time>
      </trkpt>
      <trkpt lat="43.61037" lon="3.68533">
        <ele>171.7</ele>
        <time>2012-01-22T09:56:56Z</time>
      </trkpt>
      <trkpt lat="43.61023" lon="3.68529">
        <ele>170.7</ele>
        <time>2012-01-22T09:57:00Z</time>
      </trkpt>
      <trkpt lat="43.61007" lon="3.68527">
        <ele>170</ele>
        <time>2012-01-22T09:57:04Z</time>
      </trkpt>
      <trkpt lat="43.60991" lon="3.68525">
        <ele>169.8</ele>
        <time>2012-01-22T09:57:08Z</time>
      </trkpt>
      <trkpt lat="43.60972" lon="3.68526">
        <ele>169.2</ele>
        <time>2012-01-22T09:57:12Z</time>
      </trkpt>
      <trkpt lat="43.60956" lon="3.68527">
        <ele>168.4</ele>
        <time>2012-01-22T09:57:16Z</time>
      </trkpt>
      <trkpt lat="43.60938" lon="3.68527">
        <ele>166.1</ele>
        <time>2012-01-22T09:57:20Z</time>
      </trkpt>
      <trkpt lat="43.60921" lon="3.6853">
        <ele>164.2</ele>
        <time>2012-01-22T09:57:24Z</time>
      </trkpt>
      <trkpt lat="43.60904" lon="3.68533">
        <ele>163.5</ele>
        <time>2012-01-22T09:57:28Z</time>
      </trkpt>
      <trkpt lat="43.60887" lon="3.68533">
        <ele>163.3</ele>
        <time>2012-01-22T09:57:32Z</time>
      </trkpt>
      <trkpt lat="43.60879" lon="3.68534">
        <ele>164.6</ele>
        <time>2012-01-22T09:57:35Z</time>
      </trkpt>
      <trkpt lat="43.60865" lon="3.68533">
        <ele>163.9</ele>
        <time>2012-01-22T09:57:40Z</time>
      </trkpt>
      <trkpt lat="43.6085" lon="3.68531">
        <ele>164.2</ele>
        <time>2012-01-22T09:57:44Z</time>
      </trkpt>
      <trkpt lat="43.60835" lon="3.68529">
        <ele>165.1</ele>
        <time>2012-01-22T09:57:48Z</time>
      </trkpt>
      <trkpt lat="43.60819" lon="3.68527">
        <ele>164.9</ele>
        <time>2012-01-22T09:57:52Z</time>
      </trkpt>
      <trkpt lat="43.60801" lon="3.68527">
        <ele>165</ele>
        <time>2012-01-22T09:57:56Z</time>
      </trkpt>
      <trkpt lat="43.60783" lon="3.68525">
        <ele>164.7</ele>
        <time>2012-01-22T09:58:00Z</time>
      </trkpt>
      <trkpt lat="43.60765" lon="3.68522">
        <ele>164.9</ele>
        <time>2012-01-22T09:58:04Z</time>
      </trkpt>
      <trkpt lat="43.60747" lon="3.6852">
        <ele>164.2</ele>
        <time>2012-01-22T09:58:08Z</time>
      </trkpt>
      <trkpt lat="43.6073" lon="3.68521">
        <ele>163.9</ele>
        <time>2012-01-22T09:58:12Z</time>
      </trkpt>
      <trkpt lat="43.60713" lon="3.68522">
        <ele>165.2</ele>
        <time>2012-01-22T09:58:16Z</time>
      </trkpt>
      <trkpt lat="43.60696" lon="3.68523">
        <ele>164.3</ele>
        <time>2012-01-22T09:58:21Z</time>
      </trkpt>
      <trkpt lat="43.60688" lon="3.68523">
        <ele>163.1</ele>
        <time>2012-01-22T09:58:24Z</time>
      </trkpt>
      <trkpt lat="43.60672" lon="3.68527">
        <ele>161.8</ele>
        <time>2012-01-22T09:58:29Z</time>
      </trkpt>
      <trkpt lat="43.60659" lon="3.68528">
        <ele>161.9</ele>
        <time>2012-01-22T09:58:33Z</time>
      </trkpt>
      <trkpt lat="43.60652" lon="3.68531">
        <ele>163</ele>
        <time>2012-01-22T09:58:35Z</time>
      </trkpt>
      <trkpt lat="43.60638" lon="3.6854">
        <ele>162.5</ele>
        <time>2012-01-22T09:58:41Z</time>
      </trkpt>
      <trkpt lat="43.60632" lon="3.68544">
        <ele>162.3</ele>
        <time>2012-01-22T09:58:44Z</time>
      </trkpt>
      <trkpt lat="43.60625" lon="3.68546">
        <ele>163</ele>
        <time>2012-01-22T09:58:47Z</time>
      </trkpt>
      <trkpt lat="43.60608" lon="3.68549">
        <ele>162.7</ele>
        <time>2012-01-22T09:58:53Z</time>
      </trkpt>
      <trkpt lat="43.606" lon="3.68549">
        <ele>161.9</ele>
        <time>2012-01-22T09:58:56Z</time>
      </trkpt>
      <trkpt lat="43.60591" lon="3.68548">
        <ele>160.7</ele>
        <time>2012-01-22T09:58:59Z</time>
      </trkpt>
      <trkpt lat="43.60574" lon="3.6855">
        <ele>162.7</ele>
        <time>2012-01-22T09:59:05Z</time>
      </trkpt>
      <trkpt lat="43.60566" lon="3.68551">
        <ele>163.5</ele>
        <time>2012-01-22T09:59:08Z</time>
      </trkpt>
      <trkpt lat="43.60557" lon="3.68553">
        <ele>163.1</ele>
        <time>2012-01-22T09:59:11Z</time>
      </trkpt>
      <trkpt lat="43.60541" lon="3.68559">
        <ele>164.1</ele>
        <time>2012-01-22T09:59:17Z</time>
      </trkpt>
      <trkpt lat="43.60532" lon="3.68561">
        <ele>165.2</ele>
        <time>2012-01-22T09:59:20Z</time>
      </trkpt>
      <trkpt lat="43.60523" lon="3.68564">
        <ele>165.1</ele>
        <time>2012-01-22T09:59:23Z</time>
      </trkpt>
      <trkpt lat="43.6051" lon="3.68583">
        <ele>164.4</ele>
        <time>2012-01-22T09:59:29Z</time>
      </trkpt>
      <trkpt lat="43.60505" lon="3.68593">
        <ele>164.1</ele>
        <time>2012-01-22T09:59:32Z</time>
      </trkpt>
      <trkpt lat="43.60496" lon="3.6861">
        <ele>163.6</ele>
        <time>2012-01-22T09:59:37Z</time>
      </trkpt>
      <trkpt lat="43.60492" lon="3.68619">
        <ele>163.5</ele>
        <time>2012-01-22T09:59:40Z</time>
      </trkpt>
      <trkpt lat="43.60492" lon="3.68619">
        <ele>102.5</ele>
        <time>2012-01-22T09:59:52Z</time>
      </trkpt>
      <trkpt lat="43.6043" lon="3.68691">
        <ele>166.7</ele>
        <time>2012-01-22T10:02:34Z</time>
      </trkpt>
      <trkpt lat="43.60423" lon="3.68709">
        <ele>165.8</ele>
        <time>2012-01-22T10:02:38Z</time>
      </trkpt>
      <trkpt lat="43.60417" lon="3.68726">
        <ele>165.5</ele>
        <time>2012-01-22T10:02:42Z</time>
      </trkpt>
      <trkpt lat="43.60412" lon="3.68746">
        <ele>164.5</ele>
        <time>2012-01-22T10:02:47Z</time>
      </trkpt>
      <trkpt lat="43.60408" lon="3.68757">
        <ele>166</ele>
        <time>2012-01-22T10:02:51Z</time>
      </trkpt>
      <trkpt lat="43.60402" lon="3.68778">
        <ele>164.6</ele>
        <time>2012-01-22T10:02:55Z</time>
      </trkpt>
      <trkpt lat="43.60397" lon="3.68798">
        <ele>164.9</ele>
        <time>2012-01-22T10:02:59Z</time>
      </trkpt>
      <trkpt lat="43.60391" lon="3.68818">
        <ele>166.3</ele>
        <time>2012-01-22T10:03:03Z</time>
      </trkpt>
      <trkpt lat="43.60385" lon="3.68839">
        <ele>165.2</ele>
        <time>2012-01-22T10:03:07Z</time>
      </trkpt>
      <trkpt lat="43.60381" lon="3.68859">
        <ele>166.2</ele>
        <time>2012-01-22T10:03:11Z</time>
      </trkpt>
      <trkpt lat="43.60378" lon="3.68878">
        <ele>167.8</ele>
        <time>2012-01-22T10:03:15Z</time>
      </trkpt>
      <trkpt lat="43.60377" lon="3.68888">
        <ele>167.6</ele>
        <time>2012-01-22T10:03:17Z</time>
      </trkpt>
      <trkpt lat="43.6037" lon="3.68907">
        <ele>168.7</ele>
        <time>2012-01-22T10:03:22Z</time>
      </trkpt>
      <trkpt lat="43.60366" lon="3.68914">
        <ele>169.8</ele>
        <time>2012-01-22T10:03:25Z</time>
      </trkpt>
      <trkpt lat="43.60363" lon="3.68924">
        <ele>172.3</ele>
        <time>2012-01-22T10:03:29Z</time>
      </trkpt>
      <trkpt lat="43.60346" lon="3.68835">
        <ele>180</ele>
        <time>2012-01-22T10:04:35Z</time>
      </trkpt>
      <trkpt lat="43.60344" lon="3.68827">
        <ele>180.8</ele>
        <time>2012-01-22T10:04:39Z</time>
      </trkpt>
      <trkpt lat="43.60342" lon="3.68818">
        <ele>183.6</ele>
        <time>2012-01-22T10:04:44Z</time>
      </trkpt>
      <trkpt lat="43.60345" lon="3.68809">
        <ele>187.3</ele>
        <time>2012-01-22T10:04:49Z</time>
      </trkpt>
      <trkpt lat="43.60348" lon="3.68799">
        <ele>187.5</ele>
        <time>2012-01-22T10:04:53Z</time>
      </trkpt>
      <trkpt lat="43.60353" lon="3.68791">
        <ele>188</ele>
        <time>2012-01-22T10:04:57Z</time>
      </trkpt>
      <trkpt lat="43.60359" lon="3.68784">
        <ele>187.2</ele>
        <time>2012-01-22T10:05:01Z</time>
      </trkpt>
      <trkpt lat="43.60365" lon="3.68776">
        <ele>186.3</ele>
        <time>2012-01-22T10:05:05Z</time>
      </trkpt>
      <trkpt lat="43.60373" lon="3.6876">
        <ele>186.6</ele>
        <time>2012-01-22T10:05:11Z</time>
      </trkpt>
      <trkpt lat="43.60378" lon="3.68751">
        <ele>188.6</ele>
        <time>2012-01-22T10:05:15Z</time>
      </trkpt>
      <trkpt lat="43.60382" lon="3.68742">
        <ele>187.7</ele>
        <time>2012-01-22T10:05:19Z</time>
      </trkpt>
      <trkpt lat="43.60386" lon="3.68734">
        <ele>187.6</ele>
        <time>2012-01-22T10:05:22Z</time>
      </trkpt>
      <trkpt lat="43.60389" lon="3.68725">
        <ele>188.4</ele>
        <time>2012-01-22T10:05:26Z</time>
      </trkpt>
      <trkpt lat="43.6039" lon="3.68714">
        <ele>188.9</ele>
        <time>2012-01-22T10:05:30Z</time>
      </trkpt>
      <trkpt lat="43.60389" lon="3.68705">
        <ele>187.6</ele>
        <time>2012-01-22T10:05:34Z</time>
      </trkpt>
      <trkpt lat="43.6039" lon="3.68696">
        <ele>187.8</ele>
        <time>2012-01-22T10:05:38Z</time>
      </trkpt>
      <trkpt lat="43.6039" lon="3.68685">
        <ele>187.4</ele>
        <time>2012-01-22T10:05:42Z</time>
      </trkpt>
      <trkpt lat="43.60391" lon="3.68675">
        <ele>186.9</ele>
        <time>2012-01-22T10:05:46Z</time>
      </trkpt>
      <trkpt lat="43.60392" lon="3.68665">
        <ele>187.1</ele>
        <time>2012-01-22T10:05:50Z</time>
      </trkpt>
      <trkpt lat="43.60392" lon="3.68655">
        <ele>185.3</ele>
        <time>2012-01-22T10:05:54Z</time>
      </trkpt>
      <trkpt lat="43.60391" lon="3.68646">
        <ele>185.3</ele>
        <time>2012-01-22T10:05:58Z</time>
      </trkpt>
      <trkpt lat="43.6039" lon="3.68636">
        <ele>186.5</ele>
        <time>2012-01-22T10:06:03Z</time>
      </trkpt>
      <trkpt lat="43.60386" lon="3.68627">
        <ele>188.3</ele>
        <time>2012-01-22T10:06:07Z</time>
      </trkpt>
      <trkpt lat="43.60383" lon="3.68619">
        <ele>188.1</ele>
        <time>2012-01-22T10:06:11Z</time>
      </trkpt>
      <trkpt lat="43.6038" lon="3.68612">
        <ele>188.7</ele>
        <time>2012-01-22T10:06:15Z</time>
      </trkpt>
      <trkpt lat="43.60374" lon="3.68605">
        <ele>188.2</ele>
        <time>2012-01-22T10:06:20Z</time>
      </trkpt>
      <trkpt lat="43.60369" lon="3.68599">
        <ele>188.2</ele>
        <time>2012-01-22T10:06:25Z</time>
      </trkpt>
      <trkpt lat="43.60364" lon="3.68592">
        <ele>188.6</ele>
        <time>2012-01-22T10:06:29Z</time>
      </trkpt>
      <trkpt lat="43.60361" lon="3.68584">
        <ele>190.5</ele>
        <time>2012-01-22T10:06:33Z</time>
      </trkpt>
      <trkpt lat="43.60357" lon="3.68577">
        <ele>191</ele>
        <time>2012-01-22T10:06:37Z</time>
      </trkpt>
      <trkpt lat="43.60353" lon="3.68569">
        <ele>190.2</ele>
        <time>2012-01-22T10:06:41Z</time>
      </trkpt>
      <trkpt lat="43.6035" lon="3.68561">
        <ele>189.4</ele>
        <time>2012-01-22T10:06:45Z</time>
      </trkpt>
      <trkpt lat="43.60346" lon="3.68553">
        <ele>189.2</ele>
        <time>2012-01-22T10:06:49Z</time>
      </trkpt>
      <trkpt lat="43.60343" lon="3.68544">
        <ele>189.4</ele>
        <time>2012-01-22T10:06:53Z</time>
      </trkpt>
      <trkpt lat="43.60339" lon="3.68537">
        <ele>190.7</ele>
        <time>2012-01-22T10:06:57Z</time>
      </trkpt>
      <trkpt lat="43.60336" lon="3.6853">
        <ele>191.2</ele>
        <time>2012-01-22T10:07:01Z</time>
      </trkpt>
      <trkpt lat="43.60331" lon="3.68521">
        <ele>192.6</ele>
        <time>2012-01-22T10:07:06Z</time>
      </trkpt>
      <trkpt lat="43.60327" lon="3.68511">
        <ele>194</ele>
        <time>2012-01-22T10:07:11Z</time>
      </trkpt>
      <trkpt lat="43.60323" lon="3.68502">
        <ele>193.7</ele>
        <time>2012-01-22T10:07:15Z</time>
      </trkpt>
      <trkpt lat="43.60318" lon="3.68496">
        <ele>194.7</ele>
        <time>2012-01-22T10:07:19Z</time>
      </trkpt>
      <trkpt lat="43.60312" lon="3.68491">
        <ele>195.6</ele>
        <time>2012-01-22T10:07:23Z</time>
      </trkpt>
      <trkpt lat="43.60306" lon="3.68487">
        <ele>197.1</ele>
        <time>2012-01-22T10:07:27Z</time>
      </trkpt>
      <trkpt lat="43.603" lon="3.68483">
        <ele>197.1</ele>
        <time>2012-01-22T10:07:32Z</time>
      </trkpt>
      <trkpt lat="43.60293" lon="3.68481">
        <ele>197.5</ele>
        <time>2012-01-22T10:07:36Z</time>
      </trkpt>
      <trkpt lat="43.60286" lon="3.68482">
        <ele>198.3</ele>
        <time>2012-01-22T10:07:41Z</time>
      </trkpt>
      <trkpt lat="43.60286" lon="3.68482">
        <ele>137.3</ele>
        <time>2012-01-22T10:07:53Z</time>
      </trkpt>
      <trkpt lat="43.60286" lon="3.68482">
        <ele>137.3</ele>
        <time>2012-01-22T10:09:06Z</time>
      </trkpt>
      <trkpt lat="43.60287" lon="3.685">
        <ele>197.1</ele>
        <time>2012-01-22T10:09:12Z</time>
      </trkpt>
      <trkpt lat="43.60289" lon="3.68508">
        <ele>196.6</ele>
        <time>2012-01-22T10:09:18Z</time>
      </trkpt>
      <trkpt lat="43.60289" lon="3.68508">
        <ele>137.9</ele>
        <time>2012-01-22T10:09:29Z</time>
      </trkpt>
      <trkpt lat="43.60289" lon="3.68508">
        <ele>137.9</ele>
        <time>2012-01-22T10:09:34Z</time>
      </trkpt>
      <trkpt lat="43.60292" lon="3.68536">
        <ele>199.5</ele>
        <time>2012-01-22T10:09:39Z</time>
      </trkpt>
      <trkpt lat="43.60291" lon="3.68556">
        <ele>201</ele>
        <time>2012-01-22T10:09:43Z</time>
      </trkpt>
      <trkpt lat="43.60284" lon="3.68575">
        <ele>199.4</ele>
        <time>2012-01-22T10:09:47Z</time>
      </trkpt>
      <trkpt lat="43.60273" lon="3.68591">
        <ele>199.3</ele>
        <time>2012-01-22T10:09:51Z</time>
      </trkpt>
      <trkpt lat="43.60259" lon="3.68592">
        <ele>198.5</ele>
        <time>2012-01-22T10:09:55Z</time>
      </trkpt>
      <trkpt lat="43.60244" lon="3.68579">
        <ele>199.9</ele>
        <time>2012-01-22T10:09:59Z</time>
      </trkpt>
      <trkpt lat="43.6023" lon="3.6857">
        <ele>198.7</ele>
        <time>2012-01-22T10:10:03Z</time>
      </trkpt>
      <trkpt lat="43.60215" lon="3.68572">
        <ele>198.4</ele>
        <time>2012-01-22T10:10:07Z</time>
      </trkpt>
      <trkpt lat="43.602" lon="3.68576">
        <ele>198.4</ele>
        <time>2012-01-22T10:10:11Z</time>
      </trkpt>
      <trkpt lat="43.60193" lon="3.68577">
        <ele>197.9</ele>
        <time>2012-01-22T10:10:13Z</time>
      </trkpt>
      <trkpt lat="43.60186" lon="3.68579">
        <ele>198.1</ele>
        <time>2012-01-22T10:10:15Z</time>
      </trkpt>
      <trkpt lat="43.60173" lon="3.68591">
        <ele>201.2</ele>
        <time>2012-01-22T10:10:22Z</time>
      </trkpt>
      <trkpt lat="43.60167" lon="3.68601">
        <ele>199.7</ele>
        <time>2012-01-22T10:10:25Z</time>
      </trkpt>
      <trkpt lat="43.60156" lon="3.68617">
        <ele>200</ele>
        <time>2012-01-22T10:10:29Z</time>
      </trkpt>
      <trkpt lat="43.60145" lon="3.6863">
        <ele>198.4</ele>
        <time>2012-01-22T10:10:33Z</time>
      </trkpt>
      <trkpt lat="43.60129" lon="3.68639">
        <ele>199.8</ele>
        <time>2012-01-22T10:10:37Z</time>
      </trkpt>
      <trkpt lat="43.60112" lon="3.6864">
        <ele>201.3</ele>
        <time>2012-01-22T10:10:41Z</time>
      </trkpt>
      <trkpt lat="43.60097" lon="3.68641">
        <ele>201.7</ele>
        <time>2012-01-22T10:10:45Z</time>
      </trkpt>
      <trkpt lat="43.60083" lon="3.6864">
        <ele>202.1</ele>
        <time>2012-01-22T10:10:49Z</time>
      </trkpt>
      <trkpt lat="43.60069" lon="3.6864">
        <ele>202.8</ele>
        <time>2012-01-22T10:10:53Z</time>
      </trkpt>
      <trkpt lat="43.60053" lon="3.68645">
        <ele>202.1</ele>
        <time>2012-01-22T10:10:58Z</time>
      </trkpt>
      <trkpt lat="43.60048" lon="3.6865">
        <ele>201.4</ele>
        <time>2012-01-22T10:11:03Z</time>
      </trkpt>
      <trkpt lat="43.60048" lon="3.6865">
        <ele>139.4</ele>
        <time>2012-01-22T10:11:15Z</time>
      </trkpt>
      <trkpt lat="43.60048" lon="3.6865">
        <ele>139.4</ele>
        <time>2012-01-22T10:11:36Z</time>
      </trkpt>
      <trkpt lat="43.60034" lon="3.68659">
        <ele>205.8</ele>
        <time>2012-01-22T10:11:41Z</time>
      </trkpt>
      <trkpt lat="43.60027" lon="3.68661">
        <ele>206.2</ele>
        <time>2012-01-22T10:11:45Z</time>
      </trkpt>
      <trkpt lat="43.60021" lon="3.68663">
        <ele>208.6</ele>
        <time>2012-01-22T10:11:49Z</time>
      </trkpt>
      <trkpt lat="43.60014" lon="3.68665">
        <ele>210.6</ele>
        <time>2012-01-22T10:11:54Z</time>
      </trkpt>
      <trkpt lat="43.60007" lon="3.68667">
        <ele>212</ele>
        <time>2012-01-22T10:11:59Z</time>
      </trkpt>
      <trkpt lat="43.60007" lon="3.68667">
        <ele>146.8</ele>
        <time>2012-01-22T10:12:11Z</time>
      </trkpt>
      <trkpt lat="43.60007" lon="3.68667">
        <ele>146.8</ele>
        <time>2012-01-22T10:12:12Z</time>
      </trkpt>
      <trkpt lat="43.59994" lon="3.68666">
        <ele>217</ele>
        <time>2012-01-22T10:12:23Z</time>
      </trkpt>
      <trkpt lat="43.59987" lon="3.68664">
        <ele>216.8</ele>
        <time>2012-01-22T10:12:30Z</time>
      </trkpt>
      <trkpt lat="43.59983" lon="3.68672">
        <ele>219.8</ele>
        <time>2012-01-22T10:12:40Z</time>
      </trkpt>
      <trkpt lat="43.59981" lon="3.68681">
        <ele>218.6</ele>
        <time>2012-01-22T10:12:44Z</time>
      </trkpt>
      <trkpt lat="43.59979" lon="3.68692">
        <ele>219.3</ele>
        <time>2012-01-22T10:12:48Z</time>
      </trkpt>
      <trkpt lat="43.59976" lon="3.68701">
        <ele>220.8</ele>
        <time>2012-01-22T10:12:52Z</time>
      </trkpt>
      <trkpt lat="43.59972" lon="3.68711">
        <ele>220.4</ele>
        <time>2012-01-22T10:12:56Z</time>
      </trkpt>
      <trkpt lat="43.59968" lon="3.6872">
        <ele>221.9</ele>
        <time>2012-01-22T10:13:00Z</time>
      </trkpt>
      <trkpt lat="43.59963" lon="3.68728">
        <ele>223.8</ele>
        <time>2012-01-22T10:13:04Z</time>
      </trkpt>
      <trkpt lat="43.59957" lon="3.68734">
        <ele>225.2</ele>
        <time>2012-01-22T10:13:08Z</time>
      </trkpt>
      <trkpt lat="43.59953" lon="3.68742">
        <ele>225.9</ele>
        <time>2012-01-22T10:13:12Z</time>
      </trkpt>
      <trkpt lat="43.59948" lon="3.6875">
        <ele>225.5</ele>
        <time>2012-01-22T10:13:16Z</time>
      </trkpt>
      <trkpt lat="43.59941" lon="3.68756">
        <ele>226</ele>
        <time>2012-01-22T10:13:20Z</time>
      </trkpt>
      <trkpt lat="43.59935" lon="3.68761">
        <ele>225.7</ele>
        <time>2012-01-22T10:13:24Z</time>
      </trkpt>
      <trkpt lat="43.59928" lon="3.68766">
        <ele>226.3</ele>
        <time>2012-01-22T10:13:28Z</time>
      </trkpt>
      <trkpt lat="43.59921" lon="3.68772">
        <ele>227.2</ele>
        <time>2012-01-22T10:13:32Z</time>
      </trkpt>
      <trkpt lat="43.59909" lon="3.6878">
        <ele>227</ele>
        <time>2012-01-22T10:13:38Z</time>
      </trkpt>
      <trkpt lat="43.59904" lon="3.68786">
        <ele>227</ele>
        <time>2012-01-22T10:13:41Z</time>
      </trkpt>
      <trkpt lat="43.59897" lon="3.68793">
        <ele>226.6</ele>
        <time>2012-01-22T10:13:44Z</time>
      </trkpt>
      <trkpt lat="43.59882" lon="3.68806">
        <ele>226.2</ele>
        <time>2012-01-22T10:13:50Z</time>
      </trkpt>
      <trkpt lat="43.59868" lon="3.68807">
        <ele>225.8</ele>
        <time>2012-01-22T10:13:57Z</time>
      </trkpt>
      <trkpt lat="43.59861" lon="3.68811">
        <ele>225.2</ele>
        <time>2012-01-22T10:14:00Z</time>
      </trkpt>
      <trkpt lat="43.59845" lon="3.68814">
        <ele>223.9</ele>
        <time>2012-01-22T10:14:05Z</time>
      </trkpt>
      <trkpt lat="43.59837" lon="3.68814">
        <ele>223.9</ele>
        <time>2012-01-22T10:14:08Z</time>
      </trkpt>
      <trkpt lat="43.5982" lon="3.68805">
        <ele>222.9</ele>
        <time>2012-01-22T10:14:14Z</time>
      </trkpt>
      <trkpt lat="43.59805" lon="3.68793">
        <ele>221.2</ele>
        <time>2012-01-22T10:14:18Z</time>
      </trkpt>
      <trkpt lat="43.59789" lon="3.68781">
        <ele>220</ele>
        <time>2012-01-22T10:14:22Z</time>
      </trkpt>
      <trkpt lat="43.59771" lon="3.68772">
        <ele>218.6</ele>
        <time>2012-01-22T10:14:26Z</time>
      </trkpt>
      <trkpt lat="43.59762" lon="3.68765">
        <ele>218</ele>
        <time>2012-01-22T10:14:28Z</time>
      </trkpt>
      <trkpt lat="43.59755" lon="3.68759">
        <ele>219.1</ele>
        <time>2012-01-22T10:14:30Z</time>
      </trkpt>
      <trkpt lat="43.59755" lon="3.68759">
        <ele>157.2</ele>
        <time>2012-01-22T10:14:42Z</time>
      </trkpt>
      <trkpt lat="43.59755" lon="3.68759">
        <ele>157.2</ele>
        <time>2012-01-22T10:14:43Z</time>
      </trkpt>
      <trkpt lat="43.59742" lon="3.6876">
        <ele>221.6</ele>
        <time>2012-01-22T10:14:49Z</time>
      </trkpt>
      <trkpt lat="43.59735" lon="3.68763">
        <ele>224.1</ele>
        <time>2012-01-22T10:14:55Z</time>
      </trkpt>
      <trkpt lat="43.59729" lon="3.68765">
        <ele>225.9</ele>
        <time>2012-01-22T10:15:02Z</time>
      </trkpt>
      <trkpt lat="43.59729" lon="3.68765">
        <ele>159.4</ele>
        <time>2012-01-22T10:15:13Z</time>
      </trkpt>
      <trkpt lat="43.59729" lon="3.68765">
        <ele>159.4</ele>
        <time>2012-01-22T10:15:15Z</time>
      </trkpt>
      <trkpt lat="43.59715" lon="3.68772">
        <ele>227.8</ele>
        <time>2012-01-22T10:15:18Z</time>
      </trkpt>
      <trkpt lat="43.59707" lon="3.68773">
        <ele>228</ele>
        <time>2012-01-22T10:15:22Z</time>
      </trkpt>
      <trkpt lat="43.59701" lon="3.68771">
        <ele>227.8</ele>
        <time>2012-01-22T10:15:26Z</time>
      </trkpt>
      <trkpt lat="43.59701" lon="3.68771">
        <ele>162.9</ele>
        <time>2012-01-22T10:15:37Z</time>
      </trkpt>
      <trkpt lat="43.59701" lon="3.68771">
        <ele>162.9</ele>
        <time>2012-01-22T10:15:58Z</time>
      </trkpt>
      <trkpt lat="43.59689" lon="3.6878">
        <ele>227.5</ele>
        <time>2012-01-22T10:16:01Z</time>
      </trkpt>
      <trkpt lat="43.59671" lon="3.68784">
        <ele>227.8</ele>
        <time>2012-01-22T10:16:07Z</time>
      </trkpt>
      <trkpt lat="43.59662" lon="3.68783">
        <ele>226.5</ele>
        <time>2012-01-22T10:16:10Z</time>
      </trkpt>
      <trkpt lat="43.5965" lon="3.68776">
        <ele>227.3</ele>
        <time>2012-01-22T10:16:14Z</time>
      </trkpt>
      <trkpt lat="43.59643" lon="3.68769">
        <ele>228.6</ele>
        <time>2012-01-22T10:16:17Z</time>
      </trkpt>
      <trkpt lat="43.5963" lon="3.68759">
        <ele>229.9</ele>
        <time>2012-01-22T10:16:23Z</time>
      </trkpt>
      <trkpt lat="43.59623" lon="3.68754">
        <ele>229.5</ele>
        <time>2012-01-22T10:16:27Z</time>
      </trkpt>
      <trkpt lat="43.59617" lon="3.6875">
        <ele>230.8</ele>
        <time>2012-01-22T10:16:31Z</time>
      </trkpt>
      <trkpt lat="43.59612" lon="3.68746">
        <ele>229.3</ele>
        <time>2012-01-22T10:16:34Z</time>
      </trkpt>
      <trkpt lat="43.59606" lon="3.68741">
        <ele>231.8</ele>
        <time>2012-01-22T10:16:37Z</time>
      </trkpt>
      <trkpt lat="43.59593" lon="3.68733">
        <ele>234.6</ele>
        <time>2012-01-22T10:16:43Z</time>
      </trkpt>
      <trkpt lat="43.59586" lon="3.68731">
        <ele>234.4</ele>
        <time>2012-01-22T10:16:47Z</time>
      </trkpt>
      <trkpt lat="43.59578" lon="3.6873">
        <ele>237.1</ele>
        <time>2012-01-22T10:16:51Z</time>
      </trkpt>
      <trkpt lat="43.59572" lon="3.68727">
        <ele>237.7</ele>
        <time>2012-01-22T10:16:55Z</time>
      </trkpt>
      <trkpt lat="43.59566" lon="3.68723">
        <ele>239.1</ele>
        <time>2012-01-22T10:17:00Z</time>
      </trkpt>
      <trkpt lat="43.5956" lon="3.68719">
        <ele>246.4</ele>
        <time>2012-01-22T10:17:06Z</time>
      </trkpt>
      <trkpt lat="43.59554" lon="3.68717">
        <ele>249.4</ele>
        <time>2012-01-22T10:17:11Z</time>
      </trkpt>
      <trkpt lat="43.59548" lon="3.68711">
        <ele>247.5</ele>
        <time>2012-01-22T10:17:16Z</time>
      </trkpt>
      <trkpt lat="43.59541" lon="3.68708">
        <ele>249.1</ele>
        <time>2012-01-22T10:17:22Z</time>
      </trkpt>
      <trkpt lat="43.59535" lon="3.68704">
        <ele>250</ele>
        <time>2012-01-22T10:17:28Z</time>
      </trkpt>
      <trkpt lat="43.59535" lon="3.68704">
        <ele>177.3</ele>
        <time>2012-01-22T10:17:40Z</time>
      </trkpt>
      <trkpt lat="43.59535" lon="3.68704">
        <ele>177.3</ele>
        <time>2012-01-22T10:17:43Z</time>
      </trkpt>
      <trkpt lat="43.59515" lon="3.68701">
        <ele>251.8</ele>
        <time>2012-01-22T10:17:51Z</time>
      </trkpt>
      <trkpt lat="43.59508" lon="3.687">
        <ele>251.8</ele>
        <time>2012-01-22T10:17:57Z</time>
      </trkpt>
      <trkpt lat="43.59501" lon="3.687">
        <ele>252</ele>
        <time>2012-01-22T10:18:03Z</time>
      </trkpt>
      <trkpt lat="43.59494" lon="3.68701">
        <ele>253.4</ele>
        <time>2012-01-22T10:18:09Z</time>
      </trkpt>
      <trkpt lat="43.59487" lon="3.68702">
        <ele>253.4</ele>
        <time>2012-01-22T10:18:14Z</time>
      </trkpt>
      <trkpt lat="43.5948" lon="3.68699">
        <ele>250.5</ele>
        <time>2012-01-22T10:18:17Z</time>
      </trkpt>
      <trkpt lat="43.59473" lon="3.68694">
        <ele>250.2</ele>
        <time>2012-01-22T10:18:20Z</time>
      </trkpt>
      <trkpt lat="43.59458" lon="3.68681">
        <ele>249.2</ele>
        <time>2012-01-22T10:18:25Z</time>
      </trkpt>
      <trkpt lat="43.59441" lon="3.6867">
        <ele>247.9</ele>
        <time>2012-01-22T10:18:29Z</time>
      </trkpt>
      <trkpt lat="43.59424" lon="3.68667">
        <ele>246.2</ele>
        <time>2012-01-22T10:18:33Z</time>
      </trkpt>
      <trkpt lat="43.59407" lon="3.68663">
        <ele>242.8</ele>
        <time>2012-01-22T10:18:37Z</time>
      </trkpt>
      <trkpt lat="43.59391" lon="3.68658">
        <ele>241.2</ele>
        <time>2012-01-22T10:18:41Z</time>
      </trkpt>
      <trkpt lat="43.59377" lon="3.6865">
        <ele>240.6</ele>
        <time>2012-01-22T10:18:46Z</time>
      </trkpt>
      <trkpt lat="43.59372" lon="3.68642">
        <ele>239.5</ele>
        <time>2012-01-22T10:18:49Z</time>
      </trkpt>
      <trkpt lat="43.59372" lon="3.68642">
        <ele>176.5</ele>
        <time>2012-01-22T10:19:00Z</time>
      </trkpt>
      <trkpt lat="43.59372" lon="3.68642">
        <ele>176.5</ele>
        <time>2012-01-22T10:19:04Z</time>
      </trkpt>
      <trkpt lat="43.59372" lon="3.68642">
        <ele>176.5</ele>
        <time>2012-01-22T10:19:16Z</time>
      </trkpt>
      <trkpt lat="43.59372" lon="3.68642">
        <ele>176.5</ele>
        <time>2012-01-22T10:19:46Z</time>
      </trkpt>
      <trkpt lat="43.59346" lon="3.68624">
        <ele>238.5</ele>
        <time>2012-01-22T10:19:52Z</time>
      </trkpt>
      <trkpt lat="43.59338" lon="3.68627">
        <ele>236.2</ele>
        <time>2012-01-22T10:19:55Z</time>
      </trkpt>
      <trkpt lat="43.59331" lon="3.68629">
        <ele>234.3</ele>
        <time>2012-01-22T10:19:59Z</time>
      </trkpt>
      <trkpt lat="43.59324" lon="3.68628">
        <ele>232.3</ele>
        <time>2012-01-22T10:20:03Z</time>
      </trkpt>
      <trkpt lat="43.59324" lon="3.68628">
        <ele>171.5</ele>
        <time>2012-01-22T10:20:15Z</time>
      </trkpt>
      <trkpt lat="43.59069" lon="3.69108">
        <ele>188</ele>
        <time>2012-01-22T10:27:09Z</time>
      </trkpt>
      <trkpt lat="43.59075" lon="3.69125">
        <ele>188.4</ele>
        <time>2012-01-22T10:27:15Z</time>
      </trkpt>
      <trkpt lat="43.59078" lon="3.69133">
        <ele>188.7</ele>
        <time>2012-01-22T10:27:18Z</time>
      </trkpt>
      <trkpt lat="43.59081" lon="3.69141">
        <ele>189.3</ele>
        <time>2012-01-22T10:27:21Z</time>
      </trkpt>
      <trkpt lat="43.59088" lon="3.69157">
        <ele>190.1</ele>
        <time>2012-01-22T10:27:27Z</time>
      </trkpt>
      <trkpt lat="43.59091" lon="3.69165">
        <ele>190</ele>
        <time>2012-01-22T10:27:30Z</time>
      </trkpt>
      <trkpt lat="43.59095" lon="3.69173">
        <ele>190.7</ele>
        <time>2012-01-22T10:27:33Z</time>
      </trkpt>
      <trkpt lat="43.59103" lon="3.69187">
        <ele>192.1</ele>
        <time>2012-01-22T10:27:39Z</time>
      </trkpt>
      <trkpt lat="43.59108" lon="3.69194">
        <ele>193</ele>
        <time>2012-01-22T10:27:42Z</time>
      </trkpt>
      <trkpt lat="43.59113" lon="3.69201">
        <ele>194</ele>
        <time>2012-01-22T10:27:45Z</time>
      </trkpt>
      <trkpt lat="43.59126" lon="3.69214">
        <ele>195.6</ele>
        <time>2012-01-22T10:27:51Z</time>
      </trkpt>
      <trkpt lat="43.59133" lon="3.69221">
        <ele>195.7</ele>
        <time>2012-01-22T10:27:54Z</time>
      </trkpt>
      <trkpt lat="43.59139" lon="3.69228">
        <ele>196.2</ele>
        <time>2012-01-22T10:27:57Z</time>
      </trkpt>
      <trkpt lat="43.59152" lon="3.69241">
        <ele>196.8</ele>
        <time>2012-01-22T10:28:03Z</time>
      </trkpt>
      <trkpt lat="43.59158" lon="3.69248">
        <ele>197</ele>
        <time>2012-01-22T10:28:06Z</time>
      </trkpt>
      <trkpt lat="43.59162" lon="3.69256">
        <ele>197.1</ele>
        <time>2012-01-22T10:28:09Z</time>
      </trkpt>
      <trkpt lat="43.59171" lon="3.69271">
        <ele>197.4</ele>
        <time>2012-01-22T10:28:15Z</time>
      </trkpt>
      <trkpt lat="43.59176" lon="3.69279">
        <ele>197.5</ele>
        <time>2012-01-22T10:28:18Z</time>
      </trkpt>
      <trkpt lat="43.5918" lon="3.69286">
        <ele>197.2</ele>
        <time>2012-01-22T10:28:21Z</time>
      </trkpt>
      <trkpt lat="43.59181" lon="3.69304">
        <ele>197.1</ele>
        <time>2012-01-22T10:28:27Z</time>
      </trkpt>
      <trkpt lat="43.59176" lon="3.69312">
        <ele>197.9</ele>
        <time>2012-01-22T10:28:30Z</time>
      </trkpt>
      <trkpt lat="43.59174" lon="3.6932">
        <ele>198.3</ele>
        <time>2012-01-22T10:28:33Z</time>
      </trkpt>
      <trkpt lat="43.59174" lon="3.69329">
        <ele>198.6</ele>
        <time>2012-01-22T10:28:36Z</time>
      </trkpt>
      <trkpt lat="43.59174" lon="3.69349">
        <ele>200.7</ele>
        <time>2012-01-22T10:28:43Z</time>
      </trkpt>
      <trkpt lat="43.59173" lon="3.69359">
        <ele>201.2</ele>
        <time>2012-01-22T10:28:46Z</time>
      </trkpt>
      <trkpt lat="43.59174" lon="3.69368">
        <ele>202.5</ele>
        <time>2012-01-22T10:28:49Z</time>
      </trkpt>
      <trkpt lat="43.59175" lon="3.69379">
        <ele>202.1</ele>
        <time>2012-01-22T10:28:53Z</time>
      </trkpt>
      <trkpt lat="43.59173" lon="3.69389">
        <ele>202.8</ele>
        <time>2012-01-22T10:28:57Z</time>
      </trkpt>
      <trkpt lat="43.5917" lon="3.69398">
        <ele>204.1</ele>
        <time>2012-01-22T10:29:01Z</time>
      </trkpt>
      <trkpt lat="43.59169" lon="3.69407">
        <ele>203.8</ele>
        <time>2012-01-22T10:29:05Z</time>
      </trkpt>
      <trkpt lat="43.59169" lon="3.69416">
        <ele>205.7</ele>
        <time>2012-01-22T10:29:10Z</time>
      </trkpt>
      <trkpt lat="43.5917" lon="3.69425">
        <ele>205.9</ele>
        <time>2012-01-22T10:29:14Z</time>
      </trkpt>
      <trkpt lat="43.59173" lon="3.69434">
        <ele>206.7</ele>
        <time>2012-01-22T10:29:18Z</time>
      </trkpt>
      <trkpt lat="43.59175" lon="3.69443">
        <ele>206.1</ele>
        <time>2012-01-22T10:29:22Z</time>
      </trkpt>
      <trkpt lat="43.59175" lon="3.69454">
        <ele>205.9</ele>
        <time>2012-01-22T10:29:26Z</time>
      </trkpt>
      <trkpt lat="43.59175" lon="3.69464">
        <ele>206.4</ele>
        <time>2012-01-22T10:29:30Z</time>
      </trkpt>
      <trkpt lat="43.59174" lon="3.69473">
        <ele>205.4</ele>
        <time>2012-01-22T10:29:34Z</time>
      </trkpt>
      <trkpt lat="43.59175" lon="3.69484">
        <ele>205.7</ele>
        <time>2012-01-22T10:29:38Z</time>
      </trkpt>
      <trkpt lat="43.59176" lon="3.69494">
        <ele>205.6</ele>
        <time>2012-01-22T10:29:41Z</time>
      </trkpt>
      <trkpt lat="43.59178" lon="3.69518">
        <ele>206</ele>
        <time>2012-01-22T10:29:47Z</time>
      </trkpt>
      <trkpt lat="43.59187" lon="3.69532">
        <ele>203.2</ele>
        <time>2012-01-22T10:29:51Z</time>
      </trkpt>
      <trkpt lat="43.59192" lon="3.6954">
        <ele>200.8</ele>
        <time>2012-01-22T10:29:54Z</time>
      </trkpt>
      <trkpt lat="43.59195" lon="3.6955">
        <ele>199.5</ele>
        <time>2012-01-22T10:29:57Z</time>
      </trkpt>
      <trkpt lat="43.59196" lon="3.6957">
        <ele>197.8</ele>
        <time>2012-01-22T10:30:03Z</time>
      </trkpt>
      <trkpt lat="43.59199" lon="3.69579">
        <ele>196.5</ele>
        <time>2012-01-22T10:30:07Z</time>
      </trkpt>
      <trkpt lat="43.59204" lon="3.69587">
        <ele>195.9</ele>
        <time>2012-01-22T10:30:11Z</time>
      </trkpt>
      <trkpt lat="43.59211" lon="3.69588">
        <ele>194.6</ele>
        <time>2012-01-22T10:30:15Z</time>
      </trkpt>
      <trkpt lat="43.59218" lon="3.69583">
        <ele>194.1</ele>
        <time>2012-01-22T10:30:18Z</time>
      </trkpt>
      <trkpt lat="43.59224" lon="3.69579">
        <ele>193.7</ele>
        <time>2012-01-22T10:30:21Z</time>
      </trkpt>
      <trkpt lat="43.59235" lon="3.69582">
        <ele>190.9</ele>
        <time>2012-01-22T10:30:27Z</time>
      </trkpt>
      <trkpt lat="43.5924" lon="3.69599">
        <ele>189.3</ele>
        <time>2012-01-22T10:30:31Z</time>
      </trkpt>
      <trkpt lat="43.59242" lon="3.69611">
        <ele>189.4</ele>
        <time>2012-01-22T10:30:34Z</time>
      </trkpt>
      <trkpt lat="43.59243" lon="3.6962">
        <ele>190.1</ele>
        <time>2012-01-22T10:30:37Z</time>
      </trkpt>
      <trkpt lat="43.59242" lon="3.69629">
        <ele>190.5</ele>
        <time>2012-01-22T10:30:40Z</time>
      </trkpt>
      <trkpt lat="43.59251" lon="3.69643">
        <ele>189.1</ele>
        <time>2012-01-22T10:30:47Z</time>
      </trkpt>
      <trkpt lat="43.59259" lon="3.69641">
        <ele>188.8</ele>
        <time>2012-01-22T10:30:50Z</time>
      </trkpt>
      <trkpt lat="43.59266" lon="3.69641">
        <ele>187.9</ele>
        <time>2012-01-22T10:30:53Z</time>
      </trkpt>
      <trkpt lat="43.59274" lon="3.69643">
        <ele>186</ele>
        <time>2012-01-22T10:30:57Z</time>
      </trkpt>
      <trkpt lat="43.59274" lon="3.69643">
        <ele>120.9</ele>
        <time>2012-01-22T10:31:09Z</time>
      </trkpt>
      <trkpt lat="43.59274" lon="3.69643">
        <ele>120.9</ele>
        <time>2012-01-22T10:31:12Z</time>
      </trkpt>
      <trkpt lat="43.5927" lon="3.69664">
        <ele>186.6</ele>
        <time>2012-01-22T10:31:17Z</time>
      </trkpt>
      <trkpt lat="43.5927" lon="3.69672">
        <ele>186.1</ele>
        <time>2012-01-22T10:31:21Z</time>
      </trkpt>
      <trkpt lat="43.59273" lon="3.69682">
        <ele>187</ele>
        <time>2012-01-22T10:31:25Z</time>
      </trkpt>
      <trkpt lat="43.59283" lon="3.69699">
        <ele>184.6</ele>
        <time>2012-01-22T10:31:31Z</time>
      </trkpt>
      <trkpt lat="43.59287" lon="3.69707">
        <ele>184.1</ele>
        <time>2012-01-22T10:31:33Z</time>
      </trkpt>
      <trkpt lat="43.5929" lon="3.69718">
        <ele>183.6</ele>
        <time>2012-01-22T10:31:36Z</time>
      </trkpt>
      <trkpt lat="43.59292" lon="3.69727">
        <ele>182.7</ele>
        <time>2012-01-22T10:31:40Z</time>
      </trkpt>
      <trkpt lat="43.59295" lon="3.69745">
        <ele>180.2</ele>
        <time>2012-01-22T10:31:47Z</time>
      </trkpt>
      <trkpt lat="43.59296" lon="3.69754">
        <ele>179.2</ele>
        <time>2012-01-22T10:31:50Z</time>
      </trkpt>
      <trkpt lat="43.59297" lon="3.69765">
        <ele>178.1</ele>
        <time>2012-01-22T10:31:54Z</time>
      </trkpt>
      <trkpt lat="43.59297" lon="3.69774">
        <ele>177</ele>
        <time>2012-01-22T10:31:58Z</time>
      </trkpt>
      <trkpt lat="43.593" lon="3.69784">
        <ele>175.5</ele>
        <time>2012-01-22T10:32:02Z</time>
      </trkpt>
      <trkpt lat="43.59303" lon="3.69791">
        <ele>173.2</ele>
        <time>2012-01-22T10:32:08Z</time>
      </trkpt>
      <trkpt lat="43.59309" lon="3.69799">
        <ele>171.3</ele>
        <time>2012-01-22T10:32:13Z</time>
      </trkpt>
      <trkpt lat="43.59313" lon="3.69807">
        <ele>168.7</ele>
        <time>2012-01-22T10:32:17Z</time>
      </trkpt>
      <trkpt lat="43.59318" lon="3.69812">
        <ele>167.8</ele>
        <time>2012-01-22T10:32:21Z</time>
      </trkpt>
      <trkpt lat="43.59324" lon="3.69819">
        <ele>164.7</ele>
        <time>2012-01-22T10:32:25Z</time>
      </trkpt>
      <trkpt lat="43.59321" lon="3.69828">
        <ele>163.7</ele>
        <time>2012-01-22T10:32:29Z</time>
      </trkpt>
      <trkpt lat="43.59308" lon="3.69855">
        <ele>161.2</ele>
        <time>2012-01-22T10:32:34Z</time>
      </trkpt>
      <trkpt lat="43.59284" lon="3.69887">
        <ele>158.8</ele>
        <time>2012-01-22T10:32:39Z</time>
      </trkpt>
      <trkpt lat="43.59256" lon="3.69904">
        <ele>156.3</ele>
        <time>2012-01-22T10:32:43Z</time>
      </trkpt>
      <trkpt lat="43.59223" lon="3.69899">
        <ele>154.1</ele>
        <time>2012-01-22T10:32:47Z</time>
      </trkpt>
      <trkpt lat="43.59192" lon="3.69883">
        <ele>152.3</ele>
        <time>2012-01-22T10:32:51Z</time>
      </trkpt>
      <trkpt lat="43.59161" lon="3.69861">
        <ele>150</ele>
        <time>2012-01-22T10:32:55Z</time>
      </trkpt>
      <trkpt lat="43.5913" lon="3.69842">
        <ele>147.9</ele>
        <time>2012-01-22T10:32:59Z</time>
      </trkpt>
      <trkpt lat="43.59101" lon="3.6982">
        <ele>144.1</ele>
        <time>2012-01-22T10:33:03Z</time>
      </trkpt>
      <trkpt lat="43.59079" lon="3.69785">
        <ele>141.6</ele>
        <time>2012-01-22T10:33:07Z</time>
      </trkpt>
      <trkpt lat="43.59055" lon="3.69755">
        <ele>139.4</ele>
        <time>2012-01-22T10:33:11Z</time>
      </trkpt>
      <trkpt lat="43.59021" lon="3.69737">
        <ele>136.9</ele>
        <time>2012-01-22T10:33:15Z</time>
      </trkpt>
      <trkpt lat="43.58993" lon="3.69729">
        <ele>138.2</ele>
        <time>2012-01-22T10:33:19Z</time>
      </trkpt>
      <trkpt lat="43.58975" lon="3.6973">
        <ele>140.2</ele>
        <time>2012-01-22T10:33:23Z</time>
      </trkpt>
      <trkpt lat="43.58966" lon="3.69731">
        <ele>141.8</ele>
        <time>2012-01-22T10:33:26Z</time>
      </trkpt>
      <trkpt lat="43.5896" lon="3.69734">
        <ele>142.7</ele>
        <time>2012-01-22T10:33:29Z</time>
      </trkpt>
      <trkpt lat="43.58944" lon="3.69739">
        <ele>144.4</ele>
        <time>2012-01-22T10:33:35Z</time>
      </trkpt>
      <trkpt lat="43.58937" lon="3.69744">
        <ele>144.9</ele>
        <time>2012-01-22T10:33:38Z</time>
      </trkpt>
      <trkpt lat="43.58931" lon="3.69752">
        <ele>144.3</ele>
        <time>2012-01-22T10:33:41Z</time>
      </trkpt>
      <trkpt lat="43.58923" lon="3.69771">
        <ele>143.5</ele>
        <time>2012-01-22T10:33:47Z</time>
      </trkpt>
      <trkpt lat="43.5892" lon="3.69779">
        <ele>144.8</ele>
        <time>2012-01-22T10:33:49Z</time>
      </trkpt>
      <trkpt lat="43.58915" lon="3.69788">
        <ele>145.9</ele>
        <time>2012-01-22T10:33:52Z</time>
      </trkpt>
      <trkpt lat="43.58905" lon="3.69801">
        <ele>147.2</ele>
        <time>2012-01-22T10:33:59Z</time>
      </trkpt>
      <trkpt lat="43.589" lon="3.69807">
        <ele>148</ele>
        <time>2012-01-22T10:34:02Z</time>
      </trkpt>
      <trkpt lat="43.58897" lon="3.69817">
        <ele>148.7</ele>
        <time>2012-01-22T10:34:06Z</time>
      </trkpt>
      <trkpt lat="43.58895" lon="3.69826">
        <ele>149.3</ele>
        <time>2012-01-22T10:34:10Z</time>
      </trkpt>
      <trkpt lat="43.58893" lon="3.69835">
        <ele>149.8</ele>
        <time>2012-01-22T10:34:13Z</time>
      </trkpt>
      <trkpt lat="43.58892" lon="3.69844">
        <ele>149.9</ele>
        <time>2012-01-22T10:34:16Z</time>
      </trkpt>
      <trkpt lat="43.58889" lon="3.69854">
        <ele>151.3</ele>
        <time>2012-01-22T10:34:20Z</time>
      </trkpt>
      <trkpt lat="43.58888" lon="3.69864">
        <ele>152.2</ele>
        <time>2012-01-22T10:34:24Z</time>
      </trkpt>
      <trkpt lat="43.58893" lon="3.69872">
        <ele>153</ele>
        <time>2012-01-22T10:34:28Z</time>
      </trkpt>
      <trkpt lat="43.589" lon="3.69857">
        <ele>154</ele>
        <time>2012-01-22T10:34:35Z</time>
      </trkpt>
      <trkpt lat="43.58903" lon="3.69849">
        <ele>154.4</ele>
        <time>2012-01-22T10:34:38Z</time>
      </trkpt>
      <trkpt lat="43.58907" lon="3.69841">
        <ele>154.3</ele>
        <time>2012-01-22T10:34:41Z</time>
      </trkpt>
      <trkpt lat="43.58913" lon="3.69835">
        <ele>154.8</ele>
        <time>2012-01-22T10:34:45Z</time>
      </trkpt>
      <trkpt lat="43.58921" lon="3.69833">
        <ele>156.1</ele>
        <time>2012-01-22T10:34:49Z</time>
      </trkpt>
      <trkpt lat="43.58928" lon="3.69833">
        <ele>156.3</ele>
        <time>2012-01-22T10:34:53Z</time>
      </trkpt>
      <trkpt lat="43.58935" lon="3.69836">
        <ele>158.2</ele>
        <time>2012-01-22T10:34:57Z</time>
      </trkpt>
      <trkpt lat="43.58942" lon="3.69841">
        <ele>159</ele>
        <time>2012-01-22T10:35:01Z</time>
      </trkpt>
      <trkpt lat="43.58951" lon="3.69853">
        <ele>160.4</ele>
        <time>2012-01-22T10:35:07Z</time>
      </trkpt>
      <trkpt lat="43.58955" lon="3.69862">
        <ele>162.1</ele>
        <time>2012-01-22T10:35:11Z</time>
      </trkpt>
      <trkpt lat="43.58957" lon="3.69871">
        <ele>163.1</ele>
        <time>2012-01-22T10:35:15Z</time>
      </trkpt>
      <trkpt lat="43.58957" lon="3.6988">
        <ele>163.7</ele>
        <time>2012-01-22T10:35:19Z</time>
      </trkpt>
      <trkpt lat="43.58959" lon="3.69889">
        <ele>163.5</ele>
        <time>2012-01-22T10:35:23Z</time>
      </trkpt>
      <trkpt lat="43.58963" lon="3.69896">
        <ele>164.2</ele>
        <time>2012-01-22T10:35:27Z</time>
      </trkpt>
      <trkpt lat="43.5897" lon="3.69899">
        <ele>165.2</ele>
        <time>2012-01-22T10:35:32Z</time>
      </trkpt>
      <trkpt lat="43.58977" lon="3.69897">
        <ele>166</ele>
        <time>2012-01-22T10:35:37Z</time>
      </trkpt>
      <trkpt lat="43.58982" lon="3.69891">
        <ele>166.9</ele>
        <time>2012-01-22T10:35:41Z</time>
      </trkpt>
      <trkpt lat="43.58988" lon="3.69886">
        <ele>166.9</ele>
        <time>2012-01-22T10:35:45Z</time>
      </trkpt>
      <trkpt lat="43.58994" lon="3.69883">
        <ele>167</ele>
        <time>2012-01-22T10:35:49Z</time>
      </trkpt>
      <trkpt lat="43.59001" lon="3.6988">
        <ele>168.7</ele>
        <time>2012-01-22T10:35:54Z</time>
      </trkpt>
      <trkpt lat="43.59007" lon="3.69884">
        <ele>169.2</ele>
        <time>2012-01-22T10:35:59Z</time>
      </trkpt>
      <trkpt lat="43.5901" lon="3.69892">
        <ele>169.2</ele>
        <time>2012-01-22T10:36:04Z</time>
      </trkpt>
      <trkpt lat="43.59008" lon="3.69903">
        <ele>169.3</ele>
        <time>2012-01-22T10:36:09Z</time>
      </trkpt>
      <trkpt lat="43.59005" lon="3.69913">
        <ele>170.2</ele>
        <time>2012-01-22T10:36:14Z</time>
      </trkpt>
      <trkpt lat="43.59005" lon="3.69922">
        <ele>170.5</ele>
        <time>2012-01-22T10:36:18Z</time>
      </trkpt>
      <trkpt lat="43.59005" lon="3.69931">
        <ele>171.9</ele>
        <time>2012-01-22T10:36:22Z</time>
      </trkpt>
      <trkpt lat="43.59006" lon="3.69941">
        <ele>172.1</ele>
        <time>2012-01-22T10:36:26Z</time>
      </trkpt>
      <trkpt lat="43.59009" lon="3.6995">
        <ele>172.3</ele>
        <time>2012-01-22T10:36:30Z</time>
      </trkpt>
      <trkpt lat="43.59015" lon="3.69957">
        <ele>173.2</ele>
        <time>2012-01-22T10:36:35Z</time>
      </trkpt>
      <trkpt lat="43.5902" lon="3.69964">
        <ele>173.9</ele>
        <time>2012-01-22T10:36:40Z</time>
      </trkpt>
      <trkpt lat="43.59024" lon="3.69972">
        <ele>174.7</ele>
        <time>2012-01-22T10:36:45Z</time>
      </trkpt>
      <trkpt lat="43.59029" lon="3.69978">
        <ele>175</ele>
        <time>2012-01-22T10:36:49Z</time>
      </trkpt>
      <trkpt lat="43.59034" lon="3.69986">
        <ele>174.8</ele>
        <time>2012-01-22T10:36:54Z</time>
      </trkpt>
      <trkpt lat="43.59039" lon="3.69993">
        <ele>175.3</ele>
        <time>2012-01-22T10:36:58Z</time>
      </trkpt>
      <trkpt lat="43.59043" lon="3.69999">
        <ele>175.6</ele>
        <time>2012-01-22T10:37:02Z</time>
      </trkpt>
      <trkpt lat="43.59048" lon="3.70006">
        <ele>176.2</ele>
        <time>2012-01-22T10:37:06Z</time>
      </trkpt>
      <trkpt lat="43.59053" lon="3.70013">
        <ele>176.5</ele>
        <time>2012-01-22T10:37:10Z</time>
      </trkpt>
      <trkpt lat="43.59058" lon="3.7002">
        <ele>177.3</ele>
        <time>2012-01-22T10:37:14Z</time>
      </trkpt>
      <trkpt lat="43.59063" lon="3.70026">
        <ele>177.5</ele>
        <time>2012-01-22T10:37:18Z</time>
      </trkpt>
      <trkpt lat="43.59068" lon="3.70032">
        <ele>177.9</ele>
        <time>2012-01-22T10:37:22Z</time>
      </trkpt>
      <trkpt lat="43.59073" lon="3.70041">
        <ele>177.8</ele>
        <time>2012-01-22T10:37:26Z</time>
      </trkpt>
      <trkpt lat="43.59079" lon="3.70047">
        <ele>179</ele>
        <time>2012-01-22T10:37:30Z</time>
      </trkpt>
      <trkpt lat="43.59085" lon="3.70053">
        <ele>180.2</ele>
        <time>2012-01-22T10:37:34Z</time>
      </trkpt>
      <trkpt lat="43.59091" lon="3.7006">
        <ele>180.8</ele>
        <time>2012-01-22T10:37:38Z</time>
      </trkpt>
      <trkpt lat="43.59096" lon="3.70068">
        <ele>181.5</ele>
        <time>2012-01-22T10:37:42Z</time>
      </trkpt>
      <trkpt lat="43.59101" lon="3.70076">
        <ele>182.5</ele>
        <time>2012-01-22T10:37:46Z</time>
      </trkpt>
      <trkpt lat="43.59104" lon="3.70085">
        <ele>181.7</ele>
        <time>2012-01-22T10:37:50Z</time>
      </trkpt>
      <trkpt lat="43.59109" lon="3.70094">
        <ele>181.9</ele>
        <time>2012-01-22T10:37:54Z</time>
      </trkpt>
      <trkpt lat="43.59114" lon="3.70102">
        <ele>183.4</ele>
        <time>2012-01-22T10:37:58Z</time>
      </trkpt>
      <trkpt lat="43.59118" lon="3.7011">
        <ele>183.1</ele>
        <time>2012-01-22T10:38:02Z</time>
      </trkpt>
      <trkpt lat="43.59121" lon="3.70118">
        <ele>184</ele>
        <time>2012-01-22T10:38:06Z</time>
      </trkpt>
      <trkpt lat="43.59124" lon="3.70127">
        <ele>184.5</ele>
        <time>2012-01-22T10:38:10Z</time>
      </trkpt>
      <trkpt lat="43.59126" lon="3.70137">
        <ele>184.8</ele>
        <time>2012-01-22T10:38:14Z</time>
      </trkpt>
      <trkpt lat="43.59129" lon="3.70145">
        <ele>186.4</ele>
        <time>2012-01-22T10:38:18Z</time>
      </trkpt>
      <trkpt lat="43.59133" lon="3.70154">
        <ele>186</ele>
        <time>2012-01-22T10:38:22Z</time>
      </trkpt>
      <trkpt lat="43.59136" lon="3.70163">
        <ele>186.3</ele>
        <time>2012-01-22T10:38:25Z</time>
      </trkpt>
      <trkpt lat="43.59138" lon="3.70171">
        <ele>186.5</ele>
        <time>2012-01-22T10:38:28Z</time>
      </trkpt>
      <trkpt lat="43.59142" lon="3.70181">
        <ele>187.1</ele>
        <time>2012-01-22T10:38:32Z</time>
      </trkpt>
      <trkpt lat="43.59153" lon="3.70195">
        <ele>188</ele>
        <time>2012-01-22T10:38:39Z</time>
      </trkpt>
      <trkpt lat="43.59159" lon="3.70201">
        <ele>188.1</ele>
        <time>2012-01-22T10:38:42Z</time>
      </trkpt>
      <trkpt lat="43.59166" lon="3.70207">
        <ele>188.1</ele>
        <time>2012-01-22T10:38:45Z</time>
      </trkpt>
      <trkpt lat="43.59179" lon="3.70219">
        <ele>188.1</ele>
        <time>2012-01-22T10:38:50Z</time>
      </trkpt>
      <trkpt lat="43.59191" lon="3.70228">
        <ele>189.4</ele>
        <time>2012-01-22T10:38:54Z</time>
      </trkpt>
      <trkpt lat="43.59203" lon="3.70236">
        <ele>189.7</ele>
        <time>2012-01-22T10:38:58Z</time>
      </trkpt>
      <trkpt lat="43.59215" lon="3.70242">
        <ele>189.9</ele>
        <time>2012-01-22T10:39:02Z</time>
      </trkpt>
      <trkpt lat="43.59229" lon="3.70245">
        <ele>190.8</ele>
        <time>2012-01-22T10:39:06Z</time>
      </trkpt>
      <trkpt lat="43.59242" lon="3.70246">
        <ele>191.4</ele>
        <time>2012-01-22T10:39:10Z</time>
      </trkpt>
      <trkpt lat="43.59256" lon="3.70247">
        <ele>191.1</ele>
        <time>2012-01-22T10:39:14Z</time>
      </trkpt>
      <trkpt lat="43.59269" lon="3.70254">
        <ele>191.4</ele>
        <time>2012-01-22T10:39:18Z</time>
      </trkpt>
      <trkpt lat="43.59278" lon="3.70266">
        <ele>192.9</ele>
        <time>2012-01-22T10:39:22Z</time>
      </trkpt>
      <trkpt lat="43.5929" lon="3.70279">
        <ele>193.6</ele>
        <time>2012-01-22T10:39:35Z</time>
      </trkpt>
      <trkpt lat="43.59297" lon="3.70287">
        <ele>193.6</ele>
        <time>2012-01-22T10:39:38Z</time>
      </trkpt>
      <trkpt lat="43.59305" lon="3.70293">
        <ele>194.4</ele>
        <time>2012-01-22T10:39:41Z</time>
      </trkpt>
      <trkpt lat="43.5932" lon="3.70305">
        <ele>195.1</ele>
        <time>2012-01-22T10:39:47Z</time>
      </trkpt>
      <trkpt lat="43.59328" lon="3.70309">
        <ele>195.1</ele>
        <time>2012-01-22T10:39:50Z</time>
      </trkpt>
      <trkpt lat="43.59337" lon="3.70312">
        <ele>195.5</ele>
        <time>2012-01-22T10:39:53Z</time>
      </trkpt>
      <trkpt lat="43.59353" lon="3.70318">
        <ele>194.5</ele>
        <time>2012-01-22T10:39:59Z</time>
      </trkpt>
      <trkpt lat="43.59362" lon="3.70322">
        <ele>195</ele>
        <time>2012-01-22T10:40:02Z</time>
      </trkpt>
      <trkpt lat="43.59377" lon="3.70328">
        <ele>195</ele>
        <time>2012-01-22T10:40:07Z</time>
      </trkpt>
      <trkpt lat="43.59385" lon="3.70332">
        <ele>195.4</ele>
        <time>2012-01-22T10:40:10Z</time>
      </trkpt>
      <trkpt lat="43.594" lon="3.70339">
        <ele>195.6</ele>
        <time>2012-01-22T10:40:15Z</time>
      </trkpt>
      <trkpt lat="43.59412" lon="3.70344">
        <ele>195.6</ele>
        <time>2012-01-22T10:40:19Z</time>
      </trkpt>
      <trkpt lat="43.59425" lon="3.70349">
        <ele>194.7</ele>
        <time>2012-01-22T10:40:23Z</time>
      </trkpt>
      <trkpt lat="43.59438" lon="3.70355">
        <ele>194.5</ele>
        <time>2012-01-22T10:40:27Z</time>
      </trkpt>
      <trkpt lat="43.59451" lon="3.70359">
        <ele>193.6</ele>
        <time>2012-01-22T10:40:31Z</time>
      </trkpt>
      <trkpt lat="43.59464" lon="3.7037">
        <ele>193.7</ele>
        <time>2012-01-22T10:40:35Z</time>
      </trkpt>
      <trkpt lat="43.59471" lon="3.70388">
        <ele>194.9</ele>
        <time>2012-01-22T10:40:39Z</time>
      </trkpt>
      <trkpt lat="43.59469" lon="3.70406">
        <ele>194.8</ele>
        <time>2012-01-22T10:40:43Z</time>
      </trkpt>
      <trkpt lat="43.59468" lon="3.70418">
        <ele>194.6</ele>
        <time>2012-01-22T10:40:46Z</time>
      </trkpt>
      <trkpt lat="43.59466" lon="3.70428">
        <ele>194.7</ele>
        <time>2012-01-22T10:40:49Z</time>
      </trkpt>
      <trkpt lat="43.59464" lon="3.70449">
        <ele>194.7</ele>
        <time>2012-01-22T10:40:55Z</time>
      </trkpt>
      <trkpt lat="43.59463" lon="3.70458">
        <ele>195</ele>
        <time>2012-01-22T10:40:58Z</time>
      </trkpt>
      <trkpt lat="43.59462" lon="3.70468">
        <ele>194.8</ele>
        <time>2012-01-22T10:41:01Z</time>
      </trkpt>
      <trkpt lat="43.59459" lon="3.70489">
        <ele>193.9</ele>
        <time>2012-01-22T10:41:07Z</time>
      </trkpt>
      <trkpt lat="43.59456" lon="3.705">
        <ele>194</ele>
        <time>2012-01-22T10:41:10Z</time>
      </trkpt>
      <trkpt lat="43.59453" lon="3.70522">
        <ele>193.1</ele>
        <time>2012-01-22T10:41:15Z</time>
      </trkpt>
      <trkpt lat="43.5945" lon="3.70541">
        <ele>192.8</ele>
        <time>2012-01-22T10:41:19Z</time>
      </trkpt>
      <trkpt lat="43.59445" lon="3.70559">
        <ele>191.8</ele>
        <time>2012-01-22T10:41:23Z</time>
      </trkpt>
      <trkpt lat="43.59435" lon="3.70573">
        <ele>191.4</ele>
        <time>2012-01-22T10:41:27Z</time>
      </trkpt>
      <trkpt lat="43.59422" lon="3.70589">
        <ele>190.5</ele>
        <time>2012-01-22T10:41:31Z</time>
      </trkpt>
      <trkpt lat="43.59415" lon="3.70613">
        <ele>189.9</ele>
        <time>2012-01-22T10:41:35Z</time>
      </trkpt>
      <trkpt lat="43.5941" lon="3.70639">
        <ele>189.8</ele>
        <time>2012-01-22T10:41:39Z</time>
      </trkpt>
      <trkpt lat="43.59398" lon="3.70663">
        <ele>189.4</ele>
        <time>2012-01-22T10:41:43Z</time>
      </trkpt>
      <trkpt lat="43.5938" lon="3.70672">
        <ele>188.8</ele>
        <time>2012-01-22T10:41:47Z</time>
      </trkpt>
      <trkpt lat="43.59365" lon="3.70664">
        <ele>188.4</ele>
        <time>2012-01-22T10:41:51Z</time>
      </trkpt>
      <trkpt lat="43.59349" lon="3.70652">
        <ele>189.8</ele>
        <time>2012-01-22T10:41:55Z</time>
      </trkpt>
      <trkpt lat="43.59334" lon="3.7064">
        <ele>190.4</ele>
        <time>2012-01-22T10:41:59Z</time>
      </trkpt>
      <trkpt lat="43.59321" lon="3.7063">
        <ele>188.8</ele>
        <time>2012-01-22T10:42:03Z</time>
      </trkpt>
      <trkpt lat="43.59307" lon="3.70618">
        <ele>188.6</ele>
        <time>2012-01-22T10:42:07Z</time>
      </trkpt>
      <trkpt lat="43.59293" lon="3.70606">
        <ele>189.5</ele>
        <time>2012-01-22T10:42:10Z</time>
      </trkpt>
      <trkpt lat="43.59279" lon="3.70595">
        <ele>191.3</ele>
        <time>2012-01-22T10:42:14Z</time>
      </trkpt>
      <trkpt lat="43.59267" lon="3.70585">
        <ele>191.5</ele>
        <time>2012-01-22T10:42:18Z</time>
      </trkpt>
      <trkpt lat="43.59254" lon="3.70575">
        <ele>192</ele>
        <time>2012-01-22T10:42:22Z</time>
      </trkpt>
      <trkpt lat="43.59239" lon="3.70566">
        <ele>191.9</ele>
        <time>2012-01-22T10:42:26Z</time>
      </trkpt>
      <trkpt lat="43.59224" lon="3.70557">
        <ele>192.5</ele>
        <time>2012-01-22T10:42:30Z</time>
      </trkpt>
      <trkpt lat="43.59209" lon="3.70546">
        <ele>193.4</ele>
        <time>2012-01-22T10:42:34Z</time>
      </trkpt>
      <trkpt lat="43.59192" lon="3.70535">
        <ele>192.4</ele>
        <time>2012-01-22T10:42:38Z</time>
      </trkpt>
      <trkpt lat="43.59174" lon="3.70526">
        <ele>192.6</ele>
        <time>2012-01-22T10:42:42Z</time>
      </trkpt>
      <trkpt lat="43.59154" lon="3.70527">
        <ele>191.1</ele>
        <time>2012-01-22T10:42:46Z</time>
      </trkpt>
      <trkpt lat="43.59137" lon="3.70536">
        <ele>191</ele>
        <time>2012-01-22T10:42:50Z</time>
      </trkpt>
      <trkpt lat="43.59119" lon="3.70547">
        <ele>190.7</ele>
        <time>2012-01-22T10:42:54Z</time>
      </trkpt>
      <trkpt lat="43.59104" lon="3.70563">
        <ele>189.7</ele>
        <time>2012-01-22T10:42:58Z</time>
      </trkpt>
      <trkpt lat="43.59093" lon="3.70584">
        <ele>188.4</ele>
        <time>2012-01-22T10:43:02Z</time>
      </trkpt>
      <trkpt lat="43.59086" lon="3.7061">
        <ele>189</ele>
        <time>2012-01-22T10:43:06Z</time>
      </trkpt>
      <trkpt lat="43.59086" lon="3.70639">
        <ele>188.8</ele>
        <time>2012-01-22T10:43:10Z</time>
      </trkpt>
      <trkpt lat="43.59092" lon="3.70671">
        <ele>187.1</ele>
        <time>2012-01-22T10:43:14Z</time>
      </trkpt>
      <trkpt lat="43.59095" lon="3.70719">
        <ele>183.8</ele>
        <time>2012-01-22T10:43:19Z</time>
      </trkpt>
      <trkpt lat="43.59102" lon="3.70762">
        <ele>181.6</ele>
        <time>2012-01-22T10:43:23Z</time>
      </trkpt>
      <trkpt lat="43.59119" lon="3.70805">
        <ele>178.8</ele>
        <time>2012-01-22T10:43:27Z</time>
      </trkpt>
      <trkpt lat="43.5914" lon="3.70839">
        <ele>176.2</ele>
        <time>2012-01-22T10:43:31Z</time>
      </trkpt>
      <trkpt lat="43.59167" lon="3.70849">
        <ele>175.4</ele>
        <time>2012-01-22T10:43:35Z</time>
      </trkpt>
      <trkpt lat="43.59194" lon="3.70844">
        <ele>173.7</ele>
        <time>2012-01-22T10:43:39Z</time>
      </trkpt>
      <trkpt lat="43.59213" lon="3.70839">
        <ele>171.7</ele>
        <time>2012-01-22T10:43:42Z</time>
      </trkpt>
      <trkpt lat="43.59229" lon="3.7084">
        <ele>170.9</ele>
        <time>2012-01-22T10:43:46Z</time>
      </trkpt>
      <trkpt lat="43.59227" lon="3.70857">
        <ele>170.3</ele>
        <time>2012-01-22T10:43:50Z</time>
      </trkpt>
      <trkpt lat="43.59218" lon="3.70871">
        <ele>170</ele>
        <time>2012-01-22T10:43:55Z</time>
      </trkpt>
      <trkpt lat="43.59213" lon="3.70878">
        <ele>169</ele>
        <time>2012-01-22T10:44:01Z</time>
      </trkpt>
      <trkpt lat="43.59208" lon="3.70884">
        <ele>169.3</ele>
        <time>2012-01-22T10:44:05Z</time>
      </trkpt>
      <trkpt lat="43.59208" lon="3.70884">
        <ele>105.7</ele>
        <time>2012-01-22T10:44:17Z</time>
      </trkpt>
      <trkpt lat="43.59208" lon="3.70884">
        <ele>105.7</ele>
        <time>2012-01-22T10:44:48Z</time>
      </trkpt>
      <trkpt lat="43.59197" lon="3.70897">
        <ele>166.3</ele>
        <time>2012-01-22T10:44:51Z</time>
      </trkpt>
      <trkpt lat="43.59191" lon="3.70905">
        <ele>166.4</ele>
        <time>2012-01-22T10:44:54Z</time>
      </trkpt>
      <trkpt lat="43.59185" lon="3.70912">
        <ele>167</ele>
        <time>2012-01-22T10:44:57Z</time>
      </trkpt>
      <trkpt lat="43.59174" lon="3.70928">
        <ele>168.9</ele>
        <time>2012-01-22T10:45:03Z</time>
      </trkpt>
      <trkpt lat="43.59169" lon="3.70936">
        <ele>169.4</ele>
        <time>2012-01-22T10:45:06Z</time>
      </trkpt>
      <trkpt lat="43.59163" lon="3.70943">
        <ele>169.6</ele>
        <time>2012-01-22T10:45:09Z</time>
      </trkpt>
      <trkpt lat="43.59149" lon="3.70952">
        <ele>170.1</ele>
        <time>2012-01-22T10:45:15Z</time>
      </trkpt>
      <trkpt lat="43.59142" lon="3.70954">
        <ele>170.5</ele>
        <time>2012-01-22T10:45:18Z</time>
      </trkpt>
      <trkpt lat="43.59136" lon="3.70956">
        <ele>171.8</ele>
        <time>2012-01-22T10:45:21Z</time>
      </trkpt>
      <trkpt lat="43.59129" lon="3.70961">
        <ele>172.3</ele>
        <time>2012-01-22T10:45:25Z</time>
      </trkpt>
      <trkpt lat="43.59123" lon="3.70967">
        <ele>174.2</ele>
        <time>2012-01-22T10:45:29Z</time>
      </trkpt>
      <trkpt lat="43.59117" lon="3.70975">
        <ele>174.7</ele>
        <time>2012-01-22T10:45:33Z</time>
      </trkpt>
      <trkpt lat="43.59112" lon="3.70984">
        <ele>174.3</ele>
        <time>2012-01-22T10:45:37Z</time>
      </trkpt>
      <trkpt lat="43.59109" lon="3.70994">
        <ele>174.3</ele>
        <time>2012-01-22T10:45:41Z</time>
      </trkpt>
      <trkpt lat="43.59106" lon="3.71004">
        <ele>173.7</ele>
        <time>2012-01-22T10:45:45Z</time>
      </trkpt>
      <trkpt lat="43.59094" lon="3.71013">
        <ele>174.1</ele>
        <time>2012-01-22T10:45:51Z</time>
      </trkpt>
      <trkpt lat="43.59087" lon="3.71012">
        <ele>175.5</ele>
        <time>2012-01-22T10:45:54Z</time>
      </trkpt>
      <trkpt lat="43.59081" lon="3.71006">
        <ele>176.3</ele>
        <time>2012-01-22T10:45:57Z</time>
      </trkpt>
      <trkpt lat="43.59068" lon="3.70998">
        <ele>176.2</ele>
        <time>2012-01-22T10:46:03Z</time>
      </trkpt>
      <trkpt lat="43.59061" lon="3.70996">
        <ele>176.6</ele>
        <time>2012-01-22T10:46:06Z</time>
      </trkpt>
      <trkpt lat="43.59054" lon="3.70995">
        <ele>176.8</ele>
        <time>2012-01-22T10:46:09Z</time>
      </trkpt>
      <trkpt lat="43.59041" lon="3.70992">
        <ele>177.9</ele>
        <time>2012-01-22T10:46:15Z</time>
      </trkpt>
      <trkpt lat="43.59034" lon="3.70992">
        <ele>178.2</ele>
        <time>2012-01-22T10:46:18Z</time>
      </trkpt>
      <trkpt lat="43.59027" lon="3.70992">
        <ele>178.3</ele>
        <time>2012-01-22T10:46:21Z</time>
      </trkpt>
      <trkpt lat="43.59012" lon="3.7099">
        <ele>178.6</ele>
        <time>2012-01-22T10:46:27Z</time>
      </trkpt>
      <trkpt lat="43.59006" lon="3.70986">
        <ele>178.9</ele>
        <time>2012-01-22T10:46:30Z</time>
      </trkpt>
      <trkpt lat="43.59" lon="3.70982">
        <ele>178.8</ele>
        <time>2012-01-22T10:46:33Z</time>
      </trkpt>
      <trkpt lat="43.58991" lon="3.70969">
        <ele>180.8</ele>
        <time>2012-01-22T10:46:39Z</time>
      </trkpt>
      <trkpt lat="43.5899" lon="3.7096">
        <ele>181.8</ele>
        <time>2012-01-22T10:46:42Z</time>
      </trkpt>
      <trkpt lat="43.58988" lon="3.7095">
        <ele>183.5</ele>
        <time>2012-01-22T10:46:45Z</time>
      </trkpt>
      <trkpt lat="43.58984" lon="3.70932">
        <ele>183.9</ele>
        <time>2012-01-22T10:46:51Z</time>
      </trkpt>
      <trkpt lat="43.58982" lon="3.70924">
        <ele>183.8</ele>
        <time>2012-01-22T10:46:54Z</time>
      </trkpt>
      <trkpt lat="43.58978" lon="3.70916">
        <ele>184</ele>
        <time>2012-01-22T10:46:57Z</time>
      </trkpt>
      <trkpt lat="43.58972" lon="3.70898">
        <ele>183.9</ele>
        <time>2012-01-22T10:47:03Z</time>
      </trkpt>
      <trkpt lat="43.58969" lon="3.7089">
        <ele>183.6</ele>
        <time>2012-01-22T10:47:06Z</time>
      </trkpt>
      <trkpt lat="43.58966" lon="3.70879">
        <ele>184.2</ele>
        <time>2012-01-22T10:47:10Z</time>
      </trkpt>
      <trkpt lat="43.58962" lon="3.70871">
        <ele>183.9</ele>
        <time>2012-01-22T10:47:13Z</time>
      </trkpt>
      <trkpt lat="43.58955" lon="3.70856">
        <ele>183.9</ele>
        <time>2012-01-22T10:47:19Z</time>
      </trkpt>
      <trkpt lat="43.58951" lon="3.70849">
        <ele>183.8</ele>
        <time>2012-01-22T10:47:22Z</time>
      </trkpt>
      <trkpt lat="43.58947" lon="3.70839">
        <ele>183.4</ele>
        <time>2012-01-22T10:47:26Z</time>
      </trkpt>
      <trkpt lat="43.58944" lon="3.70828">
        <ele>183.9</ele>
        <time>2012-01-22T10:47:30Z</time>
      </trkpt>
      <trkpt lat="43.58942" lon="3.70818">
        <ele>184.7</ele>
        <time>2012-01-22T10:47:34Z</time>
      </trkpt>
      <trkpt lat="43.58941" lon="3.70808">
        <ele>185.4</ele>
        <time>2012-01-22T10:47:38Z</time>
      </trkpt>
      <trkpt lat="43.5894" lon="3.70799">
        <ele>186.7</ele>
        <time>2012-01-22T10:47:42Z</time>
      </trkpt>
      <trkpt lat="43.58939" lon="3.70789">
        <ele>187.1</ele>
        <time>2012-01-22T10:47:46Z</time>
      </trkpt>
      <trkpt lat="43.58937" lon="3.70778">
        <ele>187.4</ele>
        <time>2012-01-22T10:47:50Z</time>
      </trkpt>
      <trkpt lat="43.58934" lon="3.70768">
        <ele>187.3</ele>
        <time>2012-01-22T10:47:54Z</time>
      </trkpt>
      <trkpt lat="43.58931" lon="3.70759">
        <ele>187.7</ele>
        <time>2012-01-22T10:47:57Z</time>
      </trkpt>
      <trkpt lat="43.58924" lon="3.7074">
        <ele>188.1</ele>
        <time>2012-01-22T10:48:03Z</time>
      </trkpt>
      <trkpt lat="43.58913" lon="3.70725">
        <ele>186.8</ele>
        <time>2012-01-22T10:48:07Z</time>
      </trkpt>
      <trkpt lat="43.58899" lon="3.70708">
        <ele>186.5</ele>
        <time>2012-01-22T10:48:11Z</time>
      </trkpt>
      <trkpt lat="43.58887" lon="3.70691">
        <ele>187.3</ele>
        <time>2012-01-22T10:48:15Z</time>
      </trkpt>
      <trkpt lat="43.58875" lon="3.70677">
        <ele>187.5</ele>
        <time>2012-01-22T10:48:19Z</time>
      </trkpt>
      <trkpt lat="43.58861" lon="3.70667">
        <ele>188.1</ele>
        <time>2012-01-22T10:48:23Z</time>
      </trkpt>
      <trkpt lat="43.58846" lon="3.7066">
        <ele>188</ele>
        <time>2012-01-22T10:48:27Z</time>
      </trkpt>
      <trkpt lat="43.58831" lon="3.70652">
        <ele>188.1</ele>
        <time>2012-01-22T10:48:31Z</time>
      </trkpt>
      <trkpt lat="43.58816" lon="3.70641">
        <ele>188.3</ele>
        <time>2012-01-22T10:48:35Z</time>
      </trkpt>
      <trkpt lat="43.58804" lon="3.70629">
        <ele>188.4</ele>
        <time>2012-01-22T10:48:39Z</time>
      </trkpt>
      <trkpt lat="43.58794" lon="3.70617">
        <ele>187.3</ele>
        <time>2012-01-22T10:48:43Z</time>
      </trkpt>
      <trkpt lat="43.58782" lon="3.70604">
        <ele>187.8</ele>
        <time>2012-01-22T10:48:47Z</time>
      </trkpt>
      <trkpt lat="43.58772" lon="3.70592">
        <ele>188.1</ele>
        <time>2012-01-22T10:48:51Z</time>
      </trkpt>
      <trkpt lat="43.58761" lon="3.70579">
        <ele>187.8</ele>
        <time>2012-01-22T10:48:55Z</time>
      </trkpt>
      <trkpt lat="43.58749" lon="3.70568">
        <ele>188.4</ele>
        <time>2012-01-22T10:48:59Z</time>
      </trkpt>
      <trkpt lat="43.58734" lon="3.70558">
        <ele>188.6</ele>
        <time>2012-01-22T10:49:03Z</time>
      </trkpt>
      <trkpt lat="43.58717" lon="3.70547">
        <ele>189</ele>
        <time>2012-01-22T10:49:07Z</time>
      </trkpt>
      <trkpt lat="43.587" lon="3.70535">
        <ele>188.9</ele>
        <time>2012-01-22T10:49:11Z</time>
      </trkpt>
      <trkpt lat="43.58684" lon="3.70523">
        <ele>188.4</ele>
        <time>2012-01-22T10:49:15Z</time>
      </trkpt>
      <trkpt lat="43.58668" lon="3.70509">
        <ele>188.7</ele>
        <time>2012-01-22T10:49:19Z</time>
      </trkpt>
      <trkpt lat="43.58654" lon="3.70496">
        <ele>188.1</ele>
        <time>2012-01-22T10:49:23Z</time>
      </trkpt>
      <trkpt lat="43.58639" lon="3.70496">
        <ele>186.8</ele>
        <time>2012-01-22T10:49:27Z</time>
      </trkpt>
      <trkpt lat="43.58631" lon="3.70511">
        <ele>186.6</ele>
        <time>2012-01-22T10:49:31Z</time>
      </trkpt>
      <trkpt lat="43.5863" lon="3.70532">
        <ele>186.4</ele>
        <time>2012-01-22T10:49:35Z</time>
      </trkpt>
      <trkpt lat="43.58628" lon="3.70553">
        <ele>186.4</ele>
        <time>2012-01-22T10:49:39Z</time>
      </trkpt>
      <trkpt lat="43.58623" lon="3.70574">
        <ele>187</ele>
        <time>2012-01-22T10:49:43Z</time>
      </trkpt>
      <trkpt lat="43.58617" lon="3.70594">
        <ele>187.6</ele>
        <time>2012-01-22T10:49:47Z</time>
      </trkpt>
      <trkpt lat="43.58613" lon="3.70614">
        <ele>187.4</ele>
        <time>2012-01-22T10:49:51Z</time>
      </trkpt>
      <trkpt lat="43.58609" lon="3.70636">
        <ele>187.7</ele>
        <time>2012-01-22T10:49:55Z</time>
      </trkpt>
      <trkpt lat="43.58609" lon="3.70659">
        <ele>188</ele>
        <time>2012-01-22T10:49:59Z</time>
      </trkpt>
      <trkpt lat="43.58612" lon="3.70682">
        <ele>187.4</ele>
        <time>2012-01-22T10:50:03Z</time>
      </trkpt>
      <trkpt lat="43.58612" lon="3.70709">
        <ele>187</ele>
        <time>2012-01-22T10:50:07Z</time>
      </trkpt>
      <trkpt lat="43.58611" lon="3.70737">
        <ele>187.1</ele>
        <time>2012-01-22T10:50:11Z</time>
      </trkpt>
      <trkpt lat="43.58609" lon="3.70764">
        <ele>187.4</ele>
        <time>2012-01-22T10:50:15Z</time>
      </trkpt>
      <trkpt lat="43.58606" lon="3.7079">
        <ele>186.5</ele>
        <time>2012-01-22T10:50:19Z</time>
      </trkpt>
      <trkpt lat="43.58603" lon="3.7082">
        <ele>185.9</ele>
        <time>2012-01-22T10:50:23Z</time>
      </trkpt>
      <trkpt lat="43.58602" lon="3.70855">
        <ele>185.3</ele>
        <time>2012-01-22T10:50:27Z</time>
      </trkpt>
      <trkpt lat="43.58603" lon="3.70882">
        <ele>183.5</ele>
        <time>2012-01-22T10:50:30Z</time>
      </trkpt>
      <trkpt lat="43.58604" lon="3.7093">
        <ele>180.8</ele>
        <time>2012-01-22T10:50:35Z</time>
      </trkpt>
      <trkpt lat="43.58603" lon="3.70972">
        <ele>179.5</ele>
        <time>2012-01-22T10:50:39Z</time>
      </trkpt>
      <trkpt lat="43.58606" lon="3.71012">
        <ele>177.7</ele>
        <time>2012-01-22T10:50:43Z</time>
      </trkpt>
      <trkpt lat="43.58605" lon="3.71052">
        <ele>176.9</ele>
        <time>2012-01-22T10:50:47Z</time>
      </trkpt>
      <trkpt lat="43.58603" lon="3.71091">
        <ele>176.3</ele>
        <time>2012-01-22T10:50:51Z</time>
      </trkpt>
      <trkpt lat="43.58601" lon="3.71128">
        <ele>176.4</ele>
        <time>2012-01-22T10:50:55Z</time>
      </trkpt>
      <trkpt lat="43.58602" lon="3.71161">
        <ele>176.3</ele>
        <time>2012-01-22T10:50:59Z</time>
      </trkpt>
      <trkpt lat="43.58603" lon="3.71191">
        <ele>176.3</ele>
        <time>2012-01-22T10:51:03Z</time>
      </trkpt>
      <trkpt lat="43.586" lon="3.7122">
        <ele>176.3</ele>
        <time>2012-01-22T10:51:07Z</time>
      </trkpt>
      <trkpt lat="43.58589" lon="3.7124">
        <ele>175.8</ele>
        <time>2012-01-22T10:51:11Z</time>
      </trkpt>
      <trkpt lat="43.58567" lon="3.71241">
        <ele>173.8</ele>
        <time>2012-01-22T10:51:15Z</time>
      </trkpt>
      <trkpt lat="43.58544" lon="3.71248">
        <ele>173.7</ele>
        <time>2012-01-22T10:51:19Z</time>
      </trkpt>
      <trkpt lat="43.5852" lon="3.71256">
        <ele>172.7</ele>
        <time>2012-01-22T10:51:23Z</time>
      </trkpt>
      <trkpt lat="43.58502" lon="3.71265">
        <ele>171.1</ele>
        <time>2012-01-22T10:51:26Z</time>
      </trkpt>
      <trkpt lat="43.58489" lon="3.71281">
        <ele>170.2</ele>
        <time>2012-01-22T10:51:30Z</time>
      </trkpt>
      <trkpt lat="43.58489" lon="3.71281">
        <ele>115</ele>
        <time>2012-01-22T10:51:42Z</time>
      </trkpt>
      <trkpt lat="43.58489" lon="3.71281">
        <ele>115</ele>
        <time>2012-01-22T10:51:57Z</time>
      </trkpt>
      <trkpt lat="43.58485" lon="3.71315">
        <ele>171.6</ele>
        <time>2012-01-22T10:52:02Z</time>
      </trkpt>
      <trkpt lat="43.58483" lon="3.71343">
        <ele>170.6</ele>
        <time>2012-01-22T10:52:06Z</time>
      </trkpt>
      <trkpt lat="43.58481" lon="3.71374">
        <ele>169.9</ele>
        <time>2012-01-22T10:52:10Z</time>
      </trkpt>
      <trkpt lat="43.58481" lon="3.71406">
        <ele>169.5</ele>
        <time>2012-01-22T10:52:14Z</time>
      </trkpt>
      <trkpt lat="43.5848" lon="3.71439">
        <ele>169.9</ele>
        <time>2012-01-22T10:52:18Z</time>
      </trkpt>
      <trkpt lat="43.5848" lon="3.71473">
        <ele>169.6</ele>
        <time>2012-01-22T10:52:22Z</time>
      </trkpt>
      <trkpt lat="43.58479" lon="3.71517">
        <ele>168.3</ele>
        <time>2012-01-22T10:52:27Z</time>
      </trkpt>
      <trkpt lat="43.58479" lon="3.7155">
        <ele>169.4</ele>
        <time>2012-01-22T10:52:31Z</time>
      </trkpt>
      <trkpt lat="43.58478" lon="3.71579">
        <ele>169.3</ele>
        <time>2012-01-22T10:52:35Z</time>
      </trkpt>
      <trkpt lat="43.58477" lon="3.71608">
        <ele>169.3</ele>
        <time>2012-01-22T10:52:39Z</time>
      </trkpt>
      <trkpt lat="43.58478" lon="3.71637">
        <ele>169.4</ele>
        <time>2012-01-22T10:52:43Z</time>
      </trkpt>
      <trkpt lat="43.58477" lon="3.71667">
        <ele>168.6</ele>
        <time>2012-01-22T10:52:47Z</time>
      </trkpt>
      <trkpt lat="43.58477" lon="3.71697">
        <ele>169.2</ele>
        <time>2012-01-22T10:52:51Z</time>
      </trkpt>
      <trkpt lat="43.58476" lon="3.7173">
        <ele>167.9</ele>
        <time>2012-01-22T10:52:55Z</time>
      </trkpt>
      <trkpt lat="43.58476" lon="3.71764">
        <ele>168</ele>
        <time>2012-01-22T10:52:59Z</time>
      </trkpt>
      <trkpt lat="43.58475" lon="3.71795">
        <ele>168.8</ele>
        <time>2012-01-22T10:53:03Z</time>
      </trkpt>
      <trkpt lat="43.58475" lon="3.71822">
        <ele>169.4</ele>
        <time>2012-01-22T10:53:07Z</time>
      </trkpt>
      <trkpt lat="43.58474" lon="3.71844">
        <ele>170.6</ele>
        <time>2012-01-22T10:53:11Z</time>
      </trkpt>
      <trkpt lat="43.58474" lon="3.71864">
        <ele>167.3</ele>
        <time>2012-01-22T10:53:15Z</time>
      </trkpt>
      <trkpt lat="43.58474" lon="3.71882">
        <ele>167</ele>
        <time>2012-01-22T10:53:19Z</time>
      </trkpt>
      <trkpt lat="43.58476" lon="3.71903">
        <ele>166.3</ele>
        <time>2012-01-22T10:53:24Z</time>
      </trkpt>
      <trkpt lat="43.58477" lon="3.71921">
        <ele>166.8</ele>
        <time>2012-01-22T10:53:28Z</time>
      </trkpt>
      <trkpt lat="43.58478" lon="3.7193">
        <ele>166.1</ele>
        <time>2012-01-22T10:53:30Z</time>
      </trkpt>
      <trkpt lat="43.58477" lon="3.71954">
        <ele>171.6</ele>
        <time>2012-01-22T10:53:36Z</time>
      </trkpt>
      <trkpt lat="43.58478" lon="3.71965">
        <ele>171</ele>
        <time>2012-01-22T10:53:39Z</time>
      </trkpt>
      <trkpt lat="43.5848" lon="3.71976">
        <ele>170.5</ele>
        <time>2012-01-22T10:53:42Z</time>
      </trkpt>
      <trkpt lat="43.58483" lon="3.71996">
        <ele>171.3</ele>
        <time>2012-01-22T10:53:48Z</time>
      </trkpt>
      <trkpt lat="43.58485" lon="3.72005">
        <ele>172.2</ele>
        <time>2012-01-22T10:53:51Z</time>
      </trkpt>
      <trkpt lat="43.58487" lon="3.72015">
        <ele>171.4</ele>
        <time>2012-01-22T10:53:54Z</time>
      </trkpt>
      <trkpt lat="43.58492" lon="3.72035">
        <ele>170.3</ele>
        <time>2012-01-22T10:54:00Z</time>
      </trkpt>
      <trkpt lat="43.58494" lon="3.72046">
        <ele>170.2</ele>
        <time>2012-01-22T10:54:03Z</time>
      </trkpt>
      <trkpt lat="43.58497" lon="3.72057">
        <ele>170.3</ele>
        <time>2012-01-22T10:54:06Z</time>
      </trkpt>
      <trkpt lat="43.585" lon="3.72078">
        <ele>171.5</ele>
        <time>2012-01-22T10:54:12Z</time>
      </trkpt>
      <trkpt lat="43.58501" lon="3.7209">
        <ele>170.9</ele>
        <time>2012-01-22T10:54:15Z</time>
      </trkpt>
      <trkpt lat="43.58502" lon="3.72102">
        <ele>171.2</ele>
        <time>2012-01-22T10:54:18Z</time>
      </trkpt>
      <trkpt lat="43.58502" lon="3.72126">
        <ele>171.8</ele>
        <time>2012-01-22T10:54:24Z</time>
      </trkpt>
      <trkpt lat="43.58504" lon="3.72137">
        <ele>171.9</ele>
        <time>2012-01-22T10:54:27Z</time>
      </trkpt>
      <trkpt lat="43.58505" lon="3.72149">
        <ele>172.6</ele>
        <time>2012-01-22T10:54:30Z</time>
      </trkpt>
      <trkpt lat="43.58507" lon="3.72173">
        <ele>172.5</ele>
        <time>2012-01-22T10:54:36Z</time>
      </trkpt>
      <trkpt lat="43.58509" lon="3.72186">
        <ele>172.1</ele>
        <time>2012-01-22T10:54:39Z</time>
      </trkpt>
      <trkpt lat="43.58511" lon="3.72198">
        <ele>172.5</ele>
        <time>2012-01-22T10:54:42Z</time>
      </trkpt>
      <trkpt lat="43.58513" lon="3.72223">
        <ele>172.6</ele>
        <time>2012-01-22T10:54:48Z</time>
      </trkpt>
      <trkpt lat="43.58515" lon="3.72234">
        <ele>174</ele>
        <time>2012-01-22T10:54:51Z</time>
      </trkpt>
      <trkpt lat="43.58516" lon="3.72247">
        <ele>174.5</ele>
        <time>2012-01-22T10:54:54Z</time>
      </trkpt>
      <trkpt lat="43.58518" lon="3.72271">
        <ele>174.2</ele>
        <time>2012-01-22T10:55:00Z</time>
      </trkpt>
      <trkpt lat="43.5852" lon="3.72289">
        <ele>174.3</ele>
        <time>2012-01-22T10:55:04Z</time>
      </trkpt>
      <trkpt lat="43.58529" lon="3.72303">
        <ele>175.5</ele>
        <time>2012-01-22T10:55:08Z</time>
      </trkpt>
      <trkpt lat="43.58544" lon="3.72306">
        <ele>174.7</ele>
        <time>2012-01-22T10:55:12Z</time>
      </trkpt>
      <trkpt lat="43.58562" lon="3.72306">
        <ele>175</ele>
        <time>2012-01-22T10:55:16Z</time>
      </trkpt>
      <trkpt lat="43.58581" lon="3.72306">
        <ele>174.5</ele>
        <time>2012-01-22T10:55:20Z</time>
      </trkpt>
      <trkpt lat="43.58602" lon="3.72305">
        <ele>173.2</ele>
        <time>2012-01-22T10:55:24Z</time>
      </trkpt>
      <trkpt lat="43.58622" lon="3.72305">
        <ele>174.5</ele>
        <time>2012-01-22T10:55:28Z</time>
      </trkpt>
      <trkpt lat="43.58644" lon="3.72306">
        <ele>175.3</ele>
        <time>2012-01-22T10:55:32Z</time>
      </trkpt>
      <trkpt lat="43.58668" lon="3.72308">
        <ele>175.3</ele>
        <time>2012-01-22T10:55:36Z</time>
      </trkpt>
      <trkpt lat="43.58693" lon="3.72316">
        <ele>173.5</ele>
        <time>2012-01-22T10:55:40Z</time>
      </trkpt>
      <trkpt lat="43.5872" lon="3.7233">
        <ele>173.2</ele>
        <time>2012-01-22T10:55:44Z</time>
      </trkpt>
      <trkpt lat="43.58748" lon="3.7235">
        <ele>170.7</ele>
        <time>2012-01-22T10:55:48Z</time>
      </trkpt>
      <trkpt lat="43.58778" lon="3.72369">
        <ele>169.8</ele>
        <time>2012-01-22T10:55:52Z</time>
      </trkpt>
      <trkpt lat="43.58808" lon="3.72385">
        <ele>169.1</ele>
        <time>2012-01-22T10:55:56Z</time>
      </trkpt>
      <trkpt lat="43.58836" lon="3.72399">
        <ele>167.9</ele>
        <time>2012-01-22T10:56:00Z</time>
      </trkpt>
      <trkpt lat="43.58848" lon="3.72409">
        <ele>168</ele>
        <time>2012-01-22T10:56:03Z</time>
      </trkpt>
      <trkpt lat="43.58853" lon="3.72419">
        <ele>166.9</ele>
        <time>2012-01-22T10:56:06Z</time>
      </trkpt>
      <trkpt lat="43.58857" lon="3.72441">
        <ele>166.3</ele>
        <time>2012-01-22T10:56:11Z</time>
      </trkpt>
      <trkpt lat="43.58862" lon="3.72469">
        <ele>165.3</ele>
        <time>2012-01-22T10:56:15Z</time>
      </trkpt>
      <trkpt lat="43.58865" lon="3.72501">
        <ele>165.6</ele>
        <time>2012-01-22T10:56:19Z</time>
      </trkpt>
      <trkpt lat="43.58866" lon="3.72532">
        <ele>165.3</ele>
        <time>2012-01-22T10:56:23Z</time>
      </trkpt>
      <trkpt lat="43.58863" lon="3.72572">
        <ele>164.9</ele>
        <time>2012-01-22T10:56:28Z</time>
      </trkpt>
      <trkpt lat="43.58866" lon="3.72604">
        <ele>164.5</ele>
        <time>2012-01-22T10:56:32Z</time>
      </trkpt>
      <trkpt lat="43.58871" lon="3.72633">
        <ele>164.2</ele>
        <time>2012-01-22T10:56:36Z</time>
      </trkpt>
      <trkpt lat="43.58871" lon="3.72664">
        <ele>163.7</ele>
        <time>2012-01-22T10:56:40Z</time>
      </trkpt>
      <trkpt lat="43.58867" lon="3.727">
        <ele>161.1</ele>
        <time>2012-01-22T10:56:44Z</time>
      </trkpt>
      <trkpt lat="43.58863" lon="3.72741">
        <ele>159.3</ele>
        <time>2012-01-22T10:56:48Z</time>
      </trkpt>
      <trkpt lat="43.58847" lon="3.72782">
        <ele>159.1</ele>
        <time>2012-01-22T10:56:52Z</time>
      </trkpt>
      <trkpt lat="43.58834" lon="3.72821">
        <ele>159.8</ele>
        <time>2012-01-22T10:56:56Z</time>
      </trkpt>
      <trkpt lat="43.58824" lon="3.72854">
        <ele>162.4</ele>
        <time>2012-01-22T10:57:00Z</time>
      </trkpt>
      <trkpt lat="43.58817" lon="3.72877">
        <ele>163</ele>
        <time>2012-01-22T10:57:03Z</time>
      </trkpt>
      <trkpt lat="43.58812" lon="3.72906">
        <ele>163.5</ele>
        <time>2012-01-22T10:57:07Z</time>
      </trkpt>
      <trkpt lat="43.58806" lon="3.72934">
        <ele>163.9</ele>
        <time>2012-01-22T10:57:11Z</time>
      </trkpt>
      <trkpt lat="43.58798" lon="3.72962">
        <ele>164.3</ele>
        <time>2012-01-22T10:57:15Z</time>
      </trkpt>
      <trkpt lat="43.58788" lon="3.72987">
        <ele>163.7</ele>
        <time>2012-01-22T10:57:19Z</time>
      </trkpt>
      <trkpt lat="43.58777" lon="3.73014">
        <ele>163.3</ele>
        <time>2012-01-22T10:57:23Z</time>
      </trkpt>
      <trkpt lat="43.58762" lon="3.73044">
        <ele>162.8</ele>
        <time>2012-01-22T10:57:27Z</time>
      </trkpt>
      <trkpt lat="43.58744" lon="3.73081">
        <ele>160.9</ele>
        <time>2012-01-22T10:57:31Z</time>
      </trkpt>
      <trkpt lat="43.58726" lon="3.7312">
        <ele>160.4</ele>
        <time>2012-01-22T10:57:35Z</time>
      </trkpt>
      <trkpt lat="43.58711" lon="3.73148">
        <ele>160</ele>
        <time>2012-01-22T10:57:38Z</time>
      </trkpt>
      <trkpt lat="43.58688" lon="3.73189">
        <ele>159.5</ele>
        <time>2012-01-22T10:57:43Z</time>
      </trkpt>
      <trkpt lat="43.58676" lon="3.73211">
        <ele>159.7</ele>
        <time>2012-01-22T10:57:46Z</time>
      </trkpt>
      <trkpt lat="43.58661" lon="3.73239">
        <ele>160.9</ele>
        <time>2012-01-22T10:57:50Z</time>
      </trkpt>
      <trkpt lat="43.5865" lon="3.73266">
        <ele>160.9</ele>
        <time>2012-01-22T10:57:54Z</time>
      </trkpt>
      <trkpt lat="43.58642" lon="3.73296">
        <ele>161.1</ele>
        <time>2012-01-22T10:57:58Z</time>
      </trkpt>
      <trkpt lat="43.58635" lon="3.73321">
        <ele>162.2</ele>
        <time>2012-01-22T10:58:02Z</time>
      </trkpt>
      <trkpt lat="43.58627" lon="3.73342">
        <ele>163.6</ele>
        <time>2012-01-22T10:58:06Z</time>
      </trkpt>
      <trkpt lat="43.58623" lon="3.73362">
        <ele>164.2</ele>
        <time>2012-01-22T10:58:11Z</time>
      </trkpt>
      <trkpt lat="43.5862" lon="3.73372">
        <ele>164.1</ele>
        <time>2012-01-22T10:58:15Z</time>
      </trkpt>
      <trkpt lat="43.58619" lon="3.73382">
        <ele>164.4</ele>
        <time>2012-01-22T10:58:18Z</time>
      </trkpt>
      <trkpt lat="43.58618" lon="3.73393">
        <ele>163.9</ele>
        <time>2012-01-22T10:58:22Z</time>
      </trkpt>
      <trkpt lat="43.58619" lon="3.73414">
        <ele>164.4</ele>
        <time>2012-01-22T10:58:28Z</time>
      </trkpt>
      <trkpt lat="43.58619" lon="3.73425">
        <ele>166.4</ele>
        <time>2012-01-22T10:58:31Z</time>
      </trkpt>
      <trkpt lat="43.58619" lon="3.73435">
        <ele>166.7</ele>
        <time>2012-01-22T10:58:34Z</time>
      </trkpt>
      <trkpt lat="43.58618" lon="3.73454">
        <ele>165.8</ele>
        <time>2012-01-22T10:58:40Z</time>
      </trkpt>
      <trkpt lat="43.58617" lon="3.73464">
        <ele>166.7</ele>
        <time>2012-01-22T10:58:43Z</time>
      </trkpt>
      <trkpt lat="43.58617" lon="3.73475">
        <ele>166.1</ele>
        <time>2012-01-22T10:58:46Z</time>
      </trkpt>
      <trkpt lat="43.58617" lon="3.73498">
        <ele>166.7</ele>
        <time>2012-01-22T10:58:52Z</time>
      </trkpt>
      <trkpt lat="43.58616" lon="3.73509">
        <ele>167.2</ele>
        <time>2012-01-22T10:58:55Z</time>
      </trkpt>
      <trkpt lat="43.58616" lon="3.73531">
        <ele>166</ele>
        <time>2012-01-22T10:59:00Z</time>
      </trkpt>
      <trkpt lat="43.58616" lon="3.73552">
        <ele>165.8</ele>
        <time>2012-01-22T10:59:04Z</time>
      </trkpt>
      <trkpt lat="43.58619" lon="3.73575">
        <ele>165.1</ele>
        <time>2012-01-22T10:59:08Z</time>
      </trkpt>
      <trkpt lat="43.58623" lon="3.73603">
        <ele>164.9</ele>
        <time>2012-01-22T10:59:12Z</time>
      </trkpt>
      <trkpt lat="43.58631" lon="3.73631">
        <ele>165.8</ele>
        <time>2012-01-22T10:59:16Z</time>
      </trkpt>
      <trkpt lat="43.58641" lon="3.73662">
        <ele>163.1</ele>
        <time>2012-01-22T10:59:20Z</time>
      </trkpt>
      <trkpt lat="43.58654" lon="3.73699">
        <ele>160.6</ele>
        <time>2012-01-22T10:59:24Z</time>
      </trkpt>
      <trkpt lat="43.58663" lon="3.73743">
        <ele>158</ele>
        <time>2012-01-22T10:59:28Z</time>
      </trkpt>
      <trkpt lat="43.58672" lon="3.73791">
        <ele>156.9</ele>
        <time>2012-01-22T10:59:32Z</time>
      </trkpt>
      <trkpt lat="43.58676" lon="3.7383">
        <ele>155.6</ele>
        <time>2012-01-22T10:59:35Z</time>
      </trkpt>
      <trkpt lat="43.58682" lon="3.73872">
        <ele>157</ele>
        <time>2012-01-22T10:59:39Z</time>
      </trkpt>
      <trkpt lat="43.58691" lon="3.73903">
        <ele>159.6</ele>
        <time>2012-01-22T10:59:43Z</time>
      </trkpt>
      <trkpt lat="43.58698" lon="3.73931">
        <ele>158.3</ele>
        <time>2012-01-22T10:59:47Z</time>
      </trkpt>
      <trkpt lat="43.58701" lon="3.7394">
        <ele>158.5</ele>
        <time>2012-01-22T10:59:49Z</time>
      </trkpt>
      <trkpt lat="43.58707" lon="3.73951">
        <ele>157.7</ele>
        <time>2012-01-22T10:59:52Z</time>
      </trkpt>
      <trkpt lat="43.58709" lon="3.73973">
        <ele>157.5</ele>
        <time>2012-01-22T10:59:59Z</time>
      </trkpt>
      <trkpt lat="43.58692" lon="3.73978">
        <ele>157.1</ele>
        <time>2012-01-22T11:00:02Z</time>
      </trkpt>
      <trkpt lat="43.58663" lon="3.73983">
        <ele>157.6</ele>
        <time>2012-01-22T11:00:07Z</time>
      </trkpt>
      <trkpt lat="43.58638" lon="3.73987">
        <ele>156.9</ele>
        <time>2012-01-22T11:00:11Z</time>
      </trkpt>
      <trkpt lat="43.58611" lon="3.73993">
        <ele>153.9</ele>
        <time>2012-01-22T11:00:15Z</time>
      </trkpt>
      <trkpt lat="43.58577" lon="3.74002">
        <ele>150.5</ele>
        <time>2012-01-22T11:00:19Z</time>
      </trkpt>
      <trkpt lat="43.58542" lon="3.7401">
        <ele>151.4</ele>
        <time>2012-01-22T11:00:23Z</time>
      </trkpt>
      <trkpt lat="43.58517" lon="3.74027">
        <ele>152.1</ele>
        <time>2012-01-22T11:00:27Z</time>
      </trkpt>
      <trkpt lat="43.58492" lon="3.74036">
        <ele>153.1</ele>
        <time>2012-01-22T11:00:31Z</time>
      </trkpt>
      <trkpt lat="43.58469" lon="3.74051">
        <ele>152.9</ele>
        <time>2012-01-22T11:00:35Z</time>
      </trkpt>
      <trkpt lat="43.58443" lon="3.74071">
        <ele>151.8</ele>
        <time>2012-01-22T11:00:39Z</time>
      </trkpt>
      <trkpt lat="43.58417" lon="3.74089">
        <ele>152.1</ele>
        <time>2012-01-22T11:00:43Z</time>
      </trkpt>
      <trkpt lat="43.58398" lon="3.741">
        <ele>152.7</ele>
        <time>2012-01-22T11:00:46Z</time>
      </trkpt>
      <trkpt lat="43.58383" lon="3.74119">
        <ele>154.7</ele>
        <time>2012-01-22T11:00:50Z</time>
      </trkpt>
      <trkpt lat="43.5837" lon="3.7414">
        <ele>154.7</ele>
        <time>2012-01-22T11:00:54Z</time>
      </trkpt>
      <trkpt lat="43.58361" lon="3.74166">
        <ele>155.3</ele>
        <time>2012-01-22T11:00:58Z</time>
      </trkpt>
      <trkpt lat="43.58345" lon="3.74189">
        <ele>154.3</ele>
        <time>2012-01-22T11:01:02Z</time>
      </trkpt>
      <trkpt lat="43.58316" lon="3.74206">
        <ele>151.1</ele>
        <time>2012-01-22T11:01:07Z</time>
      </trkpt>
      <trkpt lat="43.58294" lon="3.74221">
        <ele>149.3</ele>
        <time>2012-01-22T11:01:11Z</time>
      </trkpt>
      <trkpt lat="43.5828" lon="3.74253">
        <ele>148.8</ele>
        <time>2012-01-22T11:01:15Z</time>
      </trkpt>
      <trkpt lat="43.58266" lon="3.74288">
        <ele>147.1</ele>
        <time>2012-01-22T11:01:19Z</time>
      </trkpt>
      <trkpt lat="43.58253" lon="3.74328">
        <ele>145.3</ele>
        <time>2012-01-22T11:01:23Z</time>
      </trkpt>
      <trkpt lat="43.58236" lon="3.7437">
        <ele>144.2</ele>
        <time>2012-01-22T11:01:27Z</time>
      </trkpt>
      <trkpt lat="43.58221" lon="3.74414">
        <ele>143.2</ele>
        <time>2012-01-22T11:01:31Z</time>
      </trkpt>
      <trkpt lat="43.58208" lon="3.74455">
        <ele>142.7</ele>
        <time>2012-01-22T11:01:35Z</time>
      </trkpt>
      <trkpt lat="43.58198" lon="3.74501">
        <ele>140.7</ele>
        <time>2012-01-22T11:01:39Z</time>
      </trkpt>
      <trkpt lat="43.58204" lon="3.7455">
        <ele>139.8</ele>
        <time>2012-01-22T11:01:43Z</time>
      </trkpt>
      <trkpt lat="43.58213" lon="3.74605">
        <ele>136.1</ele>
        <time>2012-01-22T11:01:47Z</time>
      </trkpt>
      <trkpt lat="43.58226" lon="3.74665">
        <ele>130</ele>
        <time>2012-01-22T11:01:51Z</time>
      </trkpt>
      <trkpt lat="43.58228" lon="3.74733">
        <ele>125.6</ele>
        <time>2012-01-22T11:01:55Z</time>
      </trkpt>
      <trkpt lat="43.58224" lon="3.74805">
        <ele>121.6</ele>
        <time>2012-01-22T11:01:59Z</time>
      </trkpt>
      <trkpt lat="43.58208" lon="3.74871">
        <ele>116.4</ele>
        <time>2012-01-22T11:02:03Z</time>
      </trkpt>
      <trkpt lat="43.58184" lon="3.74935">
        <ele>112.6</ele>
        <time>2012-01-22T11:02:07Z</time>
      </trkpt>
      <trkpt lat="43.58161" lon="3.74996">
        <ele>110.7</ele>
        <time>2012-01-22T11:02:11Z</time>
      </trkpt>
      <trkpt lat="43.5815" lon="3.75025">
        <ele>112.4</ele>
        <time>2012-01-22T11:02:14Z</time>
      </trkpt>
      <trkpt lat="43.58149" lon="3.75045">
        <ele>112.6</ele>
        <time>2012-01-22T11:02:18Z</time>
      </trkpt>
      <trkpt lat="43.58159" lon="3.75068">
        <ele>111.7</ele>
        <time>2012-01-22T11:02:22Z</time>
      </trkpt>
      <trkpt lat="43.58175" lon="3.75102">
        <ele>109.6</ele>
        <time>2012-01-22T11:02:27Z</time>
      </trkpt>
      <trkpt lat="43.5819" lon="3.75131">
        <ele>109.2</ele>
        <time>2012-01-22T11:02:31Z</time>
      </trkpt>
      <trkpt lat="43.58204" lon="3.75165">
        <ele>108.5</ele>
        <time>2012-01-22T11:02:35Z</time>
      </trkpt>
      <trkpt lat="43.58217" lon="3.75201">
        <ele>108</ele>
        <time>2012-01-22T11:02:39Z</time>
      </trkpt>
      <trkpt lat="43.58233" lon="3.75236">
        <ele>108.5</ele>
        <time>2012-01-22T11:02:43Z</time>
      </trkpt>
      <trkpt lat="43.5825" lon="3.75273">
        <ele>108</ele>
        <time>2012-01-22T11:02:47Z</time>
      </trkpt>
      <trkpt lat="43.58267" lon="3.75309">
        <ele>107.4</ele>
        <time>2012-01-22T11:02:51Z</time>
      </trkpt>
      <trkpt lat="43.58281" lon="3.75346">
        <ele>106.6</ele>
        <time>2012-01-22T11:02:55Z</time>
      </trkpt>
      <trkpt lat="43.58298" lon="3.75382">
        <ele>106.2</ele>
        <time>2012-01-22T11:02:59Z</time>
      </trkpt>
      <trkpt lat="43.58313" lon="3.75416">
        <ele>106.6</ele>
        <time>2012-01-22T11:03:03Z</time>
      </trkpt>
      <trkpt lat="43.58326" lon="3.75448">
        <ele>106.9</ele>
        <time>2012-01-22T11:03:07Z</time>
      </trkpt>
      <trkpt lat="43.58339" lon="3.75478">
        <ele>107.5</ele>
        <time>2012-01-22T11:03:11Z</time>
      </trkpt>
      <trkpt lat="43.58353" lon="3.75509">
        <ele>107.6</ele>
        <time>2012-01-22T11:03:15Z</time>
      </trkpt>
      <trkpt lat="43.58364" lon="3.75532">
        <ele>108.1</ele>
        <time>2012-01-22T11:03:18Z</time>
      </trkpt>
      <trkpt lat="43.58375" lon="3.75558">
        <ele>107.3</ele>
        <time>2012-01-22T11:03:22Z</time>
      </trkpt>
      <trkpt lat="43.58388" lon="3.75586">
        <ele>107.7</ele>
        <time>2012-01-22T11:03:26Z</time>
      </trkpt>
      <trkpt lat="43.58398" lon="3.75613">
        <ele>107.8</ele>
        <time>2012-01-22T11:03:30Z</time>
      </trkpt>
      <trkpt lat="43.58405" lon="3.75642">
        <ele>107.2</ele>
        <time>2012-01-22T11:03:34Z</time>
      </trkpt>
      <trkpt lat="43.58416" lon="3.7567">
        <ele>106.5</ele>
        <time>2012-01-22T11:03:38Z</time>
      </trkpt>
      <trkpt lat="43.58427" lon="3.75696">
        <ele>106.9</ele>
        <time>2012-01-22T11:03:42Z</time>
      </trkpt>
      <trkpt lat="43.58438" lon="3.75723">
        <ele>106.6</ele>
        <time>2012-01-22T11:03:46Z</time>
      </trkpt>
      <trkpt lat="43.58449" lon="3.75747">
        <ele>107.2</ele>
        <time>2012-01-22T11:03:50Z</time>
      </trkpt>
      <trkpt lat="43.58462" lon="3.75769">
        <ele>106.7</ele>
        <time>2012-01-22T11:03:54Z</time>
      </trkpt>
      <trkpt lat="43.58463" lon="3.75796">
        <ele>105.5</ele>
        <time>2012-01-22T11:03:58Z</time>
      </trkpt>
      <trkpt lat="43.58452" lon="3.75824">
        <ele>104.8</ele>
        <time>2012-01-22T11:04:02Z</time>
      </trkpt>
      <trkpt lat="43.58438" lon="3.75863">
        <ele>103.6</ele>
        <time>2012-01-22T11:04:07Z</time>
      </trkpt>
      <trkpt lat="43.58424" lon="3.75896">
        <ele>102.8</ele>
        <time>2012-01-22T11:04:11Z</time>
      </trkpt>
      <trkpt lat="43.5841" lon="3.75932">
        <ele>102.8</ele>
        <time>2012-01-22T11:04:15Z</time>
      </trkpt>
      <trkpt lat="43.58397" lon="3.75965">
        <ele>101.3</ele>
        <time>2012-01-22T11:04:19Z</time>
      </trkpt>
      <trkpt lat="43.58388" lon="3.7599">
        <ele>100.7</ele>
        <time>2012-01-22T11:04:22Z</time>
      </trkpt>
      <trkpt lat="43.58378" lon="3.76024">
        <ele>100</ele>
        <time>2012-01-22T11:04:26Z</time>
      </trkpt>
      <trkpt lat="43.58364" lon="3.76061">
        <ele>98.8</ele>
        <time>2012-01-22T11:04:31Z</time>
      </trkpt>
      <trkpt lat="43.58351" lon="3.76084">
        <ele>98.7</ele>
        <time>2012-01-22T11:04:35Z</time>
      </trkpt>
      <trkpt lat="43.58343" lon="3.76116">
        <ele>98.7</ele>
        <time>2012-01-22T11:04:39Z</time>
      </trkpt>
      <trkpt lat="43.58335" lon="3.76156">
        <ele>99.1</ele>
        <time>2012-01-22T11:04:45Z</time>
      </trkpt>
      <trkpt lat="43.58336" lon="3.76167">
        <ele>100</ele>
        <time>2012-01-22T11:04:49Z</time>
      </trkpt>
      <trkpt lat="43.5832" lon="3.76195">
        <ele>100.6</ele>
        <time>2012-01-22T11:04:54Z</time>
      </trkpt>
      <trkpt lat="43.58312" lon="3.76216">
        <ele>100.1</ele>
        <time>2012-01-22T11:04:57Z</time>
      </trkpt>
      <trkpt lat="43.58302" lon="3.76238">
        <ele>99.3</ele>
        <time>2012-01-22T11:05:01Z</time>
      </trkpt>
      <trkpt lat="43.5829" lon="3.76271">
        <ele>98.1</ele>
        <time>2012-01-22T11:05:07Z</time>
      </trkpt>
      <trkpt lat="43.58276" lon="3.76295">
        <ele>97.8</ele>
        <time>2012-01-22T11:05:19Z</time>
      </trkpt>
      <trkpt lat="43.58276" lon="3.76295">
        <ele>41.4</ele>
        <time>2012-01-22T11:05:31Z</time>
      </trkpt>
    </trkseg>
    </trkseg>
  </trk>
</gpx>